[[{"header":{"parameterUnit":"m.s-1","parameterCategory":1,"la1":31.0,"la2":29.5877,"lo1":-88.7671,"lo2":-86.6584,"dx":0.0162,"dy":0.0185,"nx":115,"ny":88,"refTime":"2022-12-24T06:00:00:Z","depth":0,"parameterNumber":2,"parameterNumberName":"U-component_of_WINDS"},"data":[0.0,0.0,0.0,0.0,0.0,0.0,0.0,0.0,0.0,0.0,0.0,0.0,0.0,0.0,0.0,0.0,0.0,0.0,0.0,0.0,0.0,0.0,0.0,0.0,0.0,0.0,0.0,0.0,0.0,0.0,0.0,0.0,0.0,0.0,0.0,0.0,0.0,0.0,0.0,0.0,0.0,0.0,0.0,0.0,0.0,0.0,0.0,0.0,0.0,0.0,0.0,0.0,0.0,0.0,0.0,0.0,0.0,0.0,0.0,0.0,0.0,0.0,0.0,0.0,0.0,0.0,0.0,0.0,0.0,0.0,0.0,0.0,0.0,0.0,0.0,0.0,0.0,0.0,0.0,0.0,0.0,0.0,0.0,0.0,0.0,0.0,0.0,0.0,0.0,0.0,0.0,0.0,0.0,0.0,0.0,0.0,0.0,0.0,0.0,0.0,0.0,0.0,0.0,0.0,0.0,0.0,0.0,0.0,0.0,0.0,0.0,0.0,0.0,0.0,0.0,0.0,0.0,0.0,0.0,0.0,0.0,0.0,0.0,0.0,0.0,0.0,0.0,0.0,0.0,0.0,0.0,0.0,0.0,0.0,0.0,0.0,0.0,0.0,0.0,0.0,0.0,0.0,0.0,0.0,0.0,0.0,0.0,0.0,0.0,0.0,0.0,0.0,0.0,0.0,0.0,0.0,0.0,0.0,0.0,0.0,0.0,0.0,0.0,0.0,0.0,0.0,0.0,0.0,0.0,0.0,0.0,0.0,0.0,0.0,0.0,0.0,0.0,0.0,0.0,0.0,0.0,0.0,0.0,0.0,0.0,0.0,0.0,0.0,0.0,0.0,0.0,0.0,0.0,0.0,0.0,0.0,0.0,0.0,0.0,0.0,0.0,0.0,0.0,0.0,0.0,0.0,0.0,0.0,0.0,0.0,0.0,0.0,0.0,0.0,0.0,0.0,0.0,0.0,0.0,0.0,0.0,0.0,0.0,0.0,0.0,0.0,0.0,0.0,0.0,0.0,0.0,0.0,0.0,0.0,0.0,0.0,0.0,0.0,0.0,0.0,0.0,0.0,0.0,0.0,0.0,0.0,0.0,0.0,0.0,0.0,0.0,0.0,0.0,0.0,0.0,0.0,0.0,0.0,0.0,0.0,0.0,0.0,0.0,0.0,0.0,0.0,0.0,0.0,0.0,0.0,0.0,0.0,0.0,0.0,0.0,0.0,0.0,0.0,0.0,0.0,0.0,0.0,0.0,0.0,0.0,0.0,0.0,0.0,0.0,0.0,0.0,0.0,0.0,0.0,0.0,0.0,0.0,0.0,0.0,0.0,0.0,0.0,0.0,0.0,0.0,0.0,0.0,0.0,0.0,0.0,0.0,0.0,0.0,0.0,0.0,0.0,0.0,0.0,0.0,0.0,0.0,0.0,0.0,0.0,0.0,0.0,0.0,0.0,0.0,0.0,0.0,0.0,0.0,0.0,0.0,0.0,0.0,0.0,0.0,0.0,0.0,0.0,0.0,0.0,0.0,0.0,0.0,0.0,0.0,0.0,0.0,0.0,0.0,0.0,0.0,0.0,0.0,0.0,0.0,0.0,0.0,0.0,0.0,0.0,0.0,0.0,0.0,0.0,0.0,0.0,0.0,0.0,0.0,0.0,0.0,0.0,0.0,0.0,0.0,0.0,0.0,0.0,0.0,0.0,0.0,0.0,0.0,0.0,0.0,0.0,0.0,0.0,0.0,0.0,0.0,0.0,0.0,0.0,0.0,0.0,0.0,0.0,0.0,0.0,0.0,0.0,0.0,0.0,0.0,0.0,0.0,0.0,0.0,0.0,0.0,0.0,0.0,0.0,0.0,0.0,0.0,0.0,0.0,0.0,0.0,0.0,0.0,0.0,0.0,0.0,0.0,0.0,0.0,0.0,0.0,0.0,0.0,0.0,0.0,0.0,0.0,0.0,0.0,0.0,0.0,0.0,0.0,0.0,0.0,0.0,0.0,0.0,0.0,0.0,0.0,0.0,0.0,0.0,0.0,0.0,0.0,0.0,0.0,0.0,0.0,0.0,0.0,0.0,0.0,0.0,0.0,0.0,0.0,0.0,0.0,0.0,0.0,0.0,0.0,0.0,0.0,0.0,0.0,0.0,0.0,0.0,0.0,0.0,0.0,0.0,0.0,0.0,0.0,0.0,0.0,0.0,0.0,0.0,0.0,0.0,0.0,0.0,0.0,0.0,0.0,0.0,0.0,0.0,0.0,0.0,0.0,0.0,0.0,0.0,0.0,0.0,0.0,0.0,0.0,0.0,0.0,0.0,0.0,0.0,0.0,0.0,0.0,0.0,0.0,0.0,0.0,0.0,0.0,0.0,0.0,0.0,0.0,0.0,0.0,0.0,0.0,0.0,0.0,0.0,0.0,0.0,0.0,0.0,0.0,0.0,0.0,0.0,0.0,0.0,0.0,0.0,0.0,0.0,0.0,0.0,0.0,0.0,0.0,0.0,0.0,0.0,0.0,0.0,0.0,0.0,0.0,0.0,0.0,0.0,0.0,0.0,0.0,0.0,0.0,0.0,0.0,0.0,0.0,0.0,0.0,0.0,0.0,0.0,0.0,0.0,0.0,0.0,0.0,0.0,0.0,0.0,0.0,0.0,0.0,0.0,0.0,0.0,0.0,0.0,0.0,0.0,0.0,0.0,0.0,0.0,0.0,0.0,0.0,0.0,0.0,0.0,0.0,0.0,0.0,0.0,0.0,0.0,0.0,0.0,0.0,0.0,0.0,0.0,0.0,0.0,0.0,0.0,0.0,0.0,0.0,0.0,0.0,0.0,0.0,0.0,0.0,0.0,0.0,0.0,0.0,0.0,0.0,0.0,0.0,0.0,0.0,0.0,0.0,0.0,0.0,0.0,0.0,0.0,0.0,0.0,0.0,0.0,0.0,0.0,0.0,0.0,0.0,0.0,0.0,0.0,0.0,0.0,0.0,0.0,0.0,0.0,0.0,0.0,0.0,0.0,0.0,0.0,0.0,0.0,0.0,0.0,0.0,0.0,0.0,0.0,0.0,0.0,0.0,0.0,0.0,0.0,0.0,0.0,0.0,0.0,0.0,0.0,0.0,0.0,0.0,0.0,0.0,0.0,0.0,0.0,0.0,0.0,0.0,0.0,0.0,0.0,0.0,0.0,0.0,0.0,0.0,0.0,0.0,0.0,0.0,0.0,0.0,0.0,0.0,0.0,0.0,0.0,0.0,0.0,0.0,0.0,0.0,0.0,0.0,0.0,0.0,0.0,0.0,0.0,0.0,0.0,0.0,0.0,0.0,0.0,0.0,0.0,0.0,0.0,0.0,0.0,0.0,0.0,0.0,0.0,0.0,0.0,0.0,0.0,0.0,0.0,0.0,0.0,0.0,0.0,0.0,0.0,0.0,0.0,0.0,0.0,0.0,0.0,0.0,0.0,0.0,0.0,0.0,0.0,0.0,0.0,0.0,0.0,0.0,0.0,0.0,0.0,0.0,0.0,0.0,0.0,0.0,0.0,0.0,0.0,0.0,0.0,0.0,0.0,0.0,0.0,0.0,0.0,0.0,0.0,0.0,0.0,0.0,0.0,0.0,0.0,0.0,0.0,0.0,0.0,0.0,0.0,0.0,0.0,0.0,0.0,0.0,0.0,0.0,0.0,0.0,0.0,0.0,0.0,0.0,0.0,0.0,0.0,0.0,0.0,0.0,0.0,0.0,0.0,0.0,0.0,0.0,0.0,0.0,0.0,0.0,0.0,0.0,0.0,0.0,0.0,0.0,0.0,0.0,0.0,0.0,0.0,0.0,0.0,0.0,0.0,0.0,0.0,0.0,0.0,0.0,0.0,0.0,0.0,0.0,0.0,0.0,0.0,0.0,0.0,0.0,0.0,0.0,0.0,0.0,0.0,0.0,0.0,0.0,0.0,0.0,0.0,0.0,0.0,0.0,0.0,0.0,0.0,0.0,0.0,0.0,0.0,0.0,0.0,0.0,0.0,0.0,0.0,0.0,0.0,0.0,0.0,0.0,0.0,0.0,0.0,0.0,0.0,0.0,0.0,0.0,0.0,0.0,0.0,0.0,0.0,0.0,0.0,0.0,0.0,0.0,0.0,0.0,0.0,0.0,0.0,0.0,0.0,0.0,0.0,0.0,0.0,0.0,0.0,0.0,0.0,0.0,0.0,0.0,0.0,0.0,0.0,0.0,0.0,0.0,0.0,0.0,0.0,0.0,0.0,0.0,0.0,-4.2252,0.0,0.0,0.0,-4.1102,0.0,0.0,0.0,0.0,0.0,0.0,0.0,0.0,0.0,0.0,0.0,0.0,0.0,0.0,0.0,0.0,0.0,0.0,0.0,0.0,0.0,0.0,0.0,0.0,0.0,0.0,0.0,0.0,0.0,0.0,0.0,0.0,0.0,0.0,0.0,0.0,0.0,0.0,0.0,0.0,0.0,0.0,0.0,0.0,0.0,0.0,0.0,0.0,0.0,0.0,0.0,0.0,0.0,0.0,0.0,0.0,0.0,0.0,0.0,0.0,0.0,0.0,0.0,0.0,0.0,0.0,0.0,0.0,0.0,0.0,0.0,0.0,0.0,0.0,0.0,0.0,0.0,0.0,0.0,0.0,0.0,0.0,0.0,0.0,0.0,0.0,0.0,0.0,0.0,0.0,0.0,0.0,0.0,0.0,0.0,0.0,0.0,0.0,0.0,0.0,0.0,0.0,0.0,0.0,0.0,0.0,0.0,0.0,0.0,0.0,-4.3219,-4.2929,-4.2895,-4.2354,-4.1271,0.0,0.0,0.0,0.0,0.0,0.0,0.0,0.0,0.0,0.0,0.0,0.0,0.0,0.0,0.0,0.0,0.0,0.0,0.0,0.0,0.0,0.0,0.0,0.0,0.0,0.0,0.0,0.0,0.0,0.0,0.0,0.0,0.0,0.0,0.0,0.0,0.0,0.0,0.0,0.0,0.0,0.0,0.0,0.0,0.0,0.0,0.0,0.0,0.0,0.0,0.0,0.0,0.0,0.0,0.0,0.0,0.0,0.0,0.0,0.0,0.0,0.0,0.0,0.0,0.0,0.0,0.0,0.0,0.0,0.0,0.0,0.0,0.0,0.0,0.0,0.0,0.0,0.0,0.0,0.0,0.0,0.0,0.0,0.0,0.0,0.0,0.0,0.0,0.0,0.0,0.0,0.0,0.0,0.0,0.0,0.0,0.0,0.0,0.0,0.0,0.0,0.0,0.0,0.0,0.0,0.0,0.0,0.0,0.0,0.0,0.0,0.0,-4.3591,-4.2983,-4.1726,0.0,0.0,0.0,0.0,0.0,0.0,0.0,0.0,0.0,0.0,0.0,0.0,0.0,0.0,0.0,0.0,0.0,0.0,0.0,0.0,0.0,0.0,0.0,0.0,0.0,0.0,0.0,0.0,0.0,0.0,0.0,0.0,0.0,0.0,0.0,0.0,0.0,0.0,0.0,0.0,0.0,0.0,0.0,0.0,0.0,0.0,0.0,0.0,0.0,0.0,0.0,0.0,0.0,0.0,0.0,0.0,0.0,0.0,0.0,0.0,0.0,0.0,0.0,0.0,0.0,0.0,0.0,0.0,0.0,0.0,0.0,0.0,0.0,0.0,0.0,0.0,0.0,0.0,0.0,0.0,0.0,0.0,0.0,0.0,0.0,0.0,0.0,0.0,0.0,0.0,0.0,0.0,0.0,0.0,0.0,0.0,0.0,0.0,0.0,0.0,0.0,0.0,0.0,0.0,0.0,0.0,0.0,0.0,0.0,0.0,-4.4378,-4.4054,-4.4135,0.0,-4.3081,0.0,0.0,0.0,0.0,0.0,0.0,0.0,0.0,0.0,0.0,0.0,0.0,0.0,0.0,0.0,0.0,0.0,0.0,0.0,0.0,0.0,0.0,0.0,0.0,0.0,0.0,0.0,0.0,0.0,0.0,0.0,0.0,0.0,0.0,0.0,0.0,0.0,0.0,0.0,0.0,0.0,0.0,0.0,0.0,0.0,0.0,0.0,0.0,0.0,0.0,0.0,0.0,0.0,0.0,0.0,0.0,0.0,0.0,0.0,0.0,0.0,0.0,0.0,0.0,0.0,0.0,0.0,0.0,0.0,0.0,0.0,0.0,0.0,0.0,0.0,0.0,0.0,0.0,0.0,0.0,0.0,0.0,0.0,0.0,0.0,0.0,0.0,0.0,0.0,0.0,0.0,0.0,0.0,0.0,0.0,0.0,0.0,0.0,0.0,0.0,0.0,0.0,0.0,0.0,0.0,0.0,0.0,0.0,0.0,0.0,-4.4562,-4.4097,-4.4155,-4.4049,0.0,0.0,0.0,0.0,0.0,0.0,0.0,0.0,0.0,0.0,0.0,0.0,0.0,0.0,0.0,0.0,0.0,0.0,0.0,0.0,0.0,0.0,0.0,0.0,0.0,0.0,0.0,0.0,0.0,0.0,0.0,0.0,0.0,0.0,0.0,0.0,0.0,0.0,0.0,0.0,0.0,0.0,0.0,0.0,0.0,0.0,0.0,0.0,0.0,0.0,0.0,0.0,0.0,0.0,0.0,0.0,0.0,0.0,0.0,0.0,0.0,0.0,0.0,0.0,0.0,0.0,0.0,0.0,0.0,0.0,0.0,0.0,0.0,0.0,0.0,0.0,0.0,0.0,0.0,0.0,0.0,0.0,0.0,0.0,0.0,0.0,0.0,0.0,0.0,0.0,0.0,0.0,0.0,0.0,0.0,0.0,0.0,0.0,0.0,0.0,0.0,0.0,0.0,0.0,0.0,0.0,0.0,0.0,0.0,0.0,-4.4653,-4.4757,-4.4378,-4.4682,-4.4745,-4.4432,0.0,0.0,0.0,0.0,0.0,0.0,0.0,0.0,0.0,0.0,0.0,0.0,0.0,0.0,0.0,0.0,0.0,0.0,0.0,0.0,0.0,0.0,0.0,0.0,0.0,0.0,0.0,0.0,0.0,0.0,0.0,0.0,0.0,0.0,0.0,0.0,0.0,0.0,0.0,0.0,0.0,0.0,0.0,0.0,0.0,0.0,0.0,0.0,0.0,0.0,0.0,0.0,0.0,0.0,0.0,0.0,0.0,0.0,0.0,0.0,0.0,0.0,0.0,0.0,0.0,0.0,0.0,0.0,0.0,0.0,0.0,0.0,0.0,0.0,0.0,0.0,0.0,0.0,0.0,0.0,0.0,0.0,0.0,0.0,0.0,0.0,0.0,0.0,0.0,0.0,0.0,0.0,0.0,0.0,0.0,0.0,0.0,0.0,0.0,0.0,0.0,0.0,0.0,0.0,0.0,0.0,0.0,0.0,-4.396,-4.4749,-4.5083,-4.4933,-4.6107,-4.6269,0.0,0.0,0.0,0.0,0.0,0.0,0.0,0.0,0.0,0.0,0.0,0.0,0.0,0.0,0.0,0.0,0.0,0.0,0.0,0.0,0.0,0.0,0.0,0.0,0.0,0.0,0.0,0.0,0.0,0.0,0.0,0.0,0.0,0.0,0.0,0.0,0.0,0.0,0.0,0.0,0.0,0.0,0.0,0.0,0.0,0.0,0.0,0.0,0.0,0.0,0.0,0.0,0.0,0.0,0.0,0.0,0.0,0.0,0.0,0.0,0.0,0.0,0.0,0.0,0.0,0.0,0.0,0.0,0.0,0.0,0.0,0.0,0.0,0.0,0.0,0.0,0.0,0.0,0.0,0.0,0.0,0.0,0.0,0.0,0.0,0.0,0.0,0.0,0.0,0.0,0.0,0.0,0.0,0.0,0.0,0.0,0.0,0.0,0.0,0.0,0.0,0.0,0.0,0.0,0.0,0.0,0.0,0.0,0.0,-4.523,-4.5435,-4.6036,-4.6839,-4.6906,-4.6706,0.0,0.0,0.0,0.0,0.0,0.0,0.0,0.0,0.0,0.0,0.0,0.0,0.0,0.0,0.0,0.0,0.0,0.0,0.0,0.0,0.0,0.0,0.0,0.0,0.0,0.0,0.0,0.0,0.0,0.0,0.0,0.0,0.0,0.0,0.0,0.0,0.0,0.0,0.0,0.0,0.0,0.0,0.0,0.0,0.0,0.0,0.0,0.0,0.0,0.0,0.0,0.0,0.0,0.0,0.0,0.0,0.0,0.0,0.0,0.0,0.0,0.0,0.0,0.0,0.0,0.0,0.0,0.0,0.0,0.0,0.0,0.0,0.0,0.0,0.0,0.0,0.0,0.0,0.0,0.0,0.0,0.0,0.0,0.0,0.0,0.0,0.0,0.0,0.0,0.0,0.0,0.0,0.0,0.0,0.0,0.0,0.0,0.0,0.0,0.0,0.0,0.0,0.0,0.0,0.0,0.0,0.0,0.0,0.0,-4.5857,-4.557,-4.5996,-4.7177,-4.698,-4.6913,0.0,0.0,0.0,0.0,0.0,0.0,0.0,0.0,0.0,0.0,0.0,0.0,0.0,0.0,0.0,0.0,0.0,0.0,0.0,0.0,0.0,0.0,0.0,0.0,0.0,0.0,0.0,0.0,0.0,0.0,0.0,0.0,0.0,0.0,0.0,0.0,0.0,0.0,0.0,0.0,0.0,0.0,0.0,0.0,0.0,0.0,0.0,0.0,0.0,0.0,0.0,0.0,0.0,0.0,0.0,0.0,0.0,0.0,0.0,0.0,0.0,0.0,0.0,0.0,0.0,0.0,0.0,0.0,0.0,0.0,0.0,0.0,0.0,0.0,0.0,0.0,0.0,0.0,0.0,0.0,0.0,0.0,0.0,0.0,0.0,0.0,0.0,0.0,0.0,0.0,0.0,0.0,0.0,0.0,0.0,0.0,0.0,0.0,0.0,0.0,0.0,0.0,0.0,0.0,0.0,0.0,0.0,0.0,-4.6487,-4.5693,-4.504,-4.5072,-4.5724,-4.6439,-4.6878,0.0,0.0,0.0,0.0,0.0,0.0,0.0,0.0,0.0,0.0,0.0,0.0,0.0,0.0,0.0,0.0,0.0,0.0,0.0,0.0,0.0,0.0,0.0,0.0,0.0,0.0,0.0,0.0,0.0,0.0,0.0,0.0,0.0,0.0,0.0,0.0,0.0,0.0,0.0,0.0,0.0,0.0,0.0,0.0,0.0,0.0,0.0,0.0,0.0,0.0,0.0,0.0,0.0,0.0,0.0,0.0,0.0,0.0,0.0,0.0,0.0,0.0,0.0,0.0,0.0,0.0,0.0,0.0,0.0,0.0,0.0,0.0,0.0,0.0,0.0,0.0,0.0,0.0,0.0,0.0,0.0,0.0,0.0,0.0,0.0,0.0,0.0,0.0,0.0,0.0,0.0,0.0,0.0,0.0,0.0,0.0,0.0,0.0,0.0,0.0,0.0,0.0,0.0,0.0,0.0,0.0,0.0,0.0,0.0,-4.5702,-4.5457,-4.5488,-4.5738,-4.6421,-4.6833,0.0,0.0,0.0,0.0,0.0,0.0,0.0,0.0,0.0,0.0,0.0,0.0,0.0,0.0,0.0,0.0,0.0,0.0,0.0,0.0,0.0,0.0,0.0,0.0,0.0,0.0,0.0,0.0,0.0,0.0,0.0,0.0,0.0,0.0,0.0,0.0,0.0,0.0,0.0,0.0,0.0,0.0,0.0,0.0,0.0,0.0,0.0,0.0,0.0,0.0,0.0,0.0,0.0,0.0,0.0,0.0,0.0,0.0,0.0,0.0,0.0,0.0,0.0,0.0,0.0,0.0,0.0,0.0,0.0,0.0,0.0,0.0,0.0,0.0,0.0,0.0,0.0,0.0,0.0,0.0,0.0,0.0,0.0,0.0,0.0,0.0,0.0,0.0,0.0,0.0,0.0,0.0,0.0,0.0,0.0,0.0,0.0,0.0,0.0,0.0,0.0,0.0,0.0,0.0,0.0,0.0,0.0,0.0,0.0,-4.5518,-4.5556,-4.5701,-4.5972,-4.6202,-4.6442,-4.6728,0.0,0.0,0.0,0.0,0.0,0.0,0.0,0.0,0.0,0.0,0.0,0.0,0.0,0.0,0.0,0.0,0.0,0.0,0.0,0.0,0.0,0.0,0.0,0.0,0.0,0.0,0.0,0.0,0.0,0.0,0.0,0.0,0.0,0.0,0.0,0.0,0.0,0.0,0.0,0.0,0.0,0.0,0.0,0.0,0.0,0.0,0.0,0.0,0.0,0.0,0.0,0.0,0.0,0.0,0.0,0.0,0.0,0.0,0.0,0.0,0.0,0.0,0.0,0.0,0.0,0.0,0.0,0.0,0.0,0.0,0.0,0.0,0.0,0.0,0.0,0.0,0.0,0.0,0.0,0.0,0.0,0.0,0.0,0.0,0.0,0.0,0.0,0.0,0.0,0.0,0.0,0.0,0.0,0.0,0.0,0.0,0.0,0.0,0.0,0.0,0.0,0.0,0.0,0.0,0.0,0.0,0.0,0.0,-4.5274,-4.5364,-4.5746,-4.6392,-4.5856,-4.5904,0.0,0.0,0.0,0.0,0.0,0.0,0.0,0.0,0.0,0.0,0.0,0.0,0.0,0.0,0.0,0.0,0.0,0.0,0.0,0.0,0.0,0.0,0.0,0.0,0.0,0.0,0.0,0.0,0.0,0.0,0.0,0.0,0.0,0.0,0.0,0.0,0.0,0.0,0.0,0.0,0.0,0.0,0.0,0.0,0.0,0.0,0.0,0.0,0.0,0.0,0.0,0.0,0.0,0.0,0.0,0.0,0.0,0.0,0.0,0.0,0.0,0.0,0.0,0.0,0.0,0.0,0.0,0.0,0.0,0.0,0.0,0.0,0.0,0.0,0.0,0.0,0.0,0.0,0.0,0.0,0.0,0.0,0.0,0.0,0.0,0.0,0.0,0.0,0.0,0.0,0.0,0.0,0.0,0.0,0.0,0.0,0.0,0.0,0.0,0.0,0.0,0.0,0.0,0.0,0.0,0.0,0.0,0.0,0.0,-4.5346,-4.6262,-4.6376,-4.5634,-4.5999,-4.6128,0.0,0.0,0.0,0.0,0.0,0.0,0.0,0.0,0.0,0.0,0.0,0.0,0.0,0.0,0.0,0.0,0.0,0.0,0.0,0.0,0.0,0.0,0.0,0.0,0.0,0.0,0.0,0.0,0.0,0.0,0.0,0.0,0.0,0.0,0.0,0.0,0.0,0.0,0.0,0.0,0.0,0.0,0.0,0.0,0.0,0.0,0.0,0.0,0.0,0.0,0.0,0.0,0.0,0.0,0.0,0.0,0.0,0.0,0.0,0.0,0.0,0.0,0.0,0.0,0.0,0.0,0.0,0.0,0.0,0.0,0.0,0.0,0.0,0.0,0.0,0.0,0.0,0.0,0.0,0.0,0.0,0.0,0.0,0.0,0.0,0.0,0.0,0.0,0.0,0.0,0.0,0.0,0.0,0.0,0.0,0.0,0.0,0.0,0.0,0.0,0.0,0.0,0.0,0.0,0.0,0.0,0.0,0.0,-4.5304,-4.6112,-4.689,-4.707,-4.6561,-4.6452,-4.6255,0.0,0.0,0.0,0.0,0.0,0.0,0.0,0.0,0.0,0.0,0.0,0.0,0.0,0.0,0.0,0.0,0.0,0.0,0.0,0.0,0.0,0.0,0.0,0.0,0.0,0.0,0.0,0.0,0.0,0.0,0.0,0.0,0.0,0.0,0.0,0.0,0.0,0.0,0.0,0.0,0.0,0.0,0.0,0.0,0.0,0.0,0.0,0.0,0.0,0.0,0.0,0.0,0.0,0.0,0.0,0.0,0.0,0.0,0.0,0.0,0.0,0.0,0.0,0.0,0.0,0.0,0.0,0.0,0.0,0.0,0.0,0.0,0.0,0.0,0.0,0.0,0.0,0.0,0.0,0.0,0.0,0.0,0.0,0.0,0.0,0.0,0.0,0.0,0.0,0.0,0.0,0.0,0.0,0.0,0.0,0.0,0.0,0.0,0.0,0.0,0.0,0.0,0.0,0.0,0.0,0.0,0.0,0.0,-4.5364,-4.704,-4.7309,-4.7638,-4.8117,-4.71,-4.6429,0.0,0.0,0.0,0.0,0.0,0.0,0.0,0.0,0.0,0.0,0.0,0.0,0.0,0.0,0.0,0.0,0.0,0.0,0.0,0.0,0.0,0.0,0.0,0.0,0.0,0.0,0.0,0.0,0.0,0.0,0.0,0.0,0.0,0.0,0.0,0.0,0.0,0.0,0.0,0.0,0.0,0.0,0.0,0.0,0.0,0.0,0.0,0.0,0.0,0.0,0.0,0.0,0.0,0.0,0.0,0.0,0.0,0.0,0.0,0.0,0.0,0.0,0.0,0.0,0.0,0.0,0.0,0.0,0.0,0.0,0.0,0.0,0.0,0.0,0.0,0.0,0.0,0.0,0.0,0.0,0.0,0.0,0.0,0.0,0.0,0.0,0.0,0.0,0.0,0.0,0.0,0.0,0.0,0.0,0.0,0.0,0.0,0.0,0.0,0.0,0.0,0.0,0.0,0.0,0.0,0.0,0.0,0.0,-4.5843,-4.5753,-4.7249,-4.7908,-4.7519,-4.7758,-4.7399,0.0,0.0,0.0,0.0,0.0,0.0,0.0,0.0,0.0,0.0,0.0,0.0,0.0,0.0,0.0,0.0,0.0,0.0,0.0,0.0,0.0,0.0,0.0,0.0,0.0,0.0,0.0,0.0,0.0,0.0,0.0,0.0,0.0,0.0,0.0,0.0,0.0,0.0,0.0,0.0,0.0,0.0,0.0,0.0,0.0,0.0,0.0,0.0,-4.3614,0.0,0.0,0.0,0.0,0.0,0.0,0.0,0.0,0.0,0.0,0.0,0.0,0.0,0.0,0.0,0.0,0.0,0.0,0.0,0.0,0.0,0.0,0.0,0.0,0.0,0.0,0.0,0.0,0.0,0.0,0.0,0.0,0.0,0.0,0.0,0.0,0.0,0.0,0.0,0.0,0.0,0.0,0.0,0.0,0.0,0.0,0.0,0.0,0.0,0.0,0.0,0.0,0.0,0.0,0.0,0.0,0.0,0.0,0.0,-4.6621,-4.6292,-4.7878,-4.8596,-4.8237,-4.8267,-4.7818,0.0,0.0,0.0,0.0,0.0,0.0,0.0,0.0,0.0,0.0,0.0,0.0,0.0,0.0,0.0,0.0,0.0,0.0,0.0,0.0,0.0,0.0,0.0,0.0,0.0,0.0,0.0,0.0,0.0,0.0,0.0,0.0,0.0,0.0,0.0,0.0,0.0,0.0,0.0,0.0,0.0,0.0,0.0,0.0,0.0,0.0,0.0,0.0,0.0,0.0,0.0,0.0,0.0,0.0,0.0,0.0,0.0,0.0,0.0,0.0,0.0,0.0,0.0,0.0,0.0,0.0,0.0,0.0,0.0,0.0,0.0,0.0,0.0,0.0,0.0,0.0,0.0,0.0,0.0,0.0,0.0,0.0,0.0,0.0,0.0,0.0,0.0,0.0,0.0,0.0,0.0,0.0,0.0,0.0,0.0,0.0,0.0,0.0,0.0,0.0,0.0,0.0,0.0,0.0,0.0,0.0,0.0,-4.6441,-4.7399,-4.7369,-4.8686,-4.9314,-4.9149,-4.8686,-4.8117,-4.7459,0.0,0.0,0.0,0.0,0.0,0.0,0.0,0.0,0.0,0.0,0.0,0.0,0.0,0.0,0.0,0.0,0.0,0.0,0.0,0.0,0.0,0.0,0.0,0.0,0.0,0.0,0.0,0.0,0.0,0.0,0.0,0.0,0.0,0.0,0.0,0.0,0.0,0.0,-4.2372,-4.2885,0.0,0.0,0.0,0.0,0.0,0.0,0.0,0.0,-4.4895,0.0,0.0,0.0,0.0,0.0,0.0,0.0,0.0,0.0,0.0,0.0,0.0,0.0,0.0,0.0,0.0,0.0,0.0,0.0,0.0,0.0,0.0,0.0,0.0,0.0,0.0,0.0,0.0,0.0,0.0,0.0,0.0,0.0,0.0,0.0,0.0,0.0,0.0,0.0,0.0,0.0,0.0,0.0,0.0,0.0,0.0,0.0,0.0,0.0,0.0,0.0,0.0,0.0,0.0,0.0,0.0,-4.5155,-4.71,-4.7848,-4.7369,-4.9105,-4.9553,-4.8506,-4.8865,-4.8805,-4.8087,0.0,0.0,0.0,0.0,0.0,0.0,0.0,0.0,0.0,0.0,0.0,0.0,0.0,0.0,0.0,0.0,0.0,0.0,0.0,0.0,0.0,0.0,0.0,0.0,0.0,0.0,0.0,0.0,0.0,0.0,0.0,0.0,0.0,0.0,0.0,0.0,0.0,0.0,0.0,-4.4004,-4.4418,0.0,0.0,0.0,0.0,0.0,0.0,0.0,0.0,-4.5999,0.0,0.0,0.0,0.0,0.0,0.0,0.0,0.0,0.0,0.0,0.0,0.0,0.0,0.0,0.0,0.0,0.0,0.0,0.0,0.0,0.0,0.0,0.0,0.0,0.0,0.0,0.0,0.0,0.0,0.0,0.0,0.0,0.0,0.0,0.0,0.0,0.0,0.0,0.0,0.0,0.0,0.0,0.0,0.0,0.0,0.0,0.0,0.0,0.0,0.0,0.0,0.0,0.0,0.0,0.0,-4.5903,-4.7788,-4.8476,-4.7878,-4.9075,-4.9613,-4.9284,-4.9284,-4.9254,0.0,0.0,0.0,0.0,0.0,0.0,0.0,0.0,0.0,0.0,0.0,0.0,0.0,0.0,0.0,0.0,0.0,0.0,0.0,0.0,0.0,0.0,0.0,0.0,0.0,0.0,0.0,0.0,0.0,0.0,0.0,0.0,0.0,0.0,0.0,0.0,0.0,0.0,0.0,0.0,-4.497,-4.5598,-4.5839,0.0,0.0,0.0,0.0,0.0,0.0,-4.6979,-4.6954,0.0,0.0,0.0,0.0,0.0,0.0,0.0,0.0,0.0,0.0,0.0,0.0,0.0,0.0,0.0,0.0,0.0,0.0,0.0,0.0,0.0,0.0,0.0,0.0,0.0,0.0,0.0,0.0,0.0,0.0,0.0,0.0,0.0,0.0,0.0,0.0,0.0,0.0,0.0,0.0,0.0,0.0,0.0,0.0,0.0,0.0,0.0,0.0,0.0,0.0,0.0,0.0,0.0,0.0,0.0,-4.5973,-4.7614,-4.8354,-4.8072,-4.8472,-4.9097,-4.9859,-4.931,-4.9312,0.0,0.0,0.0,0.0,0.0,0.0,0.0,0.0,0.0,0.0,0.0,0.0,0.0,0.0,0.0,0.0,0.0,0.0,0.0,0.0,0.0,0.0,0.0,0.0,0.0,0.0,0.0,0.0,0.0,0.0,0.0,0.0,0.0,0.0,0.0,0.0,0.0,0.0,0.0,0.0,0.0,-4.6627,-4.7018,-4.723,0.0,0.0,0.0,0.0,-4.7456,-4.7908,0.0,0.0,0.0,0.0,0.0,0.0,0.0,0.0,0.0,0.0,0.0,0.0,0.0,0.0,0.0,0.0,0.0,0.0,0.0,0.0,0.0,0.0,0.0,0.0,0.0,0.0,0.0,0.0,0.0,0.0,0.0,0.0,0.0,0.0,0.0,0.0,0.0,0.0,0.0,0.0,0.0,0.0,0.0,0.0,0.0,0.0,0.0,0.0,0.0,0.0,0.0,0.0,0.0,0.0,0.0,0.0,-4.4542,-4.5336,-4.6186,-4.708,-4.6829,-4.732,-4.8738,-4.8278,-4.8433,0.0,0.0,0.0,0.0,0.0,0.0,0.0,0.0,0.0,0.0,0.0,0.0,0.0,0.0,0.0,0.0,0.0,0.0,0.0,0.0,0.0,0.0,0.0,0.0,0.0,0.0,0.0,0.0,0.0,0.0,0.0,0.0,0.0,0.0,0.0,0.0,0.0,0.0,0.0,0.0,0.0,-4.6993,-4.7068,-4.7531,-4.7832,0.0,0.0,-4.8586,-4.8586,-4.9038,0.0,0.0,0.0,0.0,0.0,0.0,0.0,0.0,0.0,0.0,0.0,0.0,0.0,0.0,0.0,0.0,0.0,0.0,0.0,0.0,0.0,0.0,0.0,0.0,0.0,0.0,0.0,0.0,0.0,0.0,0.0,0.0,0.0,0.0,0.0,0.0,0.0,0.0,0.0,0.0,0.0,0.0,0.0,0.0,0.0,0.0,0.0,0.0,0.0,0.0,0.0,0.0,0.0,0.0,0.0,-4.3449,-4.4097,-4.5144,-4.607,-4.6762,-4.6736,-4.72,-4.8239,-4.8382,-4.8758,0.0,0.0,0.0,0.0,0.0,0.0,0.0,0.0,0.0,0.0,0.0,0.0,0.0,0.0,0.0,0.0,0.0,0.0,0.0,0.0,0.0,0.0,0.0,0.0,0.0,0.0,0.0,0.0,0.0,0.0,0.0,0.0,0.0,0.0,0.0,0.0,0.0,0.0,0.0,0.0,0.0,0.0,-4.8008,-4.8259,0.0,0.0,0.0,-4.8786,-4.8786,0.0,0.0,0.0,0.0,0.0,0.0,0.0,0.0,0.0,0.0,0.0,0.0,0.0,0.0,0.0,0.0,0.0,0.0,0.0,0.0,0.0,0.0,0.0,0.0,0.0,0.0,0.0,0.0,0.0,0.0,0.0,0.0,0.0,0.0,0.0,0.0,0.0,0.0,0.0,0.0,0.0,0.0,0.0,0.0,0.0,0.0,0.0,0.0,0.0,0.0,0.0,0.0,0.0,0.0,0.0,0.0,0.0,-4.3177,-4.4151,-4.5111,-4.5973,-4.5793,-4.6288,-4.7559,-4.8033,0.0,0.0,0.0,0.0,0.0,0.0,0.0,0.0,0.0,0.0,0.0,0.0,0.0,0.0,0.0,0.0,0.0,0.0,0.0,0.0,0.0,0.0,0.0,0.0,0.0,0.0,0.0,-4.2452,0.0,0.0,0.0,0.0,0.0,0.0,0.0,0.0,0.0,0.0,0.0,0.0,0.0,0.0,-4.8159,-4.8887,-4.8987,-4.9101,0.0,0.0,-4.9238,-4.9389,-4.9615,-4.9615,0.0,0.0,0.0,0.0,0.0,0.0,0.0,0.0,0.0,0.0,0.0,0.0,0.0,0.0,0.0,0.0,0.0,0.0,0.0,0.0,0.0,0.0,0.0,0.0,0.0,0.0,0.0,0.0,0.0,0.0,0.0,0.0,0.0,0.0,0.0,0.0,0.0,0.0,0.0,0.0,0.0,0.0,0.0,0.0,0.0,0.0,0.0,0.0,0.0,0.0,0.0,0.0,0.0,0.0,0.0,-4.1071,-4.0923,-4.2061,-4.4297,-4.2944,-4.3568,-4.6397,-4.6558,-4.7053,0.0,0.0,0.0,0.0,0.0,0.0,0.0,0.0,0.0,0.0,0.0,0.0,0.0,0.0,0.0,0.0,0.0,0.0,0.0,0.0,0.0,0.0,0.0,0.0,0.0,0.0,0.0,0.0,0.0,0.0,0.0,0.0,0.0,0.0,0.0,0.0,0.0,0.0,0.0,0.0,0.0,-4.8309,-4.9389,-4.954,-4.9715,0.0,0.0,-5.0494,-5.1021,-5.0695,-5.0167,-4.964,0.0,0.0,0.0,0.0,0.0,0.0,0.0,0.0,0.0,0.0,0.0,0.0,0.0,0.0,0.0,0.0,0.0,0.0,0.0,0.0,0.0,0.0,0.0,0.0,0.0,0.0,0.0,0.0,0.0,0.0,0.0,0.0,0.0,0.0,0.0,0.0,0.0,0.0,0.0,0.0,0.0,0.0,0.0,0.0,0.0,0.0,0.0,0.0,0.0,0.0,0.0,0.0,0.0,-3.9953,-4.0415,-4.085,-4.2057,-4.3936,-4.3276,-4.365,-4.5315,-4.5713,-4.625,0.0,0.0,0.0,0.0,0.0,0.0,0.0,0.0,0.0,0.0,0.0,0.0,0.0,0.0,0.0,0.0,0.0,0.0,0.0,0.0,0.0,0.0,0.0,0.0,0.0,0.0,0.0,0.0,-4.1539,-4.1334,-4.1562,0.0,0.0,0.0,0.0,0.0,0.0,0.0,0.0,0.0,0.0,-4.9213,-4.9992,-5.0393,0.0,0.0,-5.1448,-5.1649,-5.2201,-5.1825,-5.1373,-5.1172,-5.0845,0.0,0.0,0.0,0.0,0.0,0.0,0.0,0.0,0.0,0.0,0.0,0.0,0.0,0.0,0.0,0.0,0.0,0.0,0.0,0.0,0.0,0.0,0.0,0.0,0.0,0.0,0.0,0.0,0.0,0.0,0.0,0.0,0.0,0.0,0.0,0.0,0.0,0.0,0.0,0.0,0.0,0.0,0.0,0.0,0.0,0.0,0.0,0.0,0.0,0.0,0.0,0.0,-3.9596,-4.0311,-4.0847,-4.197,-4.3683,-4.3499,-4.3743,-4.4559,-4.5268,-4.5891,0.0,0.0,0.0,0.0,0.0,0.0,0.0,0.0,0.0,0.0,0.0,0.0,0.0,0.0,0.0,0.0,0.0,0.0,0.0,0.0,0.0,0.0,0.0,0.0,0.0,0.0,0.0,0.0,-4.2261,-4.225,-4.264,0.0,0.0,0.0,0.0,0.0,0.0,0.0,0.0,0.0,0.0,-4.9841,-5.0569,-5.1172,-5.1674,-5.2051,-5.2226,-5.2477,-5.2854,-5.2603,-5.2302,-5.2126,0.0,0.0,0.0,0.0,0.0,0.0,0.0,0.0,0.0,0.0,0.0,0.0,0.0,0.0,0.0,0.0,0.0,0.0,0.0,0.0,0.0,0.0,0.0,0.0,0.0,0.0,0.0,0.0,0.0,0.0,-3.5833,0.0,0.0,0.0,0.0,0.0,0.0,0.0,0.0,0.0,0.0,0.0,0.0,0.0,0.0,0.0,0.0,0.0,0.0,0.0,0.0,0.0,0.0,-3.9753,-4.0868,-4.0683,-4.1465,-4.333,-4.3147,-4.3393,-4.4287,-4.5132,-4.5872,-4.6425,0.0,0.0,0.0,0.0,0.0,0.0,0.0,0.0,0.0,0.0,0.0,0.0,0.0,0.0,0.0,0.0,0.0,0.0,0.0,0.0,0.0,0.0,0.0,0.0,0.0,0.0,-4.2158,-4.2692,-4.3218,0.0,0.0,0.0,0.0,0.0,0.0,0.0,0.0,0.0,0.0,-4.959,-5.0017,-5.1122,-5.1749,-5.2151,-5.2176,-5.2628,-5.2955,-5.3005,-5.298,-5.2729,0.0,0.0,0.0,0.0,0.0,0.0,0.0,0.0,0.0,0.0,0.0,0.0,0.0,0.0,0.0,0.0,0.0,0.0,0.0,0.0,0.0,0.0,0.0,0.0,0.0,0.0,0.0,-3.7263,-3.7035,0.0,0.0,0.0,0.0,0.0,0.0,0.0,0.0,0.0,0.0,0.0,-3.7366,-3.7753,0.0,0.0,0.0,0.0,0.0,0.0,0.0,0.0,0.0,0.0,0.0,0.0,-4.0082,-4.0606,-4.0877,-4.1789,-4.333,-4.2983,-4.3256,-4.4258,-4.4549,-4.4895,-4.5297,0.0,0.0,0.0,0.0,0.0,0.0,0.0,0.0,0.0,0.0,0.0,0.0,0.0,0.0,0.0,0.0,0.0,0.0,0.0,0.0,0.0,0.0,0.0,0.0,0.0,-4.2747,0.0,0.0,0.0,0.0,0.0,0.0,0.0,0.0,0.0,0.0,0.0,-4.9314,-5.0042,-5.0795,-5.1523,-5.2277,-5.3155,-5.3884,0.0,0.0,0.0,0.0,0.0,0.0,0.0,0.0,0.0,0.0,0.0,0.0,0.0,0.0,-5.2377,-5.0745,-5.0745,-5.1096,-5.1473,0.0,0.0,0.0,0.0,0.0,0.0,0.0,0.0,0.0,0.0,0.0,0.0,0.0,0.0,0.0,0.0,-3.669,0.0,0.0,0.0,0.0,0.0,0.0,0.0,0.0,-3.7676,-3.7865,-3.7723,-3.8034,-3.8418,0.0,-3.8393,-3.8019,0.0,0.0,0.0,0.0,0.0,0.0,0.0,0.0,-4.0507,-4.1053,-4.143,-4.2167,-4.3164,-4.2996,-4.3216,-4.3958,-4.448,-4.4804,-4.4872,-4.5262,-4.5343,0.0,0.0,0.0,0.0,0.0,0.0,0.0,0.0,0.0,0.0,0.0,0.0,0.0,0.0,0.0,0.0,0.0,0.0,0.0,0.0,0.0,0.0,0.0,-4.4503,0.0,0.0,0.0,0.0,0.0,0.0,0.0,0.0,0.0,-4.8786,-4.9414,-5.0243,-5.1172,-5.1925,-5.2729,-5.3658,0.0,0.0,0.0,0.0,0.0,0.0,0.0,-5.6369,-5.5993,-5.5491,-5.4938,-5.4386,-5.4612,-5.4988,-5.5365,0.0,0.0,-5.308,-5.3005,-5.3356,-5.3708,-5.4084,-5.4561,-5.529,-5.5742,-5.6168,0.0,0.0,0.0,0.0,0.0,0.0,0.0,0.0,-3.5872,-3.6231,0.0,-3.6616,0.0,0.0,0.0,0.0,0.0,-3.7185,0.0,0.0,-3.8495,-3.8802,-3.8802,-3.8802,-3.8828,-3.8828,-3.8777,-3.8777,-3.8802,-3.8239,0.0,0.0,0.0,0.0,0.0,0.0,-4.1078,-4.2137,-4.2213,-4.2514,-4.3017,-4.3215,-4.3406,-4.3513,-4.4812,-4.5428,-4.5219,-4.6202,-4.642,-4.566,-4.6107,0.0,0.0,0.0,0.0,0.0,0.0,0.0,0.0,0.0,0.0,0.0,0.0,0.0,0.0,0.0,0.0,0.0,0.0,0.0,0.0,-4.5955,0.0,0.0,0.0,0.0,0.0,0.0,0.0,0.0,0.0,0.0,-4.9038,-4.9866,-5.1096,-5.2703,0.0,0.0,0.0,0.0,-5.5641,-5.6194,-5.6319,-5.6369,-5.6369,-5.6821,-5.6821,-5.5792,0.0,0.0,-5.5566,-5.6344,-5.7022,-5.7072,-5.7499,-5.7424,-5.5817,-5.5465,-5.544,-5.5491,-5.6269,-5.7022,-5.7198,-5.7926,-5.878,-3.8636,0.0,0.0,0.0,0.0,-3.7983,-3.827,-3.8939,-3.8191,-3.7887,-3.7998,-3.7629,0.0,0.0,0.0,0.0,0.0,0.0,-3.827,-3.8278,-3.8456,-3.8637,-3.8893,-3.8893,-3.9095,-3.9398,-3.907,-3.9095,-3.9398,-3.8868,-3.9068,-4.003,0.0,0.0,0.0,0.0,-4.1911,-4.2213,-4.259,-4.2811,-4.2986,-4.3098,-4.3442,-4.4015,-4.4628,-4.4899,-4.4857,-4.5166,-4.5428,-4.5593,-4.5141,0.0,0.0,0.0,0.0,0.0,0.0,0.0,0.0,0.0,0.0,0.0,0.0,0.0,0.0,0.0,0.0,0.0,0.0,0.0,-4.5555,-4.6339,-4.6788,0.0,0.0,0.0,0.0,0.0,0.0,0.0,0.0,0.0,-5.1172,-5.1749,-5.2377,0.0,0.0,-5.4536,-5.5792,-5.6319,-5.6771,-5.7323,-5.8403,0.0,-5.8629,-5.9006,-5.9282,-5.8956,-5.8403,-5.7826,-5.7273,-5.7449,-5.7775,-5.8152,-5.8378,-5.8428,-5.8353,-5.7675,-5.7223,-5.7248,-5.775,-5.8478,-5.9232,-5.9659,-6.001,-3.9877,-3.9931,-3.9245,-3.8966,-3.894,-3.861,-3.8815,-3.9247,-3.8713,-3.8409,-3.8187,-3.754,-3.7069,-3.6818,-3.7142,0.0,0.0,0.0,-3.8241,-3.7236,-3.7887,-3.7933,-3.757,-3.757,-3.7849,-3.8358,-3.7839,-3.7987,-3.8652,-3.8591,-3.8968,-3.9819,0.0,0.0,-4.119,-4.1663,-4.1932,-4.2213,-4.274,-4.2986,-4.2986,-4.2986,-4.335,-4.4074,-4.4472,-4.4713,-4.4852,-4.526,-4.5476,-4.5258,-4.5376,-4.5489,0.0,0.0,0.0,0.0,0.0,0.0,0.0,0.0,0.0,0.0,0.0,-4.2993,0.0,0.0,0.0,0.0,-4.5381,-4.575,-4.6314,-4.6989,0.0,0.0,0.0,0.0,0.0,0.0,0.0,-5.0544,-5.185,-5.2829,-5.3055,-5.3758,-5.416,-5.3934,-5.4662,-5.5616,-5.6721,0.0,-5.7901,-5.8453,-5.9533,-6.0211,-5.9885,-6.0286,-6.0588,-6.0362,-5.9809,-5.9182,-5.8654,-5.8704,-5.8905,-5.9006,-5.9031,-5.9131,-5.9433,-5.9131,-5.8855,-5.888,-5.9106,-5.9633,-6.0487,-6.0663,-6.0839,-4.0796,-4.0272,-3.8793,-3.8165,-3.8216,-3.8165,-3.8216,-3.8266,-3.8191,-3.814,-3.8041,-3.6864,-3.6333,-3.6231,-3.6231,0.0,-3.4778,-3.7475,-3.7515,-3.5451,-3.7003,-3.6879,-3.5488,-3.5511,-3.5777,-3.6309,-3.5853,-3.609,-3.7076,-3.7662,-3.8179,-3.8671,-3.9238,-3.989,-4.0651,-4.1204,-4.1706,-4.2288,-4.2766,-4.2986,-4.2986,-4.2986,-4.3263,-4.3865,-4.4367,-4.4759,-4.5124,-4.6113,-4.6078,-4.4914,-4.6225,-4.6353,-4.4996,0.0,0.0,0.0,0.0,0.0,0.0,0.0,0.0,0.0,0.0,0.0,0.0,0.0,0.0,0.0,-4.6849,0.0,-4.7643,-4.7792,0.0,0.0,0.0,-4.9866,-5.0544,-5.1548,-5.2201,-5.2277,0.0,0.0,-5.4637,-5.5666,-5.6168,-5.5666,-5.6018,-5.6746,-5.7801,-5.8403,-5.8981,-5.9458,-6.0085,-6.0462,-6.0537,-6.0989,-6.1165,-6.0663,-6.0462,-6.0261,-5.9759,-5.991,-6.006,-5.9659,-5.9533,-5.9533,-5.9533,-5.9935,-6.0337,-6.0387,-6.0387,-6.0537,-6.109,-6.124,-6.1441,-3.9188,-3.9873,-3.9446,-3.9546,-3.9873,-3.9471,-3.9772,-4.045,-3.9647,-3.9295,-3.9219,-3.7621,-3.6445,-3.5637,-3.5637,-3.5686,-3.5841,-3.6494,-3.633,-3.5557,-3.5862,-3.5653,-3.4981,-3.535,-3.5571,-3.5689,-3.5945,-3.6147,-3.6456,-3.6928,-3.7255,-3.7385,-3.7831,-3.9362,-4.1702,-4.2308,-4.266,-4.2841,-4.2911,-4.2986,-4.2986,-4.2986,-4.3438,-4.4392,-4.4568,-4.4819,-4.5389,-4.5666,-4.5615,-4.5355,-4.5512,-4.5832,-4.6289,-4.6185,0.0,0.0,0.0,0.0,0.0,0.0,0.0,0.0,0.0,-4.517,-4.4732,0.0,-4.7136,0.0,-4.7378,-4.7831,-4.7831,-4.7894,0.0,0.0,-4.959,-5.0318,-5.2126,-5.2578,-5.3055,-5.3884,-5.4938,-5.5666,-5.5817,-5.6796,-5.7449,-5.7323,-5.7424,-5.775,-5.8428,-5.8981,-5.9508,-6.0085,-6.0939,-6.1592,-6.1617,-6.2069,-6.222,-6.1692,-6.1592,-6.1416,-6.0864,-6.0512,-6.0286,-6.0111,-5.9759,-5.9684,-6.0035,-6.0236,-6.0663,-6.1341,-6.1266,-6.114,-6.1692,-6.1818,-6.2094,-3.8267,-3.8921,-3.9465,-3.9536,-3.934,-3.9615,-4.0049,-4.0551,-3.9948,-3.9697,-3.962,-3.8108,-3.6543,-3.5093,-3.5557,-3.5337,-3.4725,-3.5695,-3.5504,-3.4274,-3.4799,-3.4553,-3.3548,-3.3812,-3.4215,-3.4648,-3.4917,-3.5276,-3.5702,-3.6417,-3.6667,-3.6465,-3.8019,-3.9507,-4.0936,-4.1509,-4.178,-4.1724,-4.2307,-4.2665,-4.261,-4.2861,-4.3514,-4.4568,-4.4618,-4.5121,-4.6175,-4.6225,-4.6225,-4.6225,-4.6305,-4.639,-4.6541,-4.6645,-4.6958,0.0,0.0,0.0,0.0,0.0,0.0,0.0,0.0,0.0,0.0,0.0,-4.7918,-4.7481,-4.7732,-4.8109,-4.8611,-4.8661,-4.9213,-5.0569,-5.0921,-5.1674,-5.3105,-5.3708,-5.4361,-5.5214,-5.6043,-5.6671,-5.6947,-5.7725,-5.8252,-5.8278,-5.8679,-5.9006,-5.9081,-5.9533,-6.006,-6.0638,-6.1441,-6.2094,-6.232,-6.2621,-6.2747,-6.2446,-6.237,-6.2195,-6.1667,-6.1291,-6.0914,-6.0437,-6.0261,-6.0236,-6.0337,-6.0763,-6.1291,-6.1768,-6.1969,-6.2044,-6.2295,-6.2571,-6.2998,-3.7578,-3.7791,-3.8816,-3.8712,-3.8003,-3.905,-3.9413,-3.9258,-3.9569,-3.9671,-3.9513,-3.8311,-3.6626,-3.4668,-3.5411,-3.4614,-3.2898,-3.4836,-3.4648,-3.2701,-3.3677,-3.3407,-3.2043,-3.205,-3.2629,-3.3538,-3.3658,-3.4134,-3.4934,-3.5924,-3.6191,-3.5823,-3.8424,-3.9528,-3.8925,-3.9762,-4.021,-4.0242,-4.1533,-4.2213,-4.2213,-4.276,-4.3589,-4.4568,-4.4694,-4.5472,-4.7029,-4.6993,-4.7043,-4.723,-4.7531,-4.7305,-4.6476,-4.6878,-4.7068,0.0,-4.7193,0.0,0.0,0.0,0.0,0.0,0.0,0.0,0.0,-4.8234,-4.8686,-4.8259,-4.8284,-4.8736,-4.9741,-4.9866,-5.0544,-5.2026,-5.2779,-5.3381,-5.3959,-5.4963,-5.5817,-5.6369,-5.6922,-5.7449,-5.7926,-5.8478,-5.883,-5.888,-5.9608,-6.006,-5.9859,-6.0211,-6.0763,-6.124,-6.1768,-6.232,-6.2672,-6.2797,-6.2822,-6.2822,-6.2797,-6.2672,-6.2195,-6.1943,-6.1567,-6.0814,-6.0788,-6.0889,-6.0563,-6.1341,-6.1943,-6.1994,-6.2395,-6.2772,-6.2948,-6.3274,-6.3701,-3.5663,-3.6534,-3.678,-3.7233,-3.7873,-3.8161,-3.7713,-3.6996,-3.8868,-3.9454,-3.8897,-3.7684,-3.6417,-3.5072,-3.3877,-3.3105,-3.2727,-3.3161,-3.2916,-3.2168,-3.2392,-3.235,-3.2008,-3.2359,-3.2903,-3.3408,-3.3843,-3.4114,-3.4282,-3.4875,-3.5128,-3.5032,-3.6448,-3.6881,-3.6282,0.0,0.0,0.0,-4.1798,-4.2213,-4.2238,-4.3137,-4.3966,-4.4593,-4.507,0.0,-4.6968,-4.6702,-4.6878,-4.7682,-4.7029,0.0,0.0,0.0,0.0,0.0,0.0,0.0,0.0,0.0,0.0,0.0,-4.8284,-4.836,-4.7832,-4.8786,-4.959,-4.9916,-5.0368,-5.072,-5.0946,-5.1373,-5.1925,-5.2703,-5.3658,-5.4637,-5.5616,-5.6319,-5.6947,-5.7499,-5.8052,-5.8428,-5.8554,-5.9031,-5.9332,-5.9357,-5.991,-6.0462,-6.0788,-6.1266,-6.1692,-6.1868,-6.2295,-6.2672,-6.2797,-6.2822,-6.2822,-6.2822,-6.2822,-6.2772,-6.2596,-6.1918,-6.1542,-6.1517,-6.104,-6.0839,-6.1492,-6.1868,-6.2044,-6.2019,-6.2446,-6.2973,-6.3425,-6.3601,-6.3952,-3.4858,0.0,-3.5694,-3.5872,0.0,-3.646,-3.571,-3.4395,-3.8384,-3.9742,-3.9025,-3.7813,-3.6658,-3.546,-3.4375,-3.3555,-3.3037,-3.283,-3.2545,-3.2339,-3.2602,-3.2706,-3.2706,-3.3182,-3.3637,-3.4051,-3.43,-3.4507,-3.4734,-3.4983,-3.5086,-3.5148,-3.632,-3.6561,-3.6018,-3.8239,-3.9886,-4.0899,-4.148,-4.1882,-4.2238,-4.3237,-4.4217,-4.502,0.0,0.0,0.0,0.0,0.0,0.0,0.0,0.0,0.0,0.0,0.0,-4.7983,-4.8711,-4.9038,-4.8786,-4.9012,-4.9038,-4.8786,-4.9264,-4.9464,-4.9163,-4.9665,-5.0243,-5.0795,-5.1122,-5.1398,-5.1674,-5.2201,-5.2729,-5.3281,-5.4536,-5.5616,-5.6168,-5.6972,-5.7675,-5.8202,-5.8529,-5.8805,-5.9056,-5.9307,-5.9483,-5.9533,-6.0236,-6.0839,-6.1165,-6.1667,-6.2069,-6.237,-6.2596,-6.2822,-6.2822,-6.2822,-6.2822,-6.2822,-6.2822,-6.2722,-6.2471,-6.2195,-6.1943,-6.1718,-6.1517,-6.1718,-6.1893,-6.222,-6.2395,-6.2421,-6.2621,-6.3023,-6.3576,-6.3877,-6.4304,-3.4038,-3.4041,-3.462,-3.4486,-3.3912,-3.4899,-3.4437,-3.3317,0.0,0.0,0.0,-3.7906,-3.6889,-3.5881,-3.523,-3.4359,-3.3406,-3.3016,-3.2851,-3.2871,-3.3203,-3.3472,-3.3637,-3.4069,-3.4484,-3.4859,-3.4879,-3.5066,-3.5418,-3.5603,-3.5603,-3.5541,-3.682,-3.7398,-3.7317,-3.8784,-4.0038,-4.0949,-4.1404,-4.1882,-4.2459,-4.3514,-4.4543,-4.5472,-4.6024,-4.6577,-4.7043,-4.7531,-4.8083,-4.8736,-4.8686,-4.8661,-4.8786,-4.9113,-4.9088,-4.8686,-4.9138,-4.9464,-4.9439,-4.954,-4.964,-4.9741,-5.0243,-5.0569,-5.0569,-5.067,-5.0896,-5.1373,-5.1523,-5.1749,-5.2201,-5.2854,-5.3432,-5.3959,-5.5415,-5.642,-5.6671,-5.7449,-5.8252,-5.873,-5.888,-5.9006,-5.9408,-5.9483,-5.9508,-5.9633,-6.0437,-6.1291,-6.1492,-6.1918,-6.2345,-6.2697,-6.2797,-6.2822,-6.2822,-6.2822,-6.2822,-6.2822,-6.2923,-6.2772,-6.237,-6.2521,-6.2421,-6.1768,-6.2195,-6.2395,-6.2245,-6.2395,-6.2672,-6.2672,-6.2697,-6.2847,-6.3425,-6.3952,-6.4454,-3.2197,-3.1863,-3.2322,-3.3001,-3.3825,-3.4406,-3.5491,-3.6816,-3.6712,-3.7087,-3.7893,-3.7086,-3.664,-3.6382,-3.4927,-3.3917,-3.3368,-3.3306,-3.3285,0.0,-3.3348,-3.3862,-3.4608,-3.4691,-3.49,-3.5314,-3.5335,-3.5355,-3.5541,-3.6481,-3.6481,-3.5725,-3.731,-3.8724,-3.9741,-4.0098,-4.1076,-4.261,-4.271,-4.3011,-4.3589,-4.4669,-4.5321,-4.5497,-4.6024,-4.6577,-4.7043,-4.7143,-4.7707,-4.8711,-4.8284,-4.8259,-4.8736,-4.841,-4.8109,-4.8058,-4.856,-4.8887,-4.8912,-4.9339,-4.9816,-5.0268,-5.0845,-5.1172,-5.1172,-5.1599,-5.19,-5.2,-5.2377,-5.2729,-5.2854,-5.3708,-5.4486,-5.5114,-5.6194,-5.7273,-5.8152,-5.8478,-5.878,-5.9282,-5.9382,-5.9382,-5.9458,-5.9508,-5.9508,-5.9659,-6.0487,-6.1492,-6.227,-6.2647,-6.2747,-6.2797,-6.2822,-6.2822,-6.2822,-6.2847,-6.2873,-6.2822,-6.3274,-6.3375,-6.2797,-6.2822,-6.2772,-6.2596,-6.2395,-6.232,-6.2546,-6.2345,-6.2245,-6.222,-6.2195,-6.2395,-6.2923,-6.345,-6.3952,-3.2235,-3.2147,-3.2333,-3.2699,-3.3261,-3.3728,-3.4626,-3.5736,-3.551,-3.614,-3.7361,-3.7132,-3.6583,-3.5958,-3.5631,-3.4956,-3.4173,-3.3865,-3.3741,-3.3782,-3.401,-3.4401,-3.4816,-3.5004,-3.5211,-3.5418,-3.6135,-3.642,-3.6542,-3.773,-3.767,-3.6603,-3.7714,-3.893,-4.0188,-4.1229,-4.2074,-4.2897,-4.328,-4.3689,-4.4242,-4.507,-4.5623,-4.5924,-4.6451,-4.6728,-4.6677,-4.6918,-4.7481,-4.8284,-4.8058,-4.8309,-4.9138,-4.8962,-4.8812,-4.8837,-4.9063,-4.9213,-4.9213,-4.9741,-5.0419,-5.1272,-5.1574,-5.185,-5.2151,-5.2126,-5.2226,-5.2528,-5.2804,-5.3055,-5.3331,-5.4084,-5.4888,-5.5767,-5.6846,-5.7826,-5.8579,-5.9006,-5.9232,-5.9458,-5.9508,-5.9508,-5.9508,-5.9508,-5.9508,-5.9583,-6.0462,-6.1567,-6.2672,-6.2847,-6.2847,-6.2822,-6.2822,-6.2822,-6.2847,-6.3099,-6.3274,-6.3299,-6.3751,-6.3852,-6.3425,-6.3299,-6.3174,-6.2898,-6.2596,-6.2421,-6.2471,-6.2446,-6.232,-6.2069,-6.2295,-6.2546,-6.2822,-6.3048,-6.34,-3.2525,-3.2525,-3.2628,-3.2851,-3.3058,-3.3492,-3.3966,-3.4318,-3.5056,-3.61,-3.7144,-3.7006,-3.6298,-3.55,-3.6058,-3.5784,-3.4835,-3.4443,-3.4396,-3.4655,-3.4771,-3.4979,-3.5326,-3.5682,-3.5828,-3.5951,-3.7127,-3.773,-3.7887,-3.9039,-3.9203,-3.847,-3.8918,-3.984,-4.0945,-4.2604,-4.349,-4.3682,-4.4161,-4.4568,-4.4995,-4.5447,-4.5874,-4.6301,-4.6702,-4.6753,-4.6376,-4.6954,-4.7506,-4.7883,-4.8159,-4.8686,-4.9515,-4.959,-4.959,-4.959,-4.959,-4.964,-4.9816,-5.0419,-5.1172,-5.2026,-5.2226,-5.2477,-5.2829,-5.2553,-5.2452,-5.2854,-5.303,-5.3281,-5.3683,-5.4361,-5.5139,-5.6143,-5.7097,-5.7926,-5.8629,-5.9081,-5.9382,-5.9458,-5.9508,-5.9508,-5.9508,-5.9508,-5.9608,-6.001,-6.0663,-6.1617,-6.2722,-6.3023,-6.3048,-6.3149,-6.3099,-6.3048,-6.3048,-6.35,-6.3827,-6.3877,-6.4304,-6.4329,-6.4028,-6.3852,-6.3651,-6.3174,-6.2772,-6.2546,-6.227,-6.2245,-6.2345,-6.2195,-6.2421,-6.2621,-6.2797,-6.2847,-6.2948,-3.207,-3.2112,-3.2602,-3.3203,-3.4028,-3.4484,-3.4752,-3.5037,-3.6385,-3.7122,-3.7309,-3.6135,-3.5603,-3.5418,-3.554,-3.5312,-3.4918,-3.4774,-3.5336,-3.6151,-3.5257,-3.561,-3.692,-3.7106,-3.7127,-3.733,-3.8447,-3.9039,-3.9098,-4.0292,-4.1109,-4.1529,-4.2054,-4.2616,-4.3349,-4.4576,-4.5445,-4.5945,-4.604,-4.61,-4.615,-4.62,-4.625,-4.6301,-4.6351,-4.6376,-4.6351,-4.7305,-4.7857,-4.7983,-4.8862,-4.9464,-4.959,-4.959,-4.959,-4.959,-4.9615,-4.9816,-5.0343,-5.1348,-5.1975,-5.2126,-5.2553,-5.2854,-5.2929,-5.2879,-5.2854,-5.3005,-5.3356,-5.3632,-5.3758,-5.4662,-5.5541,-5.6194,-5.6796,-5.7524,-5.8478,-5.8755,-5.8981,-5.9458,-5.9508,-5.9508,-5.9508,-5.9508,-5.991,-6.0839,-6.1115,-6.1843,-6.3274,-6.3601,-6.3751,-6.4053,-6.3927,-6.3651,-6.3676,-6.4053,-6.4354,-6.4429,-6.4856,-6.4906,-6.4605,-6.4354,-6.4228,-6.3651,-6.2772,-6.237,-6.2395,-6.2119,-6.1818,-6.2345,-6.2395,-6.2295,-6.2672,-6.2873,-6.2973,-3.2996,-3.3285,-3.3741,-3.4756,-3.5905,-3.6178,-3.6686,-3.7487,-3.8119,-3.8447,-3.8387,-3.785,-3.7188,-3.652,-3.6542,-3.6435,-3.6264,-3.6264,-3.6544,-3.7025,-3.7264,-3.7588,-3.7802,-3.8261,-3.8582,-3.895,-3.9884,-4.0326,-4.0455,-4.1181,-4.2423,-4.3816,-4.3731,-4.4097,-4.5179,-4.5914,-4.6279,-4.6301,-4.6326,-4.6326,-4.6326,-4.6326,-4.6326,-4.6326,-4.6326,-4.6476,-4.6803,-4.7255,-4.7757,-4.836,-4.8887,-4.9264,-4.959,-4.959,-4.959,-4.9615,-4.9891,-5.0318,-5.0896,-5.1674,-5.2251,-5.2553,-5.2804,-5.2861,-5.2886,-5.3206,-5.3381,-5.3406,-5.3582,-5.3934,-5.4587,-5.5114,-5.5717,-5.652,-5.6922,-5.7474,-5.8554,-5.8704,-5.8905,-5.9408,-5.9508,-5.9508,-5.9508,-5.9508,-6.0136,-6.1291,-6.1667,-6.232,-6.3827,-6.4153,-6.4228,-6.4429,-6.453,-6.4479,-6.4279,-6.4605,-6.4881,-6.5057,-6.5409,-6.5559,-6.5057,-6.463,-6.4379,-6.4153,-6.3256,-6.2653,-6.2772,-6.2571,-6.2295,-6.2546,-6.2621,-6.2653,-6.3123,-6.3262,-6.3299,-3.3903,-3.4339,-3.5158,-3.6182,-3.7287,-3.767,-3.8328,-3.9216,-3.9569,-3.9686,-3.9744,-3.9686,-3.9193,-3.8365,-3.8007,-3.785,-3.785,-3.7828,-3.8096,-3.8545,-3.9186,-3.94,-3.9507,-3.9794,-4.014,-4.055,-4.1283,-4.1688,-4.1907,-4.2564,-4.3767,-4.5219,-4.4977,-4.525,-4.619,-4.6566,-4.6566,-4.6301,-4.6326,-4.6301,-4.6446,-4.6421,-4.6421,-4.6301,-4.6326,-4.6577,-4.7043,-4.7218,-4.7782,-4.8711,-4.8912,-4.9163,-4.9565,-4.959,-4.9665,-4.9841,-5.0343,-5.0896,-5.1473,-5.2026,-5.2503,-5.2879,-5.2861,-5.2861,-5.3005,-5.3406,-5.3758,-5.3934,-5.4084,-5.4587,-5.5189,-5.5516,-5.5993,-5.6721,-5.6796,-5.7223,-5.8077,-5.8378,-5.8679,-5.9182,-5.9382,-5.9583,-5.9709,-5.9935,-6.0613,-6.1893,-6.2245,-6.2822,-6.4254,-6.4705,-6.4731,-6.4881,-6.5283,-6.5258,-6.4856,-6.5157,-6.5434,-6.5584,-6.5886,-6.586,-6.5434,-6.5016,-6.4806,-6.4688,-6.3805,-6.3407,-6.3539,-6.3356,-6.2997,-6.282,-6.2916,-6.3294,-6.3696,-6.3773,-6.391,-3.438,-3.4998,-3.6488,-3.7205,-3.7407,-3.8625,-3.9157,-3.9569,-4.05,-4.1043,-4.1043,-4.1043,-4.0985,-4.0789,-3.9767,-3.9157,-3.9121,-3.9203,-3.9988,-4.127,-4.0585,-4.0948,-4.2496,-4.2051,-4.1811,-4.1918,-4.2569,-4.3112,-4.3669,-4.4728,-4.5363,-4.5522,-4.5914,-4.619,-4.6361,-4.6421,-4.6301,-4.6361,-4.6361,-4.6481,-4.6721,-4.6806,-4.6601,-4.6386,-4.6301,-4.6577,-4.7129,-4.7606,-4.8159,-4.8761,-4.9264,-4.9565,-4.959,-4.959,-4.9816,-5.0318,-5.0896,-5.1448,-5.2,-5.2528,-5.2879,-5.2929,-5.2861,-5.2861,-5.2955,-5.3457,-5.3959,-5.4461,-5.4938,-5.534,-5.5465,-5.5842,-5.6118,-5.6269,-5.6294,-5.657,-5.7097,-5.775,-5.8177,-5.8755,-5.9332,-5.9809,-6.0261,-6.0763,-6.1466,-6.237,-6.2772,-6.3375,-6.4731,-6.5208,-6.5434,-6.576,-6.5936,-6.5886,-6.5434,-6.5584,-6.5911,-6.6072,-6.6107,-6.6021,-6.5729,-6.5546,-6.5462,-6.5282,-6.4607,-6.4363,-6.4551,-6.4372,-6.3907,-6.3746,-6.393,-6.4234,-6.4449,-6.441,-6.4438,-3.53,-3.6428,-3.704,-3.8186,-3.9744,-4.021,-4.087,-4.1672,-4.2093,-4.2344,-4.2344,-4.2319,-4.2344,-4.2287,-4.2234,-4.1721,-4.094,-4.0963,-4.1483,-4.2493,-4.2753,-4.3103,-4.3241,-4.3492,-4.3622,-4.3689,-4.3886,-4.4317,-4.4903,-4.5473,-4.5969,-4.6391,-4.6891,-4.7112,-4.6934,-4.7112,-4.7112,-4.6874,-4.6874,-4.6934,-4.7053,-4.7053,-4.6934,-4.6626,-4.6626,-4.691,-4.7606,-4.7807,-4.8335,-4.9264,-4.949,-4.959,-4.959,-4.959,-4.9841,-5.0393,-5.0971,-5.1523,-5.2076,-5.2603,-5.2861,-5.2861,-5.2861,-5.2861,-5.308,-5.3708,-5.4361,-5.4662,-5.5415,-5.5867,-5.5942,-5.6118,-5.6219,-5.6219,-5.6219,-5.642,-5.6972,-5.7549,-5.8227,-5.9106,-5.996,-6.0663,-6.0814,-6.1065,-6.1617,-6.2621,-6.3149,-6.3927,-6.4957,-6.5559,-6.5886,-6.6122,-6.6369,-6.6379,-6.5886,-6.5936,-6.6197,-6.6429,-6.655,-6.6518,-6.6357,-6.639,-6.6329,-6.6182,-6.5585,-6.5231,-6.5308,-6.5102,-6.4772,-6.5213,-6.5375,-6.5123,-6.5256,-6.5133,-6.505,-3.6243,-3.7347,-3.8186,-3.9487,-4.11,-4.1558,-4.2231,-4.2986,-4.2986,-4.2986,-4.3011,-4.3162,-4.3263,-4.3338,-4.3815,-4.3821,-4.3198,-4.3017,-4.3272,-4.3846,-4.4636,-4.4935,-4.4808,-4.4969,-4.5011,-4.5011,-4.5011,-4.5238,-4.5649,-4.6095,-4.6459,-4.678,-4.729,-4.7442,-4.7265,-4.7442,-4.7383,-4.7265,-4.7205,-4.7205,-4.7324,-4.7383,-4.729,-4.7163,-4.7257,-4.7526,-4.7945,-4.8083,-4.8611,-4.9439,-4.959,-4.959,-4.9615,-4.9766,-5.0117,-5.067,-5.1222,-5.18,-5.2302,-5.2729,-5.2861,-5.2861,-5.2861,-5.2911,-5.3206,-5.4034,-5.4561,-5.4963,-5.5616,-5.6219,-5.6219,-5.6219,-5.6219,-5.6219,-5.6219,-5.6445,-5.6972,-5.7549,-5.8453,-5.9608,-6.0738,-6.1341,-6.1466,-6.1617,-6.2169,-6.2998,-6.3601,-6.4304,-6.5132,-6.5735,-6.6197,-6.6283,-6.654,-6.6711,-6.6635,-6.6661,-6.654,-6.6711,-6.7256,-6.712,-6.7067,-6.7099,-6.7139,-6.6907,-6.663,-6.63,-6.5991,-6.5784,-6.6077,-6.6551,-6.646,-6.615,-6.6106,-6.5942,-6.5723,-3.7287,-3.7828,-4.0036,-4.0985,-4.1386,-4.2375,-4.2986,-4.2986,-4.3042,-4.3067,-4.3137,-4.3539,-4.3796,-4.3915,-4.4425,-4.5011,-4.538,-4.516,-4.5262,-4.5716,-4.5859,-4.6289,-4.6841,-4.6205,-4.5918,-4.5918,-4.5918,-4.5918,-4.6019,-4.6721,-4.7061,-4.69,-4.7172,-4.7383,-4.7265,-4.7324,-4.7265,-4.7324,-4.7324,-4.7442,-4.7645,-4.7703,-4.7729,-4.7748,-4.8239,-4.8384,-4.8057,-4.8523,-4.9089,-4.9554,-4.9654,-4.959,-4.9665,-5.0067,-5.0645,-5.1172,-5.1749,-5.2327,-5.2735,-5.2904,-5.2861,-5.2861,-5.2861,-5.313,-5.3607,-5.4185,-5.4762,-5.5265,-5.5817,-5.6219,-5.6219,-5.6219,-5.6219,-5.6219,-5.6269,-5.6545,-5.6997,-5.76,-5.8554,-6.0085,-6.1316,-6.1943,-6.2119,-6.2345,-6.2847,-6.335,-6.3927,-6.4454,-6.5057,-6.5695,-6.6268,-6.6626,-6.6967,-6.7163,-6.7307,-6.7477,-6.7248,-6.7129,-6.775,-6.8005,-6.7763,-6.7777,-6.7815,-6.7582,-6.7281,-6.6974,-6.6792,-6.6636,-6.6926,-6.7268,-6.7147,-6.6965,-6.6701,-6.6484,-6.6262,-3.8305,-3.9919,-4.0731,-4.1615,-4.24,-4.2849,-4.2986,-4.3042,-4.3184,-4.3355,-4.357,-4.3941,-4.4358,-4.4731,-4.5236,-4.5766,-4.6236,-4.6623,-4.6854,-4.6806,-4.6772,-4.6908,-4.7069,-4.6908,-4.6772,-4.6696,-4.6389,-4.644,-4.6806,-4.7306,-4.7501,-4.7468,-4.7703,-4.788,-4.788,-4.788,-4.788,-4.788,-4.788,-4.7938,-4.8055,-4.8055,-4.812,-4.8384,-4.8868,-4.9106,-4.9212,-4.9416,-4.9773,-5.0245,-5.004,-4.9873,-4.9845,-5.0312,-5.0867,-5.1314,-5.18,-5.2352,-5.2829,-5.2929,-5.2929,-5.2929,-5.2929,-5.3181,-5.3658,-5.426,-5.4813,-5.5365,-5.5892,-5.6219,-5.6219,-5.6219,-5.6219,-5.6219,-5.6545,-5.6821,-5.7298,-5.8554,-5.9834,-6.0814,-6.1893,-6.2496,-6.2571,-6.2797,-6.2898,-6.3124,-6.3626,-6.4153,-6.4739,-6.5487,-6.6221,-6.6695,-6.7171,-6.7587,-6.7756,-6.8028,-6.8157,-6.8013,-6.8304,-6.8654,-6.8572,-6.8241,-6.8305,-6.8128,-6.7824,-6.7697,-6.7514,-6.7566,-6.7775,-6.798,-6.7961,-6.7673,-6.7305,-6.7069,-6.6831,-3.9604,-4.11,-4.1615,-4.2263,-4.2986,-4.2986,-4.3112,-4.3319,-4.3512,-4.3759,-4.4123,-4.4687,-4.5081,-4.5461,-4.6086,-4.6576,-4.692,-4.7489,-4.7645,-4.756,-4.7442,-4.7442,-4.7501,-4.7442,-4.7501,-4.7449,-4.7107,-4.7048,-4.7383,-4.7703,-4.7821,-4.7762,-4.8055,-4.8172,-4.8172,-4.8172,-4.8172,-4.8172,-4.8172,-4.8172,-4.8224,-4.8407,-4.8636,-4.8875,-4.9516,-4.9965,-5.0142,-5.0322,-5.0418,-5.041,-5.0168,-5.0141,-5.0305,-5.1031,-5.159,-5.2016,-5.2481,-5.2919,-5.3085,-5.3136,-5.3136,-5.3161,-5.3174,-5.3596,-5.4264,-5.4845,-5.516,-5.5858,-5.6065,-5.6219,-5.6219,-5.6219,-5.6294,-5.652,-5.6821,-5.7298,-5.7951,-5.9508,-6.0763,-6.1492,-6.227,-6.2722,-6.2822,-6.2822,-6.2822,-6.2898,-6.3324,-6.3892,-6.4479,-6.531,-6.612,-6.6916,-6.7543,-6.7847,-6.8093,-6.8553,-6.9065,-6.9033,-6.9001,-6.9215,-6.9195,-6.8732,-6.8503,-6.8163,-6.7828,-6.8037,-6.7906,-6.8141,-6.8377,-6.855,-6.8513,-6.8209,-6.7796,-6.7594,-6.7333,-4.11,-4.1329,-4.2513,-4.293,-4.2986,-4.3037,-4.3338,-4.3714,-4.3954,-4.4281,-4.481,-4.5505,-4.5926,-4.6188,-4.6806,-4.7306,-4.7677,-4.771,-4.788,-4.7997,-4.788,-4.788,-4.7997,-4.7821,-4.788,-4.8055,-4.7828,-4.771,-4.7762,-4.7997,-4.8055,-4.7821,-4.8055,-4.8172,-4.8172,-4.8172,-4.8172,-4.8172,-4.8224,-4.8303,-4.8329,-4.8826,-4.9191,-4.9296,-5.0211,-5.0724,-5.0881,-5.1158,-5.1005,-5.0295,-5.0295,-5.0678,-5.1369,-5.1998,-5.251,-5.2956,-5.3663,-5.3691,-5.3589,-5.3546,-5.3546,-5.3503,-5.3728,-5.4309,-5.5306,-5.5462,-5.5876,-5.6624,-5.6558,-5.6365,-5.6365,-5.6365,-5.6616,-5.7046,-5.7423,-5.8027,-5.9332,-6.0512,-6.1341,-6.1893,-6.2446,-6.2822,-6.2822,-6.2822,-6.2822,-6.2979,-6.3356,-6.3855,-6.4539,-6.5371,-6.6342,-6.7113,-6.7809,-6.8423,-6.8637,-6.8929,-6.9469,-6.973,-6.9541,-6.9495,-6.9553,-6.903,-6.8324,-6.7985,-6.8037,-6.8246,-6.835,-6.8455,-6.8612,-6.8711,-6.868,-6.8513,-6.8345,-6.8009,-6.7587,-4.1639,-4.2513,-4.2849,-4.2986,-4.3037,-4.3388,-4.3664,-4.3922,-4.4783,-4.5265,-4.5664,-4.6334,-4.6817,-4.721,-4.7424,-4.7762,-4.7997,-4.8055,-4.8114,-4.8172,-4.8114,-4.814,-4.8172,-4.8114,-4.8114,-4.8172,-4.8114,-4.8055,-4.8055,-4.8172,-4.8114,-4.8055,-4.8114,-4.8198,-4.8172,-4.8224,-4.8172,-4.825,-4.8669,-4.8826,-4.893,-4.9401,-4.9897,-5.0342,-5.0629,-5.0995,-5.1309,-5.1268,-5.1183,-5.0931,-5.112,-5.1252,-5.1614,-5.2284,-5.2916,-5.331,-5.3731,-5.3997,-5.3929,-5.3861,-5.3861,-5.3912,-5.4286,-5.4891,-5.5592,-5.5989,-5.655,-5.7082,-5.7091,-5.7019,-5.7091,-5.7069,-5.755,-5.8368,-5.8681,-5.9208,-6.0113,-6.1065,-6.1868,-6.2044,-6.2521,-6.2772,-6.2822,-6.2822,-6.2985,-6.3255,-6.3488,-6.3879,-6.4644,-6.5508,-6.6398,-6.7266,-6.7956,-6.8727,-6.926,-6.9469,-6.9814,-7.018,-6.9938,-6.9495,-6.9448,-6.9108,-6.8272,-6.754,-6.8246,-6.8586,-6.8455,-6.8429,-6.8638,-6.8764,-6.8764,-6.868,-6.8371,-6.8119,-6.7671,-4.2344,-4.2986,-4.3406,-4.3425,-4.3444,-4.42,-4.4554,-4.4807,-4.554,-4.6174,-4.6524,-4.6978,-4.7393,-4.7677,-4.7821,-4.7997,-4.8172,-4.8172,-4.8172,-4.8172,-4.8172,-4.8172,-4.8172,-4.8172,-4.8172,-4.8172,-4.8172,-4.8172,-4.8172,-4.8172,-4.8172,-4.8172,-4.8172,-4.8303,-4.859,-4.8564,-4.8695,-4.893,-4.927,-4.9427,-4.9453,-4.9976,-5.0368,-5.0812,-5.0969,-5.1309,-5.1507,-5.1408,-5.1283,-5.1335,-5.158,-5.1932,-5.2311,-5.2945,-5.3581,-5.3952,-5.4314,-5.4402,-5.4241,-5.4241,-5.4174,-5.4354,-5.4851,-5.5511,-5.607,-5.6592,-5.7072,-5.7518,-5.7451,-5.7379,-5.7482,-5.7789,-5.8481,-5.9304,-6.0151,-6.0833,-6.1188,-6.1999,-6.2527,-6.2669,-6.2865,-6.3067,-6.3067,-6.3067,-6.3311,-6.3635,-6.3742,-6.4163,-6.4717,-6.5634,-6.6473,-6.7286,-6.805,-6.8738,-6.937,-6.9657,-6.971,-7.0076,-6.984,-6.9448,-6.9213,-6.8978,-6.8481,-6.7985,-6.8507,-6.8711,-6.8638,-6.856,-6.8607,-6.8764,-6.8764,-6.8764,-6.8513,-6.8371,-6.7925,-4.3118,-4.3224,-4.4004,-4.4232,-4.4194,-4.5183,-4.57,-4.5959,-4.6378,-4.6803,-4.7195,-4.7619,-4.7769,-4.7762,-4.8055,-4.8172,-4.8172,-4.8172,-4.8172,-4.8172,-4.823,-4.8289,-4.8553,-4.8289,-4.823,-4.8172,-4.8172,-4.8172,-4.8172,-4.8172,-4.8172,-4.8224,-4.825,-4.8564,-4.893,-4.9087,-4.9427,-4.9714,-4.9897,-4.9976,-5.0106,-5.0551,-5.089,-5.0995,-5.1309,-5.1518,-5.1596,-5.1622,-5.1622,-5.1727,-5.1944,-5.2438,-5.3257,-5.3896,-5.4445,-5.4823,-5.4913,-5.4872,-5.4645,-5.4578,-5.4578,-5.4692,-5.5366,-5.6037,-5.666,-5.7203,-5.7661,-5.7927,-5.7667,-5.7718,-5.7904,-5.8675,-5.9524,-6.0397,-6.1608,-6.2533,-6.2686,-6.3096,-6.3421,-6.3534,-6.3554,-6.3554,-6.3554,-6.3554,-6.3716,-6.4119,-6.4225,-6.4621,-6.5172,-6.5958,-6.664,-6.7272,-6.798,-6.8638,-6.9213,-6.9762,-6.9736,-6.9762,-6.937,-6.903,-6.8847,-6.8638,-6.8533,-6.8533,-6.8743,-6.8764,-6.8711,-6.8711,-6.8764,-6.8764,-6.8764,-6.8764,-6.8764,-6.868,-6.8345,-4.3809,-4.406,-4.47,-4.5043,-4.5317,-4.5918,-4.625,-4.6345,-4.7107,-4.7431,-4.7677,-4.7938,-4.8055,-4.8055,-4.823,-4.8172,-4.8289,-4.8347,-4.8172,-4.8172,-4.8172,-4.8784,-4.916,-4.8784,-4.8289,-4.8289,-4.823,-4.823,-4.823,-4.8405,-4.823,-4.8341,-4.8793,-4.8956,-4.9113,-4.9557,-4.974,-4.9976,-5.0342,-5.0664,-5.0804,-5.1073,-5.1387,-5.1387,-5.1544,-5.1596,-5.1596,-5.1596,-5.1831,-5.2197,-5.2421,-5.2839,-5.3426,-5.3949,-5.4524,-5.4942,-5.5099,-5.5032,-5.4965,-5.4939,-5.4965,-5.5054,-5.5845,-5.6617,-5.6833,-5.7729,-5.816,-5.8355,-5.831,-5.8323,-5.8863,-5.9929,-6.0788,-6.1545,-6.2844,-6.3935,-6.4039,-6.3979,-6.394,-6.3988,-6.3984,-6.3958,-6.3958,-6.3958,-6.42,-6.4547,-6.481,-6.5074,-6.5623,-6.6253,-6.6936,-6.7514,-6.7958,-6.8638,-6.9422,-6.9788,-6.9631,-6.9501,-6.9108,-6.8764,-6.8664,-6.8507,-6.8455,-6.8586,-6.8795,-6.8764,-6.8764,-6.8764,-6.8764,-6.8764,-6.8764,-6.8764,-6.8764,-6.8764,-6.8597,-4.4763,-4.5011,-4.5636,-4.595,-4.611,-4.6856,-4.7147,-4.714,-4.7665,-4.7938,-4.7938,-4.8114,-4.8172,-4.823,-4.8726,-4.8988,-4.916,-4.9616,-4.9872,-4.9872,-4.9872,-5.021,-5.0518,-5.0154,-4.9616,-4.916,-4.8988,-4.8988,-4.9103,-4.9445,-4.9673,-4.9098,-4.9626,-4.9699,-4.9565,-5.0088,-5.0446,-5.0734,-5.0969,-5.1425,-5.2005,-5.1724,-5.1596,-5.1596,-5.1596,-5.1596,-5.1596,-5.191,-5.2171,-5.2537,-5.2981,-5.34,-5.3792,-5.4288,-5.4759,-5.4994,-5.5099,-5.5099,-5.5099,-5.5099,-5.5229,-5.5465,-5.6327,-5.6824,-5.7268,-5.8052,-5.8444,-5.8523,-5.8549,-5.8732,-5.9333,-6.0431,-6.1372,-6.2417,-6.3646,-6.4587,-6.4822,-6.4818,-6.4601,-6.4521,-6.4466,-6.4441,-6.4441,-6.4441,-6.4627,-6.4972,-6.5548,-6.5758,-6.5914,-6.6571,-6.7171,-6.7723,-6.8089,-6.869,-6.9579,-6.9814,-6.9527,-6.9318,-6.9004,-6.879,-6.8685,-6.8612,-6.8481,-6.8638,-6.8795,-6.8764,-6.8764,-6.8764,-6.8764,-6.8764,-6.8764,-6.8764,-6.8764,-6.8764,-6.8429,-4.5751,-4.5859,-4.6688,-4.6863,-4.685,-4.773,-4.7971,-4.7795,-4.8055,-4.8172,-4.8172,-4.8172,-4.8347,-4.8669,-4.9418,-4.9901,-5.0406,-5.0962,-5.1292,-5.1292,-5.1292,-5.1565,-5.1729,-5.1511,-5.1127,-5.0406,-5.0238,-5.0182,-5.0462,-5.1044,-5.0962,-5.0541,-5.0974,-5.1254,-5.0904,-5.1247,-5.1941,-5.241,-5.2463,-5.2822,-5.3489,-5.2903,-5.2562,-5.2562,-5.2562,-5.2642,-5.274,-5.2925,-5.3044,-5.3345,-5.4115,-5.4589,-5.4944,-5.4825,-5.5099,-5.5099,-5.5099,-5.5099,-5.5099,-5.5125,-5.5334,-5.5883,-5.6458,-5.7059,-5.7608,-5.8104,-5.8444,-5.8523,-5.8575,-5.881,-5.9464,-6.064,-6.1764,-6.2835,-6.3985,-6.4796,-6.524,-6.5397,-6.5159,-6.5,-6.484,-6.484,-6.484,-6.484,-6.5131,-6.55,-6.6024,-6.6416,-6.6599,-6.6887,-6.754,-6.8011,-6.8377,-6.8533,-6.9318,-6.9814,-6.9501,-6.9161,-6.8873,-6.879,-6.8764,-6.8659,-6.8638,-6.8664,-6.8769,-6.8685,-6.8711,-6.8764,-6.8764,-6.8764,-6.8764,-6.8764,-6.8764,-6.8764,-6.8345,-4.6431,-4.6746,-4.7315,-4.7691,-4.7867,-4.8146,-4.8172,-4.8114,-4.8172,-4.8198,-4.823,-4.823,-4.8842,-4.9532,-4.9759,-5.0462,-5.1456,-5.2,-5.2,-5.1946,-5.2,-5.2352,-5.2939,-5.2512,-5.2216,-5.243,-5.2056,-5.1649,-5.1457,-5.1593,-5.2204,-5.2295,-5.2771,-5.3101,-5.3483,-5.4238,-5.4217,-5.4236,-5.4323,-5.4619,-5.4856,-5.4797,-5.4442,-5.4469,-5.4378,-5.4745,-5.4984,-5.4624,-5.5053,-5.6858,-5.6349,-5.6795,-5.725,-5.626,-5.5472,-5.5272,-5.5272,-5.5339,-5.5165,-5.5151,-5.5386,-5.5883,-5.6536,-5.7085,-5.766,-5.8157,-5.847,-5.8523,-5.8627,-5.8941,-5.9986,-6.111,-6.226,-6.341,-6.443,-6.5188,-6.5345,-6.5397,-6.5397,-6.5238,-6.5238,-6.5238,-6.5264,-6.5289,-6.5551,-6.5892,-6.6416,-6.6965,-6.7357,-6.7619,-6.8037,-6.8429,-6.8743,-6.8795,-6.8978,-6.9396,-6.9474,-6.9108,-6.8764,-6.8764,-6.8764,-6.8738,-6.8795,-6.8769,-6.8664,-6.856,-6.8638,-6.8711,-6.8764,-6.8764,-6.8764,-6.8764,-6.8764,-6.8764,-6.8597,-4.7406,-4.7606,-4.7834,-4.8055,-4.8172,-4.8172,-4.8172,-4.8172,-4.8172,-4.8553,-4.893,-4.9103,-4.9702,-5.074,-5.1511,-5.2377,-5.3203,-5.3495,-5.3495,-5.3495,-5.3547,-5.3704,-5.4304,-5.3652,-5.386,-5.4185,-5.4048,-5.3588,-5.3267,-5.383,-5.3934,-5.4159,-5.4678,-5.4855,-5.4684,-5.4988,-5.5414,-5.5442,-5.55,-5.579,-5.6308,-5.6337,-5.6165,-5.5643,-5.5779,-5.6089,-5.6279,-5.6647,-5.691,-5.7808,-5.7889,-5.8258,-5.8453,-5.806,-5.6861,-5.6367,-5.617,-5.5776,-5.5377,-5.5334,-5.5778,-5.6353,-5.6902,-5.7477,-5.7974,-5.8366,-5.8523,-5.8575,-5.8889,-5.9281,-6.0143,-6.1529,-6.2705,-6.362,-6.4691,-6.5266,-6.5397,-6.5397,-6.5397,-6.5397,-6.5397,-6.5344,-6.5475,-6.5579,-6.5946,-6.6338,-6.6808,-6.7383,-6.7985,-6.8246,-6.8481,-6.8612,-6.8764,-6.8764,-6.8764,-6.9082,-6.9239,-6.8926,-6.8738,-6.8738,-6.8659,-6.8664,-6.8743,-6.8795,-6.8638,-6.8507,-6.8612,-6.8764,-6.8764,-6.8764,-6.8764,-6.8764,-6.8764,-6.868,-6.8513,-4.8172,-4.8172,-4.8172,-4.8172,-4.8172,-4.8172,-4.8347,-4.8521,-4.8553,-4.9274,-5.021,-5.0294,-5.0906,-5.2108,-5.3203,-5.4252,-5.5179,-5.5078,-5.5027,-5.4976,-5.4976,-5.5128,-5.5209,-5.5359,-5.5347,-5.5313,-5.5841,-5.5812,-5.506,-5.5604,-5.5995,-5.6153,-5.6443,-5.6348,-5.5935,-5.6336,-5.6108,-5.6165,-5.6165,-5.6736,-5.7503,-5.7873,-5.7537,-5.6651,-5.7078,-5.7508,-5.8056,-5.821,-5.881,-5.9301,-5.9493,-5.9622,-5.9867,-5.9929,-5.9251,-5.8151,-5.7706,-5.6898,-5.6408,-5.6079,-5.6648,-5.7297,-5.7502,-5.7965,-5.8314,-5.847,-5.8523,-5.8627,-5.9019,-5.9542,-6.03,-6.179,-6.2914,-6.3724,-6.4639,-6.5397,-6.5397,-6.5397,-6.5397,-6.5397,-6.5397,-6.5423,-6.5475,-6.5867,-6.6181,-6.6704,-6.7174,-6.7723,-6.8298,-6.8533,-6.8633,-6.8685,-6.8764,-6.8764,-6.8764,-6.8764,-6.8847,-6.8586,-6.8638,-6.8769,-6.8612,-6.8455,-6.8612,-6.8738,-6.8711,-6.8633,-6.8738,-6.8764,-6.8764,-6.8764,-6.8764,-6.8764,-6.8764,-6.8764,-6.868,-4.8172,-4.8172,-4.8172,-4.8172,-4.8172,-4.823,-4.8842,-4.9589,-4.9646,-5.0406,-5.1456,-5.1539,-5.2108,-5.3256,-5.4355,-5.5027,-5.5179,-5.5209,-5.5209,-5.5209,-5.5269,-5.5299,-5.5329,-5.5888,-5.6017,-5.6166,-5.6705,-5.6615,-5.6296,-5.6721,-5.7281,-5.7583,-5.7713,-5.7975,-5.7985,-5.8022,-5.8689,-5.858,-5.8555,-5.8931,-5.9547,-6.0083,-6.0209,-6.0185,-6.022,-6.04,-6.0526,-6.0355,-6.0558,-6.1909,-6.1258,-6.1524,-6.238,-6.2643,-6.188,-6.0716,-5.965,-5.8843,-5.8416,-5.8041,-5.8076,-5.8496,-5.8381,-5.8175,-5.8525,-5.8709,-5.8709,-5.8549,-5.9045,-5.9594,-6.0352,-6.179,-6.2862,-6.375,-6.456,-6.5136,-6.5318,-6.5397,-6.5397,-6.5397,-6.5397,-6.5449,-6.5501,-6.5972,-6.6469,-6.7017,-6.7566,-6.8115,-6.8507,-6.8659,-6.8764,-6.8764,-6.8764,-6.8764,-6.8764,-6.8764,-6.869,-6.8377,-6.8533,-6.8743,-6.8612,-6.8533,-6.869,-6.8764,-6.8764,-6.8764,-6.8764,-6.8764,-6.8764,-6.8764,-6.8764,-6.8764,-6.8764,-6.8764,-6.8764,-4.8172,-4.8172,-4.8172,-4.8172,-4.8289,-4.8899,-4.9418,-4.9958,-5.0629,-5.1565,-5.2484,-5.2644,-5.3308,-5.4355,-5.5027,-5.5179,-5.5209,-5.5209,-5.5209,-5.5359,-5.5538,-5.5748,-5.5927,-5.6346,-5.6675,-5.6907,-5.7274,-5.7603,-5.7423,-5.7543,-5.8022,-5.856,-5.865,-5.8746,-5.9099,-5.9099,-5.9099,-5.9164,-5.9404,-5.9787,-6.0206,-6.0715,-6.1134,-6.1164,-6.1463,-6.1822,-6.1891,-6.2136,-6.2083,-6.2991,-6.238,-6.2438,-6.2963,-6.3079,-6.2701,-6.2351,-6.2114,-6.1206,-5.9899,-5.9679,-5.9912,-6.0456,-6.0399,-6.0512,-6.0,-5.9638,-5.9175,-5.8523,-5.9045,-5.9594,-6.0274,-6.1502,-6.2391,-6.3306,-6.4273,-6.4691,-6.5031,-6.5318,-6.5397,-6.5397,-6.5423,-6.5528,-6.5737,-6.6312,-6.6782,-6.72,-6.7802,-6.8429,-6.869,-6.8685,-6.8764,-6.8764,-6.8764,-6.8764,-6.8764,-6.8764,-6.8685,-6.856,-6.8612,-6.8743,-6.8716,-6.8716,-6.8711,-6.8764,-6.8764,-6.8764,-6.8764,-6.8764,-6.8764,-6.8764,-6.8764,-6.8764,-6.8764,-6.8764,-6.868,-4.8347,-4.8611,-4.8289,-4.8347,-4.8669,-4.9532,-5.0294,-5.0906,-5.1729,-5.2779,-5.3623,-5.386,-5.4355,-5.5027,-5.5179,-5.5209,-5.5209,-5.5209,-5.5329,-5.5568,-5.5948,-5.6278,-5.671,-5.7161,-5.7468,-5.7498,-5.8211,-5.8344,-5.8321,-5.8411,-5.862,-5.9099,-5.9009,-5.9069,-5.9099,-5.9099,-5.9099,-5.9159,-5.9727,-5.9997,-6.0236,-6.0954,-6.1283,-6.1583,-6.1912,-6.2331,-6.2421,-6.272,-6.3049,-6.3079,-6.3021,-6.3021,-6.3137,-6.3079,-6.3079,-6.2995,-6.3177,-6.3059,-6.2018,-6.1759,-6.1955,-6.23,-6.2418,-6.1958,-6.1273,-6.0961,-6.0372,-5.9245,-5.9162,-5.9666,-6.03,-6.1293,-6.2182,-6.2966,-6.375,-6.4142,-6.4534,-6.4822,-6.5188,-6.5397,-6.5475,-6.5737,-6.6076,-6.6678,-6.7122,-6.7436,-6.8011,-6.8633,-6.8764,-6.8764,-6.8764,-6.8764,-6.8738,-6.8659,-6.856,-6.8586,-6.8586,-6.8638,-6.8664,-6.8638,-6.8533,-6.8664,-6.8738,-6.8764,-6.8764,-6.8764,-6.8764,-6.8764,-6.8764,-6.8764,-6.8764,-6.8764,-6.8764,-6.8764,-6.8764,-4.8842,-4.9702,-4.8669,-4.8899,-4.9788,-4.9845,-5.1182,-5.2804,-5.3121,-5.3912,-5.4794,-5.5027,-5.5027,-5.5179,-5.5209,-5.5209,-5.5239,-5.5209,-5.57,-5.6059,-5.6278,-5.6904,-5.7488,-5.8083,-5.8452,-5.8595,-5.8994,-5.9158,-5.9087,-5.9021,-5.9033,-5.9099,-5.9153,-5.9099,-5.9099,-5.9099,-5.9099,-5.9249,-5.9757,-6.0057,-6.0416,-6.1134,-6.1852,-6.2061,-6.257,-6.2989,-6.2989,-6.3107,-6.3137,-6.3137,-6.3137,-6.3137,-6.3194,-6.3194,-6.3194,-6.3372,-6.3914,-6.401,-6.3917,-6.3684,-6.3714,-6.3561,-6.3393,-6.3235,-6.2641,-6.1369,-6.0688,-6.0468,-6.0021,-5.9876,-6.0519,-6.1189,-6.1868,-6.2652,-6.3254,-6.3698,-6.4064,-6.4351,-6.4743,-6.5214,-6.5397,-6.5423,-6.5841,-6.6338,-6.72,-6.7566,-6.8168,-6.8764,-6.8764,-6.8764,-6.8764,-6.8738,-6.8795,-6.8586,-6.8141,-6.8115,-6.822,-6.8272,-6.8324,-6.8298,-6.8246,-6.8481,-6.8764,-6.8764,-6.8764,-6.8764,-6.8764,-6.8764,-6.8764,-6.8764,-6.8764,-6.8764,-6.8764,-6.8764,-6.8764,-5.0573,-5.0962,-5.0518,-5.0601,-5.1072,-5.1783,-5.2537,-5.3466,-5.42,-5.4692,-5.5209,-5.5209,-5.5209,-5.5209,-5.5289,-5.552,-5.6002,-5.6032,-5.6555,-5.7251,-5.7756,-5.811,-5.8646,-5.9009,-5.9463,-5.9493,-5.9736,-5.9773,-5.9636,-5.9613,-5.9667,-5.9613,-5.9315,-5.9153,-5.9099,-5.9099,-5.9099,-5.9279,-5.9697,-6.0057,-6.0266,-6.0924,-6.1672,-6.2121,-6.2241,-6.272,-6.2959,-6.3107,-6.3137,-6.3137,-6.3107,-6.3222,-6.3279,-6.3337,-6.3364,-6.3659,-6.4354,-6.487,-6.5231,-6.5231,-6.5369,-6.5751,-6.5522,-6.5007,-6.4239,-6.3431,-6.2679,-6.2058,-6.0837,-6.0596,-6.1515,-6.1199,-6.1136,-6.2077,-6.2757,-6.3201,-6.3567,-6.3855,-6.4142,-6.456,-6.4613,-6.4639,-6.5214,-6.5841,-6.6808,-6.7697,-6.835,-6.8711,-6.8607,-6.8555,-6.8476,-6.8481,-6.8403,-6.8324,-6.7932,-6.788,-6.788,-6.7958,-6.8037,-6.8194,-6.8324,-6.856,-6.8764,-6.8764,-6.8764,-6.8764,-6.8764,-6.8764,-6.8764,-6.8764,-6.8764,-6.8764,-6.8764,-6.8764,-6.8764,-5.192,-5.2162,-5.2244,-5.2244,-5.2323,-5.3097,-5.3623,-5.4068,-5.4794,-5.5209,-5.5179,-5.528,-5.548,-5.557,-5.5761,-5.6224,-5.6828,-5.706,-5.7607,-5.8143,-5.865,-5.9097,-5.9483,-5.981,-6.0,-6.0092,-6.0092,-6.0092,-5.9933,-5.9986,-5.9933,-5.9827,-5.9613,-5.9452,-5.9207,-5.9153,-5.9099,-5.9249,-5.9488,-5.9787,-5.9847,-6.0446,-6.098,-6.1549,-6.1879,-6.2358,-6.2804,-6.3042,-6.3252,-6.3219,-6.3186,-6.327,-6.3414,-6.3501,-6.3585,-6.4126,-6.4762,-6.5283,-6.5466,-6.6012,-6.643,-6.6665,-6.6755,-6.626,-6.5794,-6.5198,-6.4081,-6.3496,-6.2231,-6.1589,-6.2458,-6.1728,-6.1369,-6.2242,-6.2336,-6.2679,-6.3018,-6.3306,-6.3567,-6.3855,-6.4038,-6.4482,-6.5214,-6.592,-6.6599,-6.7357,-6.7645,-6.7985,-6.7985,-6.7985,-6.8037,-6.7958,-6.7854,-6.7775,-6.7697,-6.7619,-6.7619,-6.7958,-6.8115,-6.8429,-6.8612,-6.8711,-6.8764,-6.8764,-6.8764,-6.8764,-6.8764,-6.8764,-6.8764,-6.8764,-6.8764,-6.8764,-6.8764,-6.8764,-6.8764,-5.243,-5.3361,-5.3361,-5.3361,-5.3361,-5.3413,-5.4068,-5.4896,-5.5179,-5.5259,-5.531,-5.5541,-5.5913,-5.6355,-5.6506,-5.7001,-5.7497,-5.7709,-5.8176,-5.8714,-5.907,-5.9549,-5.9988,-6.0285,-6.0377,-6.0377,-6.0377,-6.0302,-6.0092,-6.0144,-6.0092,-6.0092,-5.9986,-5.9773,-5.9476,-5.9261,-5.9099,-5.9129,-5.9243,-5.9327,-5.9477,-6.0011,-6.0451,-6.0957,-6.1533,-6.2074,-6.2517,-6.2849,-6.3116,-6.3237,-6.3075,-6.3278,-6.3815,-6.3421,-6.3507,-6.408,-6.463,-6.4937,-6.5031,-6.6222,-6.6762,-6.6941,-6.7093,-6.6969,-6.6661,-6.5919,-6.5227,-6.4944,-6.3777,-6.2883,-6.2715,-6.2361,-6.2298,-6.2297,-6.2422,-6.2234,-6.2574,-6.2731,-6.2966,-6.3175,-6.3959,-6.4717,-6.5449,-6.6103,-6.6573,-6.6991,-6.707,-6.72,-6.7331,-6.7462,-6.7566,-6.7566,-6.7488,-6.7436,-6.741,-6.7305,-6.7383,-6.7775,-6.8194,-6.8533,-6.8633,-6.8711,-6.8764,-6.8764,-6.8764,-6.8764,-6.8764,-6.8764,-6.8764,-6.8764,-6.8764,-6.8764,-6.8764,-6.8764,-6.8764,-5.4252,-5.459,-5.456,-5.459,-5.459,-5.459,-5.4845,-5.5179,-5.5381,-5.5481,-5.5651,-5.6154,-5.6334,-5.6475,-5.6798,-5.7283,-5.7647,-5.7617,-5.8003,-5.8879,-5.9318,-5.9635,-6.0055,-6.0454,-6.0638,-6.0638,-6.0638,-6.0586,-6.0564,-6.046,-6.0481,-6.0481,-6.0302,-6.0061,-5.988,-5.972,-5.972,-5.972,-5.975,-5.975,-5.9697,-5.9938,-6.0264,-6.0735,-6.1176,-6.166,-6.2133,-6.2612,-6.2945,-6.3218,-6.3052,-6.3406,-6.4092,-6.3817,-6.4081,-6.4534,-6.5024,-6.5319,-6.5538,-6.6156,-6.646,-6.6793,-6.7276,-6.7487,-6.7517,-6.7335,-6.6878,-6.6473,-6.5611,-6.5093,-6.5279,-6.3679,-6.3226,-6.3231,-6.3091,-6.2325,-6.2208,-6.2234,-6.2339,-6.2522,-6.3045,-6.4012,-6.4848,-6.5475,-6.6024,-6.6442,-6.6547,-6.6834,-6.7017,-6.7122,-6.7253,-6.7253,-6.72,-6.7148,-6.7122,-6.7305,-6.7566,-6.8011,-6.8377,-6.8633,-6.8738,-6.8764,-6.8764,-6.8764,-6.8764,-6.8764,-6.8764,-6.8764,-6.8764,-6.8764,-6.8764,-6.8764,-6.8764,-6.8764,-6.8764,-5.5209,-5.5179,-5.494,-5.485,-5.485,-5.485,-5.478,-5.473,-5.5079,-5.5269,-5.5508,-5.607,-5.6522,-5.6602,-5.7037,-5.7759,-5.8143,-5.8266,-5.8377,-5.9224,-5.9839,-5.9993,-6.0116,-6.0424,-6.068,-6.0794,-6.0794,-6.0794,-6.0742,-6.0794,-6.0742,-6.069,-6.0638,-6.046,-6.025,-6.0144,-5.9933,-5.9933,-5.988,-5.9933,-5.9963,-6.0024,-6.0198,-6.0677,-6.1133,-6.1595,-6.2044,-6.2464,-6.2945,-6.3249,-6.3396,-6.3684,-6.4279,-6.4365,-6.4537,-6.4783,-6.509,-6.5355,-6.5429,-6.5857,-6.6135,-6.6439,-6.7236,-6.7545,-6.7697,-6.7608,-6.7668,-6.7486,-6.7227,-6.6971,-6.6549,-6.4859,-6.4634,-6.4659,-6.3646,-6.2916,-6.2149,-6.2175,-6.2051,-6.2182,-6.2548,-6.341,-6.4273,-6.4691,-6.5266,-6.5658,-6.5998,-6.6338,-6.6599,-6.6625,-6.673,-6.6756,-6.6913,-6.6965,-6.72,-6.7592,-6.788,-6.822,-6.8533,-6.8738,-6.8764,-6.8764,-6.8764,-6.8764,-6.8764,-6.8764,-6.8764,-6.8764,-6.8764,-6.8764,-6.8764,-6.8764,-6.8764,-6.8764,-6.8764,-5.5179,-5.5059,-5.4461,-5.4221,-5.4192,-5.4192,-5.398,-5.3742,-5.4394,-5.4812,-5.4977,-5.5481,-5.6268,-5.7235,-5.7648,-5.822,-5.8896,-5.9112,-5.9255,-5.9593,-5.987,-5.9932,-6.0116,-6.0455,-6.0732,-6.0794,-6.0794,-6.0794,-6.0794,-6.0794,-6.0794,-6.0917,-6.0957,-6.0997,-6.0871,-6.0752,-6.0479,-6.0502,-6.0441,-6.0532,-6.0654,-6.051,-6.0738,-6.1126,-6.1561,-6.2018,-6.2615,-6.3159,-6.377,-6.3978,-6.393,-6.4285,-6.4426,-6.421,-6.4457,-6.4703,-6.4949,-6.4986,-6.5053,-6.5489,-6.5822,-6.6077,-6.6528,-6.6782,-6.7299,-6.7784,-6.8058,-6.8273,-6.815,-6.782,-6.7295,-6.6978,-6.6623,-6.5684,-6.4464,-6.3499,-6.2545,-6.2198,-6.2048,-6.2182,-6.2548,-6.328,-6.4195,-6.4691,-6.4926,-6.5318,-6.5684,-6.5684,-6.5894,-6.5841,-6.5946,-6.6155,-6.6364,-6.6756,-6.7174,-6.7828,-6.8194,-6.8533,-6.8555,-6.8764,-6.8764,-6.8764,-6.8764,-6.8764,-6.8764,-6.8764,-6.8764,-6.8764,-6.8764,-6.8764,-6.8764,-6.8764,-6.8764,-6.8764,-6.8764,-5.491,-5.4491,-5.4281,-5.3922,-5.3552,-5.3699,-5.3676,-5.376,-5.4673,-5.514,-5.5267,-5.6567,-5.691,-5.7051,-5.7531,-5.7715,-5.7734,-5.7734,-5.8011,-5.8485,-5.9347,-5.9532,-5.9932,-6.0393,-6.0701,-6.0794,-6.0794,-6.0824,-6.0824,-6.0824,-6.1194,-6.144,-6.1502,-6.1748,-6.1941,-6.205,-6.1637,-6.137,-6.1278,-6.1431,-6.1676,-6.1737,-6.1874,-6.2066,-6.2281,-6.2649,-6.2948,-6.3217,-6.3677,-6.3947,-6.391,-6.418,-6.4764,-6.4672,-6.4795,-6.4826,-6.4918,-6.4918,-6.4857,-6.4611,-6.4857,-6.5657,-6.6108,-6.6782,-6.7399,-6.8045,-6.8415,-6.8603,-6.9093,-6.896,-6.8776,-6.8465,-6.8026,-6.7118,-6.5821,-6.4491,-6.3499,-6.2667,-6.247,-6.2104,-6.2469,-6.3201,-6.4116,-6.4534,-6.4796,-6.5162,-6.5397,-6.5397,-6.5397,-6.5397,-6.5606,-6.5867,-6.6338,-6.6887,-6.7566,-6.822,-6.8507,-6.8685,-6.8738,-6.8764,-6.8764,-6.8764,-6.8764,-6.8764,-6.8764,-6.8764,-6.8764,-6.8764,-6.8764,-6.8764,-6.8764,-6.8764,-6.8764,-6.8764,-6.8764,-5.4581,-5.4162,-5.3623,-5.3073,-5.2708,-5.3222,-5.3486,-5.3702,-5.4487,-5.5075,-5.5586,-5.6467,-5.6933,-5.6933,-5.721,-5.7364,-5.7315,-5.7487,-5.7672,-5.8042,-5.8701,-5.9101,-5.9686,-6.0301,-6.0701,-6.0794,-6.0855,-6.0978,-6.1132,-6.1532,-6.1902,-6.2148,-6.221,-6.2456,-6.2587,-6.2618,-6.2679,-6.2495,-6.2403,-6.2517,-6.2702,-6.2887,-6.2825,-6.2948,-6.3041,-6.3195,-6.3256,-6.3349,-6.3841,-6.418,-6.4241,-6.4426,-6.4888,-6.4888,-6.4888,-6.4888,-6.4888,-6.4888,-6.4857,-6.458,-6.4857,-6.5319,-6.578,-6.6432,-6.7354,-6.8126,-6.8436,-6.8748,-6.964,-7.0158,-6.9989,-6.9739,-6.9244,-6.8654,-6.7122,-6.5581,-6.4491,-6.3453,-6.2868,-6.2276,-6.2548,-6.3227,-6.3803,-6.4247,-6.4691,-6.5162,-6.5397,-6.5397,-6.5397,-6.5397,-6.5711,-6.6076,-6.6625,-6.7227,-6.7906,-6.8455,-6.8664,-6.8738,-6.8738,-6.8764,-6.8764,-6.8764,-6.8764,-6.8764,-6.8764,-6.8764,-6.8764,-6.8764,-6.8764,-6.8764,-6.8764,-6.8764,-6.8764,-6.8764,-6.8764,-5.4192,-5.4031,-5.2744,-5.2154,-5.1953,-5.2916,-5.3437,-5.3575,-5.431,-5.4894,-5.5606,-5.5807,-5.63,-5.6779,-5.6964,-5.721,-5.7395,-5.7549,-5.7672,-5.7869,-5.907,-5.9501,-5.9562,-6.0116,-6.0671,-6.0794,-6.0886,-6.1071,-6.1779,-6.221,-6.2548,-6.2887,-6.2887,-6.3071,-6.3287,-6.3318,-6.3472,-6.3656,-6.3379,-6.3256,-6.3164,-6.3071,-6.301,-6.3195,-6.3564,-6.3933,-6.4057,-6.4426,-6.4888,-6.4888,-6.4888,-6.4857,-6.4888,-6.4888,-6.4888,-6.4888,-6.4888,-6.4888,-6.4826,-6.4611,-6.4795,-6.5165,-6.5565,-6.6365,-6.735,-6.8058,-6.84,-6.8987,-6.9759,-7.0221,-7.0153,-7.0622,-7.042,-6.9648,-6.8383,-6.6706,-6.5253,-6.4011,-6.2693,-6.2329,-6.2496,-6.3175,-6.3724,-6.4168,-6.4743,-6.5188,-6.5397,-6.5397,-6.5475,-6.5475,-6.5894,-6.6364,-6.6991,-6.7566,-6.8089,-6.856,-6.8659,-6.8764,-6.8764,-6.8764,-6.8764,-6.8764,-6.8764,-6.8764,-6.8764,-6.8764,-6.8764,-6.8764,-6.8764,-6.8764,-6.8764,-6.8764,-6.8764,-6.8738,-6.8764,-5.3991,-5.3615,-5.251,-5.235,-5.2886,-5.3177,-5.4067,-5.5097,-5.5282,-5.5513,-5.5776,-5.6238,-5.6625,-5.6779,-5.681,-5.6994,-5.7118,-5.7641,-5.7795,-5.8146,-5.9131,-5.9593,-5.9655,-6.027,-6.0732,-6.0794,-6.0886,-6.1286,-6.1963,-6.2548,-6.3133,-6.3533,-6.3595,-6.3749,-6.418,-6.421,-6.4334,-6.4487,-6.4334,-6.4149,-6.418,-6.4334,-6.4426,-6.4395,-6.458,-6.4549,-6.4641,-6.4734,-6.4888,-6.4888,-6.4888,-6.4888,-6.4888,-6.4888,-6.4888,-6.4888,-6.4888,-6.4888,-6.4795,-6.4641,-6.4764,-6.538,-6.5934,-6.6673,-6.735,-6.7873,-6.8458,-6.9107,-6.9694,-7.0097,-7.0464,-7.1097,-7.1379,-7.0414,-6.9523,-6.7781,-6.6005,-6.4419,-6.2815,-6.2584,-6.2673,-6.3071,-6.3646,-6.4195,-6.4743,-6.5083,-6.5292,-6.5423,-6.5606,-6.5737,-6.6286,-6.6782,-6.741,-6.7958,-6.8403,-6.8555,-6.8711,-6.8764,-6.8764,-6.8764,-6.8764,-6.8764,-6.8764,-6.8764,-6.8764,-6.8764,-6.8764,-6.8764,-6.8764,-6.8764,-6.8764,-6.8764,-6.8711,-6.8685,-6.8738,-5.3627,-5.3079,-5.273,-5.2841,-5.3376,-5.4067,-5.4866,-5.5653,-5.6023,-5.6176,-5.6207,-5.6625,-5.681,-5.681,-5.681,-5.681,-5.6933,-5.7469,-5.7487,-5.7857,-5.8885,-5.9347,-5.9839,-6.0332,-6.0671,-6.0824,-6.1502,-6.2025,-6.2271,-6.3318,-6.4087,-6.421,-6.4303,-6.4457,-6.4888,-6.4888,-6.4888,-6.4888,-6.4888,-6.4888,-6.4888,-6.4888,-6.4888,-6.4888,-6.4888,-6.4888,-6.4888,-6.4888,-6.4888,-6.4888,-6.4888,-6.4888,-6.4888,-6.4888,-6.4888,-6.4888,-6.4888,-6.4888,-6.4764,-6.4734,-6.4795,-6.5534,-6.5965,-6.655,-6.7535,-6.8058,-6.8304,-6.8982,-6.9659,-7.0065,-7.0007,-7.0369,-7.0421,-6.9816,-6.9625,-6.8744,-6.6952,-6.5253,-6.4056,-6.346,-6.3425,-6.3332,-6.3907,-6.456,-6.5031,-6.5188,-6.5371,-6.5397,-6.558,-6.605,-6.6599,-6.7122,-6.7697,-6.822,-6.8529,-6.8685,-6.8738,-6.8764,-6.8764,-6.8764,-6.8764,-6.8764,-6.8764,-6.8764,-6.8764,-6.8764,-6.8764,-6.8764,-6.8764,-6.8764,-6.8764,-6.8764,-6.8685,-6.8638,-6.856,-5.3278,-5.2799,-5.3176,-5.3484,-5.3806,-5.5066,-5.5745,-5.593,-5.6532,-5.6779,-5.6748,-5.6779,-5.681,-5.681,-5.681,-5.681,-5.7087,-5.7746,-5.758,-5.7641,-5.9101,-5.9316,-5.9624,-6.0086,-6.0547,-6.1163,-6.1809,-6.2179,-6.2456,-6.3595,-6.4364,-6.4734,-6.4857,-6.4888,-6.4888,-6.4888,-6.4888,-6.4888,-6.4888,-6.4888,-6.4888,-6.4888,-6.4888,-6.4888,-6.4826,-6.4826,-6.4857,-6.4795,-6.4795,-6.4888,-6.4888,-6.4888,-6.4888,-6.4888,-6.4888,-6.4888,-6.4888,-6.4888,-6.4888,-6.5042,-6.5349,-6.575,-6.5934,-6.6642,-6.7689,-6.8181,-6.8427,-6.8858,-6.9536,-6.9847,-6.9761,-6.9763,-6.976,-6.9534,-6.9538,-6.9406,-6.768,-6.5964,-6.5099,-6.4292,-6.4102,-6.3923,-6.4038,-6.4717,-6.5136,-6.5318,-6.5371,-6.5397,-6.558,-6.6233,-6.6861,-6.7331,-6.7854,-6.8324,-6.8711,-6.8764,-6.8764,-6.8764,-6.8764,-6.8764,-6.8764,-6.8764,-6.8764,-6.8764,-6.8764,-6.8764,-6.8764,-6.8764,-6.8764,-6.8764,-6.8612,-6.8507,-6.8429,-6.8298,-6.8194,-5.3438,-5.3176,-5.3454,-5.4206,-5.5175,-5.5592,-5.6023,-5.6563,-5.6717,-5.681,-5.681,-5.681,-5.681,-5.681,-5.681,-5.6871,-5.7148,-5.7931,-5.7672,-5.7333,-5.9408,-5.9501,-5.9703,-6.0707,-6.0743,-6.134,-6.196,-6.2007,-6.2965,-6.3787,-6.4111,-6.4305,-6.4899,-6.4967,-6.4943,-6.4998,-6.5053,-6.4998,-6.4888,-6.4888,-6.4888,-6.4888,-6.4888,-6.4703,-6.4334,-6.4518,-6.458,-6.4303,-6.4457,-6.4703,-6.4888,-6.4888,-6.4888,-6.4888,-6.4888,-6.4888,-6.4888,-6.4888,-6.498,-6.5319,-6.5719,-6.6057,-6.6488,-6.7381,-6.812,-6.8458,-6.8705,-6.8828,-6.9382,-6.972,-6.9727,-6.9884,-6.9915,-6.9263,-6.8993,-6.8673,-6.7612,-6.6486,-6.5474,-6.5104,-6.4876,-6.4319,-6.3672,-6.4378,-6.5162,-6.5292,-6.5345,-6.5371,-6.5475,-6.6259,-6.707,-6.7514,-6.7958,-6.8429,-6.8764,-6.8764,-6.8764,-6.8764,-6.8764,-6.8764,-6.8764,-6.8764,-6.8764,-6.8764,-6.8764,-6.8764,-6.8764,-6.8764,-6.8764,-6.8685,-6.8324,-6.8089,-6.8037,-6.7854,-6.7645]},{"header":{"parameterUnit":"m.s-1","parameterCategory":1,"la1":31.0,"la2":29.5877,"lo1":-88.7671,"lo2":-86.6584,"dx":0.0162,"dy":0.0185,"nx":115,"ny":88,"refTime":"2022-12-24T06:00:00:Z","depth":0,"parameterNumber":3,"parameterNumberName":"V-component_of_WINDS"},"data":[0.0,0.0,0.0,0.0,0.0,0.0,0.0,0.0,0.0,0.0,0.0,0.0,0.0,0.0,0.0,0.0,0.0,0.0,0.0,0.0,0.0,0.0,0.0,0.0,0.0,0.0,0.0,0.0,0.0,0.0,0.0,0.0,0.0,0.0,0.0,0.0,0.0,0.0,0.0,0.0,0.0,0.0,0.0,0.0,0.0,0.0,0.0,0.0,0.0,0.0,0.0,0.0,0.0,0.0,0.0,0.0,0.0,0.0,0.0,0.0,0.0,0.0,0.0,0.0,0.0,0.0,0.0,0.0,0.0,0.0,0.0,0.0,0.0,0.0,0.0,0.0,0.0,0.0,0.0,0.0,0.0,0.0,0.0,0.0,0.0,0.0,0.0,0.0,0.0,0.0,0.0,0.0,0.0,0.0,0.0,0.0,0.0,0.0,0.0,0.0,0.0,0.0,0.0,0.0,0.0,0.0,0.0,0.0,0.0,0.0,0.0,0.0,0.0,0.0,0.0,0.0,0.0,0.0,0.0,0.0,0.0,0.0,0.0,0.0,0.0,0.0,0.0,0.0,0.0,0.0,0.0,0.0,0.0,0.0,0.0,0.0,0.0,0.0,0.0,0.0,0.0,0.0,0.0,0.0,0.0,0.0,0.0,0.0,0.0,0.0,0.0,0.0,0.0,0.0,0.0,0.0,0.0,0.0,0.0,0.0,0.0,0.0,0.0,0.0,0.0,0.0,0.0,0.0,0.0,0.0,0.0,0.0,0.0,0.0,0.0,0.0,0.0,0.0,0.0,0.0,0.0,0.0,0.0,0.0,0.0,0.0,0.0,0.0,0.0,0.0,0.0,0.0,0.0,0.0,0.0,0.0,0.0,0.0,0.0,0.0,0.0,0.0,0.0,0.0,0.0,0.0,0.0,0.0,0.0,0.0,0.0,0.0,0.0,0.0,0.0,0.0,0.0,0.0,0.0,0.0,0.0,0.0,0.0,0.0,0.0,0.0,0.0,0.0,0.0,0.0,0.0,0.0,0.0,0.0,0.0,0.0,0.0,0.0,0.0,0.0,0.0,0.0,0.0,0.0,0.0,0.0,0.0,0.0,0.0,0.0,0.0,0.0,0.0,0.0,0.0,0.0,0.0,0.0,0.0,0.0,0.0,0.0,0.0,0.0,0.0,0.0,0.0,0.0,0.0,0.0,0.0,0.0,0.0,0.0,0.0,0.0,0.0,0.0,0.0,0.0,0.0,0.0,0.0,0.0,0.0,0.0,0.0,0.0,0.0,0.0,0.0,0.0,0.0,0.0,0.0,0.0,0.0,0.0,0.0,0.0,0.0,0.0,0.0,0.0,0.0,0.0,0.0,0.0,0.0,0.0,0.0,0.0,0.0,0.0,0.0,0.0,0.0,0.0,0.0,0.0,0.0,0.0,0.0,0.0,0.0,0.0,0.0,0.0,0.0,0.0,0.0,0.0,0.0,0.0,0.0,0.0,0.0,0.0,0.0,0.0,0.0,0.0,0.0,0.0,0.0,0.0,0.0,0.0,0.0,0.0,0.0,0.0,0.0,0.0,0.0,0.0,0.0,0.0,0.0,0.0,0.0,0.0,0.0,0.0,0.0,0.0,0.0,0.0,0.0,0.0,0.0,0.0,0.0,0.0,0.0,0.0,0.0,0.0,0.0,0.0,0.0,0.0,0.0,0.0,0.0,0.0,0.0,0.0,0.0,0.0,0.0,0.0,0.0,0.0,0.0,0.0,0.0,0.0,0.0,0.0,0.0,0.0,0.0,0.0,0.0,0.0,0.0,0.0,0.0,0.0,0.0,0.0,0.0,0.0,0.0,0.0,0.0,0.0,0.0,0.0,0.0,0.0,0.0,0.0,0.0,0.0,0.0,0.0,0.0,0.0,0.0,0.0,0.0,0.0,0.0,0.0,0.0,0.0,0.0,0.0,0.0,0.0,0.0,0.0,0.0,0.0,0.0,0.0,0.0,0.0,0.0,0.0,0.0,0.0,0.0,0.0,0.0,0.0,0.0,0.0,0.0,0.0,0.0,0.0,0.0,0.0,0.0,0.0,0.0,0.0,0.0,0.0,0.0,0.0,0.0,0.0,0.0,0.0,0.0,0.0,0.0,0.0,0.0,0.0,0.0,0.0,0.0,0.0,0.0,0.0,0.0,0.0,0.0,0.0,0.0,0.0,0.0,0.0,0.0,0.0,0.0,0.0,0.0,0.0,0.0,0.0,0.0,0.0,0.0,0.0,0.0,0.0,0.0,0.0,0.0,0.0,0.0,0.0,0.0,0.0,0.0,0.0,0.0,0.0,0.0,0.0,0.0,0.0,0.0,0.0,0.0,0.0,0.0,0.0,0.0,0.0,0.0,0.0,0.0,0.0,0.0,0.0,0.0,0.0,0.0,0.0,0.0,0.0,0.0,0.0,0.0,0.0,0.0,0.0,0.0,0.0,0.0,0.0,0.0,0.0,0.0,0.0,0.0,0.0,0.0,0.0,0.0,0.0,0.0,0.0,0.0,0.0,0.0,0.0,0.0,0.0,0.0,0.0,0.0,0.0,0.0,0.0,0.0,0.0,0.0,0.0,0.0,0.0,0.0,0.0,0.0,0.0,0.0,0.0,0.0,0.0,0.0,0.0,0.0,0.0,0.0,0.0,0.0,0.0,0.0,0.0,0.0,0.0,0.0,0.0,0.0,0.0,0.0,0.0,0.0,0.0,0.0,0.0,0.0,0.0,0.0,0.0,0.0,0.0,0.0,0.0,0.0,0.0,0.0,0.0,0.0,0.0,0.0,0.0,0.0,0.0,0.0,0.0,0.0,0.0,0.0,0.0,0.0,0.0,0.0,0.0,0.0,0.0,0.0,0.0,0.0,0.0,0.0,0.0,0.0,0.0,0.0,0.0,0.0,0.0,0.0,0.0,0.0,0.0,0.0,0.0,0.0,0.0,0.0,0.0,0.0,0.0,0.0,0.0,0.0,0.0,0.0,0.0,0.0,0.0,0.0,0.0,0.0,0.0,0.0,0.0,0.0,0.0,0.0,0.0,0.0,0.0,0.0,0.0,0.0,0.0,0.0,0.0,0.0,0.0,0.0,0.0,0.0,0.0,0.0,0.0,0.0,0.0,0.0,0.0,0.0,0.0,0.0,0.0,0.0,0.0,0.0,0.0,0.0,0.0,0.0,0.0,0.0,0.0,0.0,0.0,0.0,0.0,0.0,0.0,0.0,0.0,0.0,0.0,0.0,0.0,0.0,0.0,0.0,0.0,0.0,0.0,0.0,0.0,0.0,0.0,0.0,0.0,0.0,0.0,0.0,0.0,0.0,0.0,0.0,0.0,0.0,0.0,0.0,0.0,0.0,0.0,0.0,0.0,0.0,0.0,0.0,0.0,0.0,0.0,0.0,0.0,0.0,0.0,0.0,0.0,0.0,0.0,0.0,0.0,0.0,0.0,0.0,0.0,0.0,0.0,0.0,0.0,0.0,0.0,0.0,0.0,0.0,0.0,0.0,0.0,0.0,0.0,0.0,0.0,0.0,0.0,0.0,0.0,0.0,0.0,0.0,0.0,0.0,0.0,0.0,0.0,0.0,0.0,0.0,0.0,0.0,0.0,0.0,0.0,0.0,0.0,0.0,0.0,0.0,0.0,0.0,0.0,0.0,0.0,0.0,0.0,0.0,0.0,0.0,0.0,0.0,0.0,0.0,0.0,0.0,0.0,0.0,0.0,0.0,0.0,0.0,0.0,0.0,0.0,0.0,0.0,0.0,0.0,0.0,0.0,0.0,0.0,0.0,0.0,0.0,0.0,0.0,0.0,0.0,0.0,0.0,0.0,0.0,0.0,0.0,0.0,0.0,0.0,0.0,0.0,0.0,0.0,0.0,0.0,0.0,0.0,0.0,0.0,0.0,0.0,0.0,0.0,0.0,0.0,0.0,0.0,0.0,0.0,0.0,0.0,0.0,0.0,0.0,0.0,0.0,0.0,0.0,0.0,0.0,0.0,0.0,0.0,0.0,0.0,0.0,0.0,0.0,0.0,0.0,0.0,0.0,0.0,0.0,0.0,0.0,0.0,0.0,0.0,0.0,0.0,0.0,0.0,0.0,0.0,0.0,0.0,0.0,0.0,0.0,0.0,0.0,0.0,0.0,0.0,0.0,0.0,0.0,0.0,0.0,0.0,0.0,0.0,0.0,0.0,0.0,0.0,0.0,0.0,0.0,0.0,0.0,0.0,0.0,0.0,0.0,0.0,2.4394,0.0,0.0,0.0,2.373,0.0,0.0,0.0,0.0,0.0,0.0,0.0,0.0,0.0,0.0,0.0,0.0,0.0,0.0,0.0,0.0,0.0,0.0,0.0,0.0,0.0,0.0,0.0,0.0,0.0,0.0,0.0,0.0,0.0,0.0,0.0,0.0,0.0,0.0,0.0,0.0,0.0,0.0,0.0,0.0,0.0,0.0,0.0,0.0,0.0,0.0,0.0,0.0,0.0,0.0,0.0,0.0,0.0,0.0,0.0,0.0,0.0,0.0,0.0,0.0,0.0,0.0,0.0,0.0,0.0,0.0,0.0,0.0,0.0,0.0,0.0,0.0,0.0,0.0,0.0,0.0,0.0,0.0,0.0,0.0,0.0,0.0,0.0,0.0,0.0,0.0,0.0,0.0,0.0,0.0,0.0,0.0,0.0,0.0,0.0,0.0,0.0,0.0,0.0,0.0,0.0,0.0,0.0,0.0,0.0,0.0,0.0,0.0,0.0,0.0,2.5142,2.4785,2.4766,2.4453,2.3828,0.0,0.0,0.0,0.0,0.0,0.0,0.0,0.0,0.0,0.0,0.0,0.0,0.0,0.0,0.0,0.0,0.0,0.0,0.0,0.0,0.0,0.0,0.0,0.0,0.0,0.0,0.0,0.0,0.0,0.0,0.0,0.0,0.0,0.0,0.0,0.0,0.0,0.0,0.0,0.0,0.0,0.0,0.0,0.0,0.0,0.0,0.0,0.0,0.0,0.0,0.0,0.0,0.0,0.0,0.0,0.0,0.0,0.0,0.0,0.0,0.0,0.0,0.0,0.0,0.0,0.0,0.0,0.0,0.0,0.0,0.0,0.0,0.0,0.0,0.0,0.0,0.0,0.0,0.0,0.0,0.0,0.0,0.0,0.0,0.0,0.0,0.0,0.0,0.0,0.0,0.0,0.0,0.0,0.0,0.0,0.0,0.0,0.0,0.0,0.0,0.0,0.0,0.0,0.0,0.0,0.0,0.0,0.0,0.0,0.0,0.0,0.0,2.5358,2.5004,2.4212,0.0,0.0,0.0,0.0,0.0,0.0,0.0,0.0,0.0,0.0,0.0,0.0,0.0,0.0,0.0,0.0,0.0,0.0,0.0,0.0,0.0,0.0,0.0,0.0,0.0,0.0,0.0,0.0,0.0,0.0,0.0,0.0,0.0,0.0,0.0,0.0,0.0,0.0,0.0,0.0,0.0,0.0,0.0,0.0,0.0,0.0,0.0,0.0,0.0,0.0,0.0,0.0,0.0,0.0,0.0,0.0,0.0,0.0,0.0,0.0,0.0,0.0,0.0,0.0,0.0,0.0,0.0,0.0,0.0,0.0,0.0,0.0,0.0,0.0,0.0,0.0,0.0,0.0,0.0,0.0,0.0,0.0,0.0,0.0,0.0,0.0,0.0,0.0,0.0,0.0,0.0,0.0,0.0,0.0,0.0,0.0,0.0,0.0,0.0,0.0,0.0,0.0,0.0,0.0,0.0,0.0,0.0,0.0,0.0,0.0,2.5945,2.634,2.6127,0.0,2.5377,0.0,0.0,0.0,0.0,0.0,0.0,0.0,0.0,0.0,0.0,0.0,0.0,0.0,0.0,0.0,0.0,0.0,0.0,0.0,0.0,0.0,0.0,0.0,0.0,0.0,0.0,0.0,0.0,0.0,0.0,0.0,0.0,0.0,0.0,0.0,0.0,0.0,0.0,0.0,0.0,0.0,0.0,0.0,0.0,0.0,0.0,0.0,0.0,0.0,0.0,0.0,0.0,0.0,0.0,0.0,0.0,0.0,0.0,0.0,0.0,0.0,0.0,0.0,0.0,0.0,0.0,0.0,0.0,0.0,0.0,0.0,0.0,0.0,0.0,0.0,0.0,0.0,0.0,0.0,0.0,0.0,0.0,0.0,0.0,0.0,0.0,0.0,0.0,0.0,0.0,0.0,0.0,0.0,0.0,0.0,0.0,0.0,0.0,0.0,0.0,0.0,0.0,0.0,0.0,0.0,0.0,0.0,0.0,0.0,0.0,2.6709,2.6496,2.64,2.6272,0.0,0.0,0.0,0.0,0.0,0.0,0.0,0.0,0.0,0.0,0.0,0.0,0.0,0.0,0.0,0.0,0.0,0.0,0.0,0.0,0.0,0.0,0.0,0.0,0.0,0.0,0.0,0.0,0.0,0.0,0.0,0.0,0.0,0.0,0.0,0.0,0.0,0.0,0.0,0.0,0.0,0.0,0.0,0.0,0.0,0.0,0.0,0.0,0.0,0.0,0.0,0.0,0.0,0.0,0.0,0.0,0.0,0.0,0.0,0.0,0.0,0.0,0.0,0.0,0.0,0.0,0.0,0.0,0.0,0.0,0.0,0.0,0.0,0.0,0.0,0.0,0.0,0.0,0.0,0.0,0.0,0.0,0.0,0.0,0.0,0.0,0.0,0.0,0.0,0.0,0.0,0.0,0.0,0.0,0.0,0.0,0.0,0.0,0.0,0.0,0.0,0.0,0.0,0.0,0.0,0.0,0.0,0.0,0.0,0.0,2.7163,2.7293,2.6863,2.7114,2.7085,2.6697,0.0,0.0,0.0,0.0,0.0,0.0,0.0,0.0,0.0,0.0,0.0,0.0,0.0,0.0,0.0,0.0,0.0,0.0,0.0,0.0,0.0,0.0,0.0,0.0,0.0,0.0,0.0,0.0,0.0,0.0,0.0,0.0,0.0,0.0,0.0,0.0,0.0,0.0,0.0,0.0,0.0,0.0,0.0,0.0,0.0,0.0,0.0,0.0,0.0,0.0,0.0,0.0,0.0,0.0,0.0,0.0,0.0,0.0,0.0,0.0,0.0,0.0,0.0,0.0,0.0,0.0,0.0,0.0,0.0,0.0,0.0,0.0,0.0,0.0,0.0,0.0,0.0,0.0,0.0,0.0,0.0,0.0,0.0,0.0,0.0,0.0,0.0,0.0,0.0,0.0,0.0,0.0,0.0,0.0,0.0,0.0,0.0,0.0,0.0,0.0,0.0,0.0,0.0,0.0,0.0,0.0,0.0,0.0,2.6873,2.7154,2.7357,2.7603,2.8601,2.8562,0.0,0.0,0.0,0.0,0.0,0.0,0.0,0.0,0.0,0.0,0.0,0.0,0.0,0.0,0.0,0.0,0.0,0.0,0.0,0.0,0.0,0.0,0.0,0.0,0.0,0.0,0.0,0.0,0.0,0.0,0.0,0.0,0.0,0.0,0.0,0.0,0.0,0.0,0.0,0.0,0.0,0.0,0.0,0.0,0.0,0.0,0.0,0.0,0.0,0.0,0.0,0.0,0.0,0.0,0.0,0.0,0.0,0.0,0.0,0.0,0.0,0.0,0.0,0.0,0.0,0.0,0.0,0.0,0.0,0.0,0.0,0.0,0.0,0.0,0.0,0.0,0.0,0.0,0.0,0.0,0.0,0.0,0.0,0.0,0.0,0.0,0.0,0.0,0.0,0.0,0.0,0.0,0.0,0.0,0.0,0.0,0.0,0.0,0.0,0.0,0.0,0.0,0.0,0.0,0.0,0.0,0.0,0.0,0.0,2.7717,2.7979,2.8419,2.9126,2.9239,2.9044,0.0,0.0,0.0,0.0,0.0,0.0,0.0,0.0,0.0,0.0,0.0,0.0,0.0,0.0,0.0,0.0,0.0,0.0,0.0,0.0,0.0,0.0,0.0,0.0,0.0,0.0,0.0,0.0,0.0,0.0,0.0,0.0,0.0,0.0,0.0,0.0,0.0,0.0,0.0,0.0,0.0,0.0,0.0,0.0,0.0,0.0,0.0,0.0,0.0,0.0,0.0,0.0,0.0,0.0,0.0,0.0,0.0,0.0,0.0,0.0,0.0,0.0,0.0,0.0,0.0,0.0,0.0,0.0,0.0,0.0,0.0,0.0,0.0,0.0,0.0,0.0,0.0,0.0,0.0,0.0,0.0,0.0,0.0,0.0,0.0,0.0,0.0,0.0,0.0,0.0,0.0,0.0,0.0,0.0,0.0,0.0,0.0,0.0,0.0,0.0,0.0,0.0,0.0,0.0,0.0,0.0,0.0,0.0,0.0,2.9074,2.9593,3.0013,3.0273,3.0146,2.9743,0.0,0.0,0.0,0.0,0.0,0.0,0.0,0.0,0.0,0.0,0.0,0.0,0.0,0.0,0.0,0.0,0.0,0.0,0.0,0.0,0.0,0.0,0.0,0.0,0.0,0.0,0.0,0.0,0.0,0.0,0.0,0.0,0.0,0.0,0.0,0.0,0.0,0.0,0.0,0.0,0.0,0.0,0.0,0.0,0.0,0.0,0.0,0.0,0.0,0.0,0.0,0.0,0.0,0.0,0.0,0.0,0.0,0.0,0.0,0.0,0.0,0.0,0.0,0.0,0.0,0.0,0.0,0.0,0.0,0.0,0.0,0.0,0.0,0.0,0.0,0.0,0.0,0.0,0.0,0.0,0.0,0.0,0.0,0.0,0.0,0.0,0.0,0.0,0.0,0.0,0.0,0.0,0.0,0.0,0.0,0.0,0.0,0.0,0.0,0.0,0.0,0.0,0.0,0.0,0.0,0.0,0.0,0.0,2.9901,3.0893,3.1905,3.1927,3.0986,3.1323,3.0734,0.0,0.0,0.0,0.0,0.0,0.0,0.0,0.0,0.0,0.0,0.0,0.0,0.0,0.0,0.0,0.0,0.0,0.0,0.0,0.0,0.0,0.0,0.0,0.0,0.0,0.0,0.0,0.0,0.0,0.0,0.0,0.0,0.0,0.0,0.0,0.0,0.0,0.0,0.0,0.0,0.0,0.0,0.0,0.0,0.0,0.0,0.0,0.0,0.0,0.0,0.0,0.0,0.0,0.0,0.0,0.0,0.0,0.0,0.0,0.0,0.0,0.0,0.0,0.0,0.0,0.0,0.0,0.0,0.0,0.0,0.0,0.0,0.0,0.0,0.0,0.0,0.0,0.0,0.0,0.0,0.0,0.0,0.0,0.0,0.0,0.0,0.0,0.0,0.0,0.0,0.0,0.0,0.0,0.0,0.0,0.0,0.0,0.0,0.0,0.0,0.0,0.0,0.0,0.0,0.0,0.0,0.0,0.0,0.0,3.2524,3.2799,3.2822,3.2474,3.1905,3.1367,0.0,0.0,0.0,0.0,0.0,0.0,0.0,0.0,0.0,0.0,0.0,0.0,0.0,0.0,0.0,0.0,0.0,0.0,0.0,0.0,0.0,0.0,0.0,0.0,0.0,0.0,0.0,0.0,0.0,0.0,0.0,0.0,0.0,0.0,0.0,0.0,0.0,0.0,0.0,0.0,0.0,0.0,0.0,0.0,0.0,0.0,0.0,0.0,0.0,0.0,0.0,0.0,0.0,0.0,0.0,0.0,0.0,0.0,0.0,0.0,0.0,0.0,0.0,0.0,0.0,0.0,0.0,0.0,0.0,0.0,0.0,0.0,0.0,0.0,0.0,0.0,0.0,0.0,0.0,0.0,0.0,0.0,0.0,0.0,0.0,0.0,0.0,0.0,0.0,0.0,0.0,0.0,0.0,0.0,0.0,0.0,0.0,0.0,0.0,0.0,0.0,0.0,0.0,0.0,0.0,0.0,0.0,0.0,0.0,3.5006,3.4956,3.4831,3.4407,3.3568,3.2898,3.2492,0.0,0.0,0.0,0.0,0.0,0.0,0.0,0.0,0.0,0.0,0.0,0.0,0.0,0.0,0.0,0.0,0.0,0.0,0.0,0.0,0.0,0.0,0.0,0.0,0.0,0.0,0.0,0.0,0.0,0.0,0.0,0.0,0.0,0.0,0.0,0.0,0.0,0.0,0.0,0.0,0.0,0.0,0.0,0.0,0.0,0.0,0.0,0.0,0.0,0.0,0.0,0.0,0.0,0.0,0.0,0.0,0.0,0.0,0.0,0.0,0.0,0.0,0.0,0.0,0.0,0.0,0.0,0.0,0.0,0.0,0.0,0.0,0.0,0.0,0.0,0.0,0.0,0.0,0.0,0.0,0.0,0.0,0.0,0.0,0.0,0.0,0.0,0.0,0.0,0.0,0.0,0.0,0.0,0.0,0.0,0.0,0.0,0.0,0.0,0.0,0.0,0.0,0.0,0.0,0.0,0.0,0.0,0.0,3.799,3.8065,3.7543,3.649,3.5907,3.5144,0.0,0.0,0.0,0.0,0.0,0.0,0.0,0.0,0.0,0.0,0.0,0.0,0.0,0.0,0.0,0.0,0.0,0.0,0.0,0.0,0.0,0.0,0.0,0.0,0.0,0.0,0.0,0.0,0.0,0.0,0.0,0.0,0.0,0.0,0.0,0.0,0.0,0.0,0.0,0.0,0.0,0.0,0.0,0.0,0.0,0.0,0.0,0.0,0.0,0.0,0.0,0.0,0.0,0.0,0.0,0.0,0.0,0.0,0.0,0.0,0.0,0.0,0.0,0.0,0.0,0.0,0.0,0.0,0.0,0.0,0.0,0.0,0.0,0.0,0.0,0.0,0.0,0.0,0.0,0.0,0.0,0.0,0.0,0.0,0.0,0.0,0.0,0.0,0.0,0.0,0.0,0.0,0.0,0.0,0.0,0.0,0.0,0.0,0.0,0.0,0.0,0.0,0.0,0.0,0.0,0.0,0.0,0.0,0.0,3.7965,3.8818,3.8742,3.7618,3.6671,3.5877,0.0,0.0,0.0,0.0,0.0,0.0,0.0,0.0,0.0,0.0,0.0,0.0,0.0,0.0,0.0,0.0,0.0,0.0,0.0,0.0,0.0,0.0,0.0,0.0,0.0,0.0,0.0,0.0,0.0,0.0,0.0,0.0,0.0,0.0,0.0,0.0,0.0,0.0,0.0,0.0,0.0,0.0,0.0,0.0,0.0,0.0,0.0,0.0,0.0,0.0,0.0,0.0,0.0,0.0,0.0,0.0,0.0,0.0,0.0,0.0,0.0,0.0,0.0,0.0,0.0,0.0,0.0,0.0,0.0,0.0,0.0,0.0,0.0,0.0,0.0,0.0,0.0,0.0,0.0,0.0,0.0,0.0,0.0,0.0,0.0,0.0,0.0,0.0,0.0,0.0,0.0,0.0,0.0,0.0,0.0,0.0,0.0,0.0,0.0,0.0,0.0,0.0,0.0,0.0,0.0,0.0,0.0,0.0,3.8015,3.8693,3.9346,3.9496,3.9069,3.8038,3.729,0.0,0.0,0.0,0.0,0.0,0.0,0.0,0.0,0.0,0.0,0.0,0.0,0.0,0.0,0.0,0.0,0.0,0.0,0.0,0.0,0.0,0.0,0.0,0.0,0.0,0.0,0.0,0.0,0.0,0.0,0.0,0.0,0.0,0.0,0.0,0.0,0.0,0.0,0.0,0.0,0.0,0.0,0.0,0.0,0.0,0.0,0.0,0.0,0.0,0.0,0.0,0.0,0.0,0.0,0.0,0.0,0.0,0.0,0.0,0.0,0.0,0.0,0.0,0.0,0.0,0.0,0.0,0.0,0.0,0.0,0.0,0.0,0.0,0.0,0.0,0.0,0.0,0.0,0.0,0.0,0.0,0.0,0.0,0.0,0.0,0.0,0.0,0.0,0.0,0.0,0.0,0.0,0.0,0.0,0.0,0.0,0.0,0.0,0.0,0.0,0.0,0.0,0.0,0.0,0.0,0.0,0.0,0.0,3.8065,3.9471,3.9697,3.9973,4.0375,3.9521,3.9045,0.0,0.0,0.0,0.0,0.0,0.0,0.0,0.0,0.0,0.0,0.0,0.0,0.0,0.0,0.0,0.0,0.0,0.0,0.0,0.0,0.0,0.0,0.0,0.0,0.0,0.0,0.0,0.0,0.0,0.0,0.0,0.0,0.0,0.0,0.0,0.0,0.0,0.0,0.0,0.0,0.0,0.0,0.0,0.0,0.0,0.0,0.0,0.0,0.0,0.0,0.0,0.0,0.0,0.0,0.0,0.0,0.0,0.0,0.0,0.0,0.0,0.0,0.0,0.0,0.0,0.0,0.0,0.0,0.0,0.0,0.0,0.0,0.0,0.0,0.0,0.0,0.0,0.0,0.0,0.0,0.0,0.0,0.0,0.0,0.0,0.0,0.0,0.0,0.0,0.0,0.0,0.0,0.0,0.0,0.0,0.0,0.0,0.0,0.0,0.0,0.0,0.0,0.0,0.0,0.0,0.0,0.0,0.0,3.8467,3.8391,3.9647,4.0199,3.9873,4.0074,3.9772,0.0,0.0,0.0,0.0,0.0,0.0,0.0,0.0,0.0,0.0,0.0,0.0,0.0,0.0,0.0,0.0,0.0,0.0,0.0,0.0,0.0,0.0,0.0,0.0,0.0,0.0,0.0,0.0,0.0,0.0,0.0,0.0,0.0,0.0,0.0,0.0,0.0,0.0,0.0,0.0,0.0,0.0,0.0,0.0,0.0,0.0,0.0,0.0,5.1977,0.0,0.0,0.0,0.0,0.0,0.0,0.0,0.0,0.0,0.0,0.0,0.0,0.0,0.0,0.0,0.0,0.0,0.0,0.0,0.0,0.0,0.0,0.0,0.0,0.0,0.0,0.0,0.0,0.0,0.0,0.0,0.0,0.0,0.0,0.0,0.0,0.0,0.0,0.0,0.0,0.0,0.0,0.0,0.0,0.0,0.0,0.0,0.0,0.0,0.0,0.0,0.0,0.0,0.0,0.0,0.0,0.0,0.0,0.0,3.912,3.8843,4.0174,4.0777,4.0475,4.0501,4.0124,0.0,0.0,0.0,0.0,0.0,0.0,0.0,0.0,0.0,0.0,0.0,0.0,0.0,0.0,0.0,0.0,0.0,0.0,0.0,0.0,0.0,0.0,0.0,0.0,0.0,0.0,0.0,0.0,0.0,0.0,0.0,0.0,0.0,0.0,0.0,0.0,0.0,0.0,0.0,0.0,0.0,0.0,0.0,0.0,0.0,0.0,0.0,0.0,0.0,0.0,0.0,0.0,0.0,0.0,0.0,0.0,0.0,0.0,0.0,0.0,0.0,0.0,0.0,0.0,0.0,0.0,0.0,0.0,0.0,0.0,0.0,0.0,0.0,0.0,0.0,0.0,0.0,0.0,0.0,0.0,0.0,0.0,0.0,0.0,0.0,0.0,0.0,0.0,0.0,0.0,0.0,0.0,0.0,0.0,0.0,0.0,0.0,0.0,0.0,0.0,0.0,0.0,0.0,0.0,0.0,0.0,0.0,3.8969,3.9772,3.9747,4.0852,4.1379,4.115,4.0852,4.0375,3.9823,0.0,0.0,0.0,0.0,0.0,0.0,0.0,0.0,0.0,0.0,0.0,0.0,0.0,0.0,0.0,0.0,0.0,0.0,0.0,0.0,0.0,0.0,0.0,0.0,0.0,0.0,0.0,0.0,0.0,0.0,0.0,0.0,0.0,0.0,0.0,0.0,0.0,0.0,4.7578,4.988,0.0,0.0,0.0,0.0,0.0,0.0,0.0,0.0,5.3503,0.0,0.0,0.0,0.0,0.0,0.0,0.0,0.0,0.0,0.0,0.0,0.0,0.0,0.0,0.0,0.0,0.0,0.0,0.0,0.0,0.0,0.0,0.0,0.0,0.0,0.0,0.0,0.0,0.0,0.0,0.0,0.0,0.0,0.0,0.0,0.0,0.0,0.0,0.0,0.0,0.0,0.0,0.0,0.0,0.0,0.0,0.0,0.0,0.0,0.0,0.0,0.0,0.0,0.0,0.0,0.0,3.7889,3.9521,4.0149,3.9747,4.1204,4.158,4.0701,4.1003,4.0953,4.035,0.0,0.0,0.0,0.0,0.0,0.0,0.0,0.0,0.0,0.0,0.0,0.0,0.0,0.0,0.0,0.0,0.0,0.0,0.0,0.0,0.0,0.0,0.0,0.0,0.0,0.0,0.0,0.0,0.0,0.0,0.0,0.0,0.0,0.0,0.0,0.0,0.0,0.0,0.0,5.221,5.2935,0.0,0.0,0.0,0.0,0.0,0.0,0.0,0.0,5.482,0.0,0.0,0.0,0.0,0.0,0.0,0.0,0.0,0.0,0.0,0.0,0.0,0.0,0.0,0.0,0.0,0.0,0.0,0.0,0.0,0.0,0.0,0.0,0.0,0.0,0.0,0.0,0.0,0.0,0.0,0.0,0.0,0.0,0.0,0.0,0.0,0.0,0.0,0.0,0.0,0.0,0.0,0.0,0.0,0.0,0.0,0.0,0.0,0.0,0.0,0.0,0.0,0.0,0.0,0.0,3.8517,4.0099,4.0676,4.0174,4.1178,4.163,4.1354,4.1354,4.1329,0.0,0.0,0.0,0.0,0.0,0.0,0.0,0.0,0.0,0.0,0.0,0.0,0.0,0.0,0.0,0.0,0.0,0.0,0.0,0.0,0.0,0.0,0.0,0.0,0.0,0.0,0.0,0.0,0.0,0.0,0.0,0.0,0.0,0.0,0.0,0.0,0.0,0.0,0.0,0.0,5.3593,5.4341,5.475,0.0,0.0,0.0,0.0,0.0,0.0,5.5987,5.5957,0.0,0.0,0.0,0.0,0.0,0.0,0.0,0.0,0.0,0.0,0.0,0.0,0.0,0.0,0.0,0.0,0.0,0.0,0.0,0.0,0.0,0.0,0.0,0.0,0.0,0.0,0.0,0.0,0.0,0.0,0.0,0.0,0.0,0.0,0.0,0.0,0.0,0.0,0.0,0.0,0.0,0.0,0.0,0.0,0.0,0.0,0.0,0.0,0.0,0.0,0.0,0.0,0.0,0.0,0.0,3.97,4.1027,4.1664,4.1513,4.1766,4.2118,4.2489,4.1929,4.1746,0.0,0.0,0.0,0.0,0.0,0.0,0.0,0.0,0.0,0.0,0.0,0.0,0.0,0.0,0.0,0.0,0.0,0.0,0.0,0.0,0.0,0.0,0.0,0.0,0.0,0.0,0.0,0.0,0.0,0.0,0.0,0.0,0.0,0.0,0.0,0.0,0.0,0.0,0.0,0.0,0.0,5.5568,5.6158,5.6286,0.0,0.0,0.0,0.0,5.6555,5.7094,0.0,0.0,0.0,0.0,0.0,0.0,0.0,0.0,0.0,0.0,0.0,0.0,0.0,0.0,0.0,0.0,0.0,0.0,0.0,0.0,0.0,0.0,0.0,0.0,0.0,0.0,0.0,0.0,0.0,0.0,0.0,0.0,0.0,0.0,0.0,0.0,0.0,0.0,0.0,0.0,0.0,0.0,0.0,0.0,0.0,0.0,0.0,0.0,0.0,0.0,0.0,0.0,0.0,0.0,0.0,0.0,4.2269,4.3022,4.3829,4.4873,4.4342,4.3934,4.3596,4.2995,4.2288,0.0,0.0,0.0,0.0,0.0,0.0,0.0,0.0,0.0,0.0,0.0,0.0,0.0,0.0,0.0,0.0,0.0,0.0,0.0,0.0,0.0,0.0,0.0,0.0,0.0,0.0,0.0,0.0,0.0,0.0,0.0,0.0,0.0,0.0,0.0,0.0,0.0,0.0,0.0,0.0,0.0,5.6128,5.6218,5.6645,5.7004,0.0,0.0,5.7902,5.7902,5.8441,0.0,0.0,0.0,0.0,0.0,0.0,0.0,0.0,0.0,0.0,0.0,0.0,0.0,0.0,0.0,0.0,0.0,0.0,0.0,0.0,0.0,0.0,0.0,0.0,0.0,0.0,0.0,0.0,0.0,0.0,0.0,0.0,0.0,0.0,0.0,0.0,0.0,0.0,0.0,0.0,0.0,0.0,0.0,0.0,0.0,0.0,0.0,0.0,0.0,0.0,0.0,0.0,0.0,0.0,0.0,4.1322,4.2958,4.3786,4.4683,4.5653,4.5231,4.5086,4.5181,4.5315,4.4679,0.0,0.0,0.0,0.0,0.0,0.0,0.0,0.0,0.0,0.0,0.0,0.0,0.0,0.0,0.0,0.0,0.0,0.0,0.0,0.0,0.0,0.0,0.0,0.0,0.0,0.0,0.0,0.0,0.0,0.0,0.0,0.0,0.0,0.0,0.0,0.0,0.0,0.0,0.0,0.0,0.0,0.0,5.7214,5.7513,0.0,0.0,0.0,5.8141,5.8141,0.0,0.0,0.0,0.0,0.0,0.0,0.0,0.0,0.0,0.0,0.0,0.0,0.0,0.0,0.0,0.0,0.0,0.0,0.0,0.0,0.0,0.0,0.0,0.0,0.0,0.0,0.0,0.0,0.0,0.0,0.0,0.0,0.0,0.0,0.0,0.0,0.0,0.0,0.0,0.0,0.0,0.0,0.0,0.0,0.0,0.0,0.0,0.0,0.0,0.0,0.0,0.0,0.0,0.0,0.0,0.0,0.0,4.3937,4.4733,4.5706,4.6885,4.6295,4.6188,4.6736,4.7202,0.0,0.0,0.0,0.0,0.0,0.0,0.0,0.0,0.0,0.0,0.0,0.0,0.0,0.0,0.0,0.0,0.0,0.0,0.0,0.0,0.0,0.0,0.0,0.0,0.0,0.0,0.0,3.976,0.0,0.0,0.0,0.0,0.0,0.0,0.0,0.0,0.0,0.0,0.0,0.0,0.0,0.0,5.7393,5.8261,5.8381,5.8387,0.0,0.0,5.868,5.886,5.9129,5.9129,0.0,0.0,0.0,0.0,0.0,0.0,0.0,0.0,0.0,0.0,0.0,0.0,0.0,0.0,0.0,0.0,0.0,0.0,0.0,0.0,0.0,0.0,0.0,0.0,0.0,0.0,0.0,0.0,0.0,0.0,0.0,0.0,0.0,0.0,0.0,0.0,0.0,0.0,0.0,0.0,0.0,0.0,0.0,0.0,0.0,0.0,0.0,0.0,0.0,0.0,0.0,0.0,0.0,0.0,0.0,4.6016,4.6357,4.7541,4.963,4.801,4.7338,4.7836,4.7897,4.7466,0.0,0.0,0.0,0.0,0.0,0.0,0.0,0.0,0.0,0.0,0.0,0.0,0.0,0.0,0.0,0.0,0.0,0.0,0.0,0.0,0.0,0.0,0.0,0.0,0.0,0.0,0.0,0.0,0.0,0.0,0.0,0.0,0.0,0.0,0.0,0.0,0.0,0.0,0.0,0.0,0.0,5.7573,5.886,5.9039,5.9249,0.0,0.0,6.0176,6.0805,6.0416,5.9787,5.9159,0.0,0.0,0.0,0.0,0.0,0.0,0.0,0.0,0.0,0.0,0.0,0.0,0.0,0.0,0.0,0.0,0.0,0.0,0.0,0.0,0.0,0.0,0.0,0.0,0.0,0.0,0.0,0.0,0.0,0.0,0.0,0.0,0.0,0.0,0.0,0.0,0.0,0.0,0.0,0.0,0.0,0.0,0.0,0.0,0.0,0.0,0.0,0.0,0.0,0.0,0.0,0.0,0.0,4.4763,4.6697,4.6992,4.8168,5.021,4.9022,4.8584,4.9022,4.9452,4.895,0.0,0.0,0.0,0.0,0.0,0.0,0.0,0.0,0.0,0.0,0.0,0.0,0.0,0.0,0.0,0.0,0.0,0.0,0.0,0.0,0.0,0.0,0.0,0.0,0.0,0.0,0.0,0.0,4.6541,4.7865,4.9313,0.0,0.0,0.0,0.0,0.0,0.0,0.0,0.0,0.0,0.0,5.865,5.9578,6.0057,0.0,0.0,6.1313,6.1553,6.2211,6.1762,6.1224,6.0984,6.0595,0.0,0.0,0.0,0.0,0.0,0.0,0.0,0.0,0.0,0.0,0.0,0.0,0.0,0.0,0.0,0.0,0.0,0.0,0.0,0.0,0.0,0.0,0.0,0.0,0.0,0.0,0.0,0.0,0.0,0.0,0.0,0.0,0.0,0.0,0.0,0.0,0.0,0.0,0.0,0.0,0.0,0.0,0.0,0.0,0.0,0.0,0.0,0.0,0.0,0.0,0.0,0.0,4.565,4.7302,4.7614,4.8709,5.0585,4.971,4.9443,4.9815,5.0386,5.0191,0.0,0.0,0.0,0.0,0.0,0.0,0.0,0.0,0.0,0.0,0.0,0.0,0.0,0.0,0.0,0.0,0.0,0.0,0.0,0.0,0.0,0.0,0.0,0.0,0.0,0.0,0.0,0.0,4.8509,4.9908,5.0704,0.0,0.0,0.0,0.0,0.0,0.0,0.0,0.0,0.0,0.0,5.9398,6.0266,6.0984,6.1583,6.2032,6.2241,6.254,6.2989,6.269,6.2331,6.2121,0.0,0.0,0.0,0.0,0.0,0.0,0.0,0.0,0.0,0.0,0.0,0.0,0.0,0.0,0.0,0.0,0.0,0.0,0.0,0.0,0.0,0.0,0.0,0.0,0.0,0.0,0.0,0.0,0.0,0.0,3.4983,0.0,0.0,0.0,0.0,0.0,0.0,0.0,0.0,0.0,0.0,0.0,0.0,0.0,0.0,0.0,0.0,0.0,0.0,0.0,0.0,0.0,0.0,4.6648,4.7956,4.8164,4.9089,5.0733,4.9964,4.9698,5.0057,5.0455,5.0946,5.1447,0.0,0.0,0.0,0.0,0.0,0.0,0.0,0.0,0.0,0.0,0.0,0.0,0.0,0.0,0.0,0.0,0.0,0.0,0.0,0.0,0.0,0.0,0.0,0.0,0.0,0.0,4.8391,5.0097,5.1391,0.0,0.0,0.0,0.0,0.0,0.0,0.0,0.0,0.0,0.0,5.9099,5.9608,6.0924,6.1672,6.2151,6.2181,6.272,6.3109,6.3169,6.3139,6.2839,0.0,0.0,0.0,0.0,0.0,0.0,0.0,0.0,0.0,0.0,0.0,0.0,0.0,0.0,0.0,0.0,0.0,0.0,0.0,0.0,0.0,0.0,0.0,0.0,0.0,0.0,0.0,3.6538,3.6713,0.0,0.0,0.0,0.0,0.0,0.0,0.0,0.0,0.0,0.0,0.0,4.2514,4.2955,0.0,0.0,0.0,0.0,0.0,0.0,0.0,0.0,0.0,0.0,0.0,0.0,4.7138,4.8178,4.8716,4.9582,5.0733,5.0105,4.987,5.0135,5.0243,5.03,5.0307,0.0,0.0,0.0,0.0,0.0,0.0,0.0,0.0,0.0,0.0,0.0,0.0,0.0,0.0,0.0,0.0,0.0,0.0,0.0,0.0,0.0,0.0,0.0,0.0,0.0,5.005,0.0,0.0,0.0,0.0,0.0,0.0,0.0,0.0,0.0,0.0,0.0,5.877,5.9638,6.0535,6.1403,6.2301,6.3348,6.4216,0.0,0.0,0.0,0.0,0.0,0.0,0.0,0.0,0.0,0.0,0.0,0.0,0.0,0.0,6.2421,6.0475,6.0475,6.0894,6.1343,0.0,0.0,0.0,0.0,0.0,0.0,0.0,0.0,0.0,0.0,0.0,0.0,0.0,0.0,0.0,0.0,3.9173,0.0,0.0,0.0,0.0,0.0,0.0,0.0,0.0,4.2867,4.3272,4.3396,4.385,4.4293,0.0,4.4263,4.3448,0.0,0.0,0.0,0.0,0.0,0.0,0.0,0.0,4.7955,4.8925,4.9374,5.003,5.0875,5.0453,5.0265,5.0346,5.072,5.0642,5.0164,5.0601,5.0581,0.0,0.0,0.0,0.0,0.0,0.0,0.0,0.0,0.0,0.0,0.0,0.0,0.0,0.0,0.0,0.0,0.0,0.0,0.0,0.0,0.0,0.0,0.0,5.2453,0.0,0.0,0.0,0.0,0.0,0.0,0.0,0.0,0.0,5.8141,5.889,5.9877,6.0984,6.1882,6.2839,6.3947,0.0,0.0,0.0,0.0,0.0,0.0,0.0,6.7178,6.6729,6.6131,6.5473,6.4814,6.5084,6.5533,6.5981,0.0,0.0,6.3258,6.3169,6.3588,6.4006,6.4455,6.5024,6.5892,6.643,6.6939,0.0,0.0,0.0,0.0,0.0,0.0,0.0,0.0,4.1175,4.1587,0.0,4.2029,0.0,0.0,0.0,0.0,0.0,4.2777,0.0,0.0,4.4381,4.4735,4.4735,4.4735,4.4765,4.4765,4.4706,4.4706,4.4735,4.4086,0.0,0.0,0.0,0.0,0.0,0.0,4.8955,5.0106,5.0196,5.0554,5.1152,5.0934,5.0822,5.0834,5.1778,5.1915,5.111,5.2222,5.2238,5.0822,5.1207,0.0,0.0,0.0,0.0,0.0,0.0,0.0,0.0,0.0,0.0,0.0,0.0,0.0,0.0,0.0,0.0,0.0,0.0,0.0,0.0,5.3216,0.0,0.0,0.0,0.0,0.0,0.0,0.0,0.0,0.0,0.0,5.8441,5.9428,6.0894,6.281,0.0,0.0,0.0,0.0,6.6311,6.6969,6.7119,6.7178,6.7178,6.7717,6.7717,6.649,0.0,0.0,6.6221,6.7148,6.7956,6.8016,6.8525,6.8435,6.652,6.6101,6.6071,6.6131,6.7059,6.7956,6.8166,6.9034,7.0051,4.5137,0.0,0.0,0.0,0.0,4.3791,4.4317,4.5391,4.4128,4.3874,4.4294,4.3478,0.0,0.0,0.0,0.0,0.0,0.0,4.4317,4.462,4.4828,4.5238,4.5841,4.5841,4.6079,4.6539,4.6049,4.6079,4.6539,4.5913,4.5743,4.6049,0.0,0.0,0.0,0.0,4.9837,5.0196,5.0644,5.102,5.1229,5.1135,5.1202,5.1535,5.1679,5.165,5.1376,5.1729,5.1915,5.1874,5.1022,0.0,0.0,0.0,0.0,0.0,0.0,0.0,0.0,0.0,0.0,0.0,0.0,0.0,0.0,0.0,0.0,0.0,0.0,0.0,5.3456,5.4738,5.5637,0.0,0.0,0.0,0.0,0.0,0.0,0.0,0.0,0.0,6.0984,6.1672,6.2421,0.0,0.0,6.4994,6.649,6.7119,6.7657,6.8315,6.9602,0.0,6.9871,7.032,7.0649,7.026,6.9602,6.8914,6.8256,6.8465,6.8854,6.9303,6.9572,6.9632,6.9542,6.8734,6.8196,6.8226,6.8824,6.9692,7.059,7.1098,7.1517,4.7209,4.665,4.5849,4.5522,4.5493,4.5107,4.5446,4.6258,4.5327,4.4971,4.5108,4.4937,4.4669,4.4268,4.4659,0.0,0.0,0.0,4.5777,4.6499,4.6475,4.6739,4.7232,4.7232,4.7159,4.6947,4.6312,4.6494,4.7413,4.6401,4.6544,4.7665,0.0,0.0,4.8656,4.9433,4.9972,5.0196,5.0823,5.1229,5.1229,5.1229,5.1434,5.1947,5.207,5.2121,5.2053,5.2526,5.2546,5.2063,5.1856,5.1757,0.0,0.0,0.0,0.0,0.0,0.0,0.0,0.0,0.0,0.0,0.0,4.8594,0.0,0.0,0.0,0.0,5.2783,5.3803,5.4708,5.5876,0.0,0.0,0.0,0.0,0.0,0.0,0.0,6.0236,6.1792,6.2959,6.3228,6.4066,6.4545,6.4276,6.5144,6.6281,6.7597,0.0,6.9004,6.9662,7.0949,7.1757,7.1368,7.1846,7.2206,7.1936,7.1278,7.053,6.9901,6.9961,7.0201,7.032,7.035,7.047,7.0829,7.047,7.0141,7.0171,7.044,7.1068,7.2086,7.2295,7.2505,4.8835,4.8101,4.6232,4.5484,4.5544,4.5484,4.5544,4.5603,4.5514,4.5454,4.5537,4.6345,4.6713,4.6793,4.6793,0.0,4.7978,4.7007,4.7375,4.8794,4.8662,4.8609,4.8622,4.8653,4.802,4.6683,4.6097,4.6506,4.7669,4.6405,4.7042,4.9497,4.8347,4.7962,4.8446,4.9105,4.9703,5.0285,5.0853,5.1229,5.1229,5.1229,5.1558,5.2276,5.2875,5.3107,5.2951,5.411,5.3832,5.1896,5.3293,5.344,5.1876,0.0,0.0,0.0,0.0,0.0,0.0,0.0,0.0,0.0,0.0,0.0,0.0,0.0,0.0,0.0,5.4611,0.0,5.5783,5.6579,0.0,0.0,0.0,5.9428,6.0236,6.1433,6.2211,6.2301,0.0,0.0,6.5114,6.634,6.6939,6.634,6.6759,6.7627,6.8884,6.9602,7.029,7.0859,7.1607,7.2056,7.2146,7.2684,7.2894,7.2295,7.2056,7.1816,7.1218,7.1398,7.1577,7.1098,7.0949,7.0949,7.0949,7.1427,7.1906,7.1966,7.1966,7.2146,7.2804,7.2984,7.3223,4.8286,4.7519,4.701,4.713,4.7519,4.704,4.7399,4.8207,4.7249,4.683,4.6843,4.7191,4.7712,4.827,4.827,4.867,4.9331,4.9094,4.8874,4.8716,4.8686,4.8403,4.7927,4.8432,4.8513,4.8231,4.8577,4.8962,4.9268,4.9452,4.989,5.0524,5.0777,5.0494,4.9808,5.0421,5.084,5.0943,5.1139,5.1229,5.1229,5.1229,5.1768,5.2905,5.3114,5.3414,5.3853,5.4182,5.4122,5.3575,5.3288,5.3425,5.3959,5.3482,0.0,0.0,0.0,0.0,0.0,0.0,0.0,0.0,0.0,5.2191,5.2259,0.0,5.5189,0.0,5.6213,5.6751,5.6751,5.6952,0.0,0.0,5.9099,5.9967,6.2121,6.266,6.3228,6.4216,6.5473,6.634,6.652,6.7687,6.8465,6.8315,6.8435,6.8824,6.9632,7.029,7.0919,7.1607,7.2624,7.3402,7.3432,7.3971,7.4151,7.3522,7.3402,7.3193,7.2535,7.2116,7.1846,7.1637,7.1218,7.1128,7.1547,7.1787,7.2295,7.3103,7.3013,7.2864,7.3522,7.3672,7.4001,4.8324,4.7849,4.7452,4.7748,4.8364,4.7632,4.7728,4.8327,4.7608,4.7309,4.7322,4.7801,4.8715,4.977,4.9392,4.9885,5.0881,5.0158,5.0006,5.0338,4.9929,4.9576,4.9272,4.966,4.9668,4.9367,4.9751,5.0262,5.087,5.0938,5.1287,5.1957,5.1852,5.137,5.0439,5.1031,5.1364,5.141,5.0982,5.0734,5.078,5.1079,5.1858,5.3114,5.3174,5.3773,5.5029,5.5089,5.5089,5.5089,5.4818,5.4798,5.4976,5.4735,5.4981,0.0,0.0,0.0,0.0,0.0,0.0,0.0,0.0,0.0,0.0,0.0,5.6728,5.6585,5.6885,5.7334,5.7932,5.7992,5.865,6.0266,6.0685,6.1583,6.3288,6.4006,6.4784,6.5802,6.6789,6.7537,6.7867,6.8794,6.9423,6.9453,6.9931,7.032,7.041,7.0949,7.1577,7.2265,7.3223,7.4001,7.427,7.4629,7.4779,7.442,7.433,7.4121,7.3492,7.3043,7.2595,7.2026,7.1816,7.1787,7.1906,7.2415,7.3043,7.3612,7.3851,7.3941,7.424,7.4569,7.5078,4.8862,4.8697,4.7934,4.8019,4.8532,4.7794,4.7495,4.7624,4.7366,4.7382,4.7615,4.8488,4.9724,5.1156,5.0454,5.0957,5.2266,5.0805,5.0887,5.2205,5.1488,5.1197,5.128,5.1415,5.1095,5.055,5.0611,5.1327,5.253,5.1906,5.2291,5.3487,5.2524,5.1747,5.1421,5.1469,5.1467,5.1392,5.0608,5.0196,5.0196,5.096,5.1947,5.3114,5.3264,5.4192,5.6047,5.6128,5.6188,5.6286,5.6645,5.6376,5.5388,5.5867,5.6218,0.0,5.6368,0.0,0.0,0.0,0.0,0.0,0.0,0.0,0.0,5.7483,5.8022,5.7513,5.7543,5.8082,5.9279,5.9428,6.0236,6.2002,6.2899,6.3617,6.4306,6.5503,6.652,6.7178,6.7837,6.8465,6.9034,6.9692,7.0111,7.0171,7.1038,7.1577,7.1338,7.1757,7.2415,7.2984,7.3612,7.427,7.4689,7.4839,7.4869,7.4869,7.4839,7.4689,7.4121,7.3821,7.3373,7.2475,7.2445,7.2565,7.2176,7.3103,7.3821,7.3881,7.436,7.4809,7.5018,7.5407,7.5916,5.0229,4.9599,4.9367,4.9075,4.8584,4.8407,4.8708,4.9206,4.7892,4.7968,4.912,5.0008,5.0938,5.1874,5.1917,5.2089,5.2373,5.2053,5.1792,5.1479,5.1338,5.1272,5.1348,5.1912,5.2401,5.2821,5.3379,5.3808,5.4072,5.4481,5.4876,5.5122,5.4291,5.4422,5.5338,0.0,0.0,0.0,5.0034,5.0196,5.0226,5.1409,5.2396,5.3144,5.3713,0.0,5.6098,5.5658,5.5867,5.6825,5.6047,0.0,0.0,0.0,0.0,0.0,0.0,0.0,0.0,0.0,0.0,0.0,5.7543,5.7633,5.7004,5.8141,5.9099,5.9488,6.0027,6.0446,6.0715,6.1224,6.1882,6.281,6.3947,6.5114,6.6281,6.7119,6.7867,6.8525,6.9183,6.9632,6.9782,7.035,7.0709,7.0739,7.1398,7.2056,7.2445,7.3013,7.3522,7.3732,7.424,7.4689,7.4839,7.4869,7.4869,7.4869,7.4869,7.4809,7.4599,7.3791,7.3343,7.3313,7.2744,7.2505,7.3283,7.3732,7.3941,7.3911,7.442,7.5048,7.5587,7.5796,7.6215,5.0838,0.0,4.9582,4.926,0.0,4.8826,4.9377,5.0397,4.858,4.8641,5.0063,5.0985,5.1869,5.2695,5.2431,5.2543,5.287,5.2539,5.221,5.1879,5.2175,5.234,5.234,5.3102,5.3831,5.4494,5.4891,5.5222,5.5587,5.5984,5.615,5.6112,5.5266,5.5107,5.5464,5.2272,5.0031,4.885,4.9434,4.9912,5.0226,5.1528,5.2695,5.3653,0.0,0.0,0.0,0.0,0.0,0.0,0.0,0.0,0.0,0.0,0.0,5.7184,5.8052,5.8441,5.8141,5.8411,5.8441,5.8141,5.871,5.8949,5.859,5.9189,5.9877,6.0535,6.0924,6.1253,6.1583,6.2211,6.2839,6.3498,6.4994,6.6281,6.6939,6.7897,6.8734,6.9363,6.9752,7.0081,7.038,7.0679,7.0889,7.0949,7.1787,7.2505,7.2894,7.3492,7.3971,7.433,7.4599,7.4869,7.4869,7.4869,7.4869,7.4869,7.4869,7.4749,7.445,7.4121,7.3821,7.3552,7.3313,7.3552,7.3762,7.4151,7.436,7.439,7.4629,7.5108,7.5766,7.6125,7.6634,5.1062,5.0825,4.9673,4.948,4.9923,4.9381,4.9989,5.1303,0.0,0.0,0.0,5.1935,5.2805,5.3448,5.285,5.2908,5.3331,5.2837,5.2572,5.2605,5.3135,5.3566,5.3831,5.439,5.5052,5.5786,5.5819,5.6117,5.668,5.6564,5.6564,5.6603,5.5498,5.4542,5.3792,5.182,5.011,4.891,4.9344,4.9912,5.0601,5.1858,5.3084,5.4192,5.485,5.5508,5.6188,5.6645,5.7304,5.8082,5.8022,5.7992,5.8141,5.853,5.8501,5.8022,5.856,5.8949,5.8919,5.9039,5.9159,5.9279,5.9877,6.0266,6.0266,6.0386,6.0655,6.1224,6.1403,6.1672,6.2211,6.2989,6.3677,6.4306,6.6041,6.7238,6.7537,6.8465,6.9423,6.9991,7.0171,7.032,7.0799,7.0889,7.0919,7.1068,7.2026,7.3043,7.3283,7.3791,7.43,7.4719,7.4839,7.4869,7.4869,7.4869,7.4869,7.4869,7.4988,7.4809,7.433,7.451,7.439,7.3612,7.4121,7.436,7.418,7.436,7.4689,7.4689,7.4719,7.4899,7.5587,7.6215,7.6814,5.0907,5.0378,5.0735,5.0576,5.0029,5.0532,5.116,5.1853,5.2309,5.2235,5.1799,5.3334,5.4067,5.4194,5.4169,5.3886,5.34,5.3301,5.3268,0.0,5.3367,5.4059,5.5251,5.5383,5.5852,5.6514,5.6547,5.6581,5.6603,5.5908,5.5908,5.6348,5.4414,5.2934,5.2027,5.1554,5.118,5.078,5.09,5.1259,5.1947,5.3234,5.4012,5.4221,5.485,5.5508,5.6188,5.6308,5.6855,5.8052,5.7543,5.7513,5.8082,5.7693,5.7334,5.7274,5.7872,5.8261,5.8291,5.88,5.9368,5.9907,6.0595,6.0984,6.0984,6.1493,6.1852,6.1972,6.2421,6.2839,6.2989,6.4006,6.4934,6.5682,6.6969,6.8256,6.9303,6.9692,7.0051,7.0649,7.0769,7.0769,7.0859,7.0919,7.0919,7.1098,7.2086,7.3283,7.421,7.4659,7.4779,7.4839,7.4869,7.4869,7.4869,7.4899,7.4929,7.4869,7.5407,7.5527,7.4839,7.4869,7.4809,7.4599,7.436,7.427,7.454,7.43,7.418,7.4151,7.4121,7.436,7.4988,7.5617,7.6215,5.1713,5.1446,5.1744,5.1699,5.1339,5.206,5.2687,5.3357,5.4162,5.4215,5.3856,5.4535,5.514,5.5503,5.4737,5.4476,5.4556,5.4195,5.3997,5.4063,5.4427,5.492,5.5582,5.6017,5.6349,5.668,5.6179,5.5948,5.5868,5.5026,5.5067,5.5829,5.5131,5.4327,5.3452,5.3248,5.3132,5.2973,5.2154,5.2067,5.2725,5.3713,5.4371,5.473,5.5359,5.5688,5.5628,5.6038,5.6585,5.7543,5.7274,5.7573,5.856,5.8351,5.8171,5.8201,5.8471,5.865,5.865,5.9279,6.0086,6.1104,6.1463,6.1792,6.2151,6.2121,6.2241,6.26,6.2929,6.3228,6.3558,6.4455,6.5413,6.646,6.7747,6.8914,6.9812,7.032,7.059,7.0859,7.0919,7.0919,7.0919,7.0919,7.0919,7.1009,7.2056,7.3373,7.4689,7.4899,7.4899,7.4869,7.4869,7.4869,7.4899,7.5198,7.5407,7.5437,7.5976,7.6096,7.5587,7.5437,7.5288,7.4958,7.4599,7.439,7.445,7.442,7.427,7.3971,7.424,7.454,7.4869,7.5138,7.5557,5.2177,5.2177,5.2343,5.2572,5.2904,5.3599,5.4225,5.4787,5.5292,5.5457,5.5329,5.5515,5.6027,5.6536,5.5391,5.5103,5.5478,5.4986,5.4646,5.4529,5.5241,5.5572,5.5584,5.6144,5.6375,5.6297,5.5434,5.5026,5.487,5.4105,5.4082,5.4941,5.5581,5.5597,5.5082,5.4653,5.4552,5.4548,5.3453,5.3114,5.3623,5.4162,5.467,5.5179,5.5658,5.5718,5.5269,5.5957,5.6615,5.7064,5.7393,5.8022,5.9009,5.9099,5.9099,5.9099,5.9099,5.9159,5.9368,6.0086,6.0984,6.2002,6.2241,6.254,6.2959,6.263,6.251,6.2989,6.3199,6.3498,6.3977,6.4784,6.5712,6.6909,6.8046,6.9034,6.9871,7.041,7.0769,7.0859,7.0919,7.0919,7.0919,7.0919,7.1038,7.1517,7.2295,7.3432,7.4749,7.5108,7.5138,7.5258,7.5198,7.5138,7.5138,7.5677,7.6066,7.6125,7.6634,7.6664,7.6305,7.6096,7.5856,7.5288,7.4809,7.454,7.421,7.418,7.43,7.4121,7.439,7.4629,7.4839,7.4899,7.5018,5.1448,5.1514,5.2175,5.3135,5.4324,5.5052,5.5345,5.5396,5.5364,5.5296,5.5312,5.6179,5.6564,5.668,5.6465,5.6101,5.561,5.5516,5.5067,5.4489,5.521,5.5495,5.5385,5.5402,5.5434,5.5345,5.4527,5.4105,5.4062,5.3227,5.3093,5.3757,5.4437,5.5039,5.536,5.468,5.452,5.512,5.499,5.494,5.4999,5.5059,5.5119,5.5179,5.5239,5.5269,5.5239,5.6376,5.7034,5.7184,5.8231,5.8949,5.9099,5.9099,5.9099,5.9099,5.9129,5.9368,5.9997,6.1194,6.1942,6.2121,6.263,6.2989,6.3079,6.3019,6.2989,6.3169,6.3588,6.3917,6.4066,6.5144,6.6191,6.6969,6.7687,6.8555,6.9692,7.0021,7.029,7.0859,7.0919,7.0919,7.0919,7.0919,7.1398,7.2505,7.2834,7.3702,7.5407,7.5796,7.5976,7.6335,7.6185,7.5856,7.5886,7.6335,7.6694,7.6784,7.7293,7.7352,7.6993,7.6694,7.6544,7.5856,7.4809,7.433,7.436,7.4031,7.3672,7.43,7.436,7.424,7.4689,7.4929,7.5048,5.2804,5.3268,5.3997,5.4557,5.5025,5.5313,5.5165,5.4671,5.4566,5.4527,5.4569,5.4943,5.5393,5.5836,5.5868,5.5705,5.5443,5.5443,5.5212,5.4891,5.4729,5.5076,5.578,5.4896,5.4719,5.4985,5.3777,5.3152,5.3201,5.3186,5.3453,5.3988,5.4609,5.5066,5.5296,5.484,5.4788,5.5179,5.5209,5.5209,5.5209,5.5209,5.5209,5.5209,5.5209,5.5388,5.5777,5.6316,5.6915,5.7633,5.8261,5.871,5.9099,5.9099,5.9099,5.9129,5.9458,5.9967,6.0655,6.1583,6.2271,6.263,6.2929,6.3137,6.3166,6.3408,6.3617,6.3647,6.3857,6.4276,6.5054,6.5682,6.64,6.7358,6.7837,6.8495,6.9782,6.9961,7.0201,7.0799,7.0919,7.0919,7.0919,7.0919,7.1667,7.3043,7.3492,7.427,7.6066,7.6455,7.6544,7.6784,7.6904,7.6844,7.6604,7.6993,7.7322,7.7532,7.7951,7.813,7.7532,7.7023,7.6724,7.6455,7.5219,7.4501,7.4809,7.4569,7.424,7.454,7.4629,7.4501,7.4564,7.506,7.5437,5.4125,5.4821,5.532,5.545,5.528,5.5067,5.4611,5.3976,5.3719,5.3632,5.3589,5.3632,5.3945,5.4537,5.4787,5.4943,5.4943,5.4911,5.4915,5.4793,5.4432,5.4856,5.5643,5.4522,5.4122,5.4304,5.2959,5.2291,5.2566,5.3391,5.3927,5.425,5.4805,5.5137,5.517,5.5006,5.5006,5.5179,5.5209,5.5179,5.5108,5.5078,5.5078,5.5179,5.5209,5.5508,5.6188,5.6398,5.6944,5.8052,5.8291,5.859,5.9069,5.9099,5.9189,5.9398,5.9997,6.0655,6.1343,6.2002,6.257,6.3019,6.3137,6.3137,6.3169,6.3647,6.4066,6.4276,6.4455,6.5054,6.5772,6.6161,6.6729,6.7597,6.7687,6.8196,6.9213,6.9572,6.9931,7.053,7.0769,7.1009,7.1158,7.1427,7.2235,7.3762,7.418,7.4869,7.6574,7.7113,7.7143,7.7322,7.7801,7.7771,7.7293,7.7652,7.7981,7.816,7.8519,7.8489,7.7981,7.7311,7.6722,7.6413,7.5369,7.4733,7.4724,7.4674,7.4415,7.4206,7.4484,7.4931,7.4744,7.5498,7.5996,5.4887,5.5468,5.539,5.5288,5.5198,5.4401,5.4019,5.3719,5.302,5.2651,5.2651,5.2651,5.2695,5.2798,5.362,5.4019,5.4094,5.4082,5.404,5.3906,5.4473,5.4836,5.4638,5.3944,5.3636,5.3652,5.2334,5.1837,5.239,5.3541,5.4181,5.4251,5.484,5.517,5.5128,5.5078,5.5179,5.5128,5.5128,5.5027,5.4824,5.4803,5.4926,5.5158,5.5179,5.5508,5.6166,5.6735,5.7393,5.8112,5.871,5.9069,5.9099,5.9099,5.9368,5.9967,6.0655,6.1313,6.1972,6.26,6.3019,6.3079,6.3137,6.3137,6.3109,6.3707,6.4306,6.4904,6.5473,6.5951,6.6101,6.655,6.6879,6.7059,6.7089,6.7418,6.8046,6.8824,6.9333,7.0021,7.0709,7.1278,7.1816,7.2415,7.3253,7.433,7.4809,7.5527,7.7143,7.7711,7.7981,7.837,7.8579,7.8519,7.7981,7.816,7.8549,7.8567,7.8435,7.8507,7.7987,7.7426,7.6985,7.6266,7.5146,7.4532,7.4421,7.4214,7.3842,7.3981,7.4852,7.5209,7.5128,7.6085,7.6624,5.5276,5.5429,5.5304,5.4662,5.3589,5.324,5.2785,5.2154,5.1865,5.1711,5.1711,5.1681,5.1711,5.1757,5.2505,5.3161,5.3716,5.3748,5.394,5.4145,5.3989,5.431,5.5097,5.3949,5.3391,5.3235,5.2768,5.2815,5.3394,5.3834,5.4181,5.4437,5.442,5.4436,5.459,5.4436,5.4436,5.4641,5.4641,5.459,5.4487,5.4487,5.459,5.4955,5.4955,5.5534,5.6735,5.6974,5.7603,5.871,5.8979,5.9099,5.9099,5.9099,5.9398,6.0057,6.0745,6.1403,6.2061,6.269,6.3137,6.3137,6.3137,6.3137,6.3258,6.4006,6.4784,6.5144,6.6041,6.658,6.667,6.6879,6.6999,6.6999,6.6999,6.7238,6.7897,6.8585,6.9393,7.044,7.1457,7.2295,7.2475,7.2774,7.3432,7.4629,7.5258,7.6185,7.7412,7.813,7.8519,7.8627,7.8572,7.841,7.8519,7.8579,7.8717,7.847,7.8265,7.7882,7.7351,7.722,7.6809,7.647,7.5281,7.471,7.4798,7.4562,7.4021,7.4361,7.5205,7.5579,7.5567,7.6599,7.7181,5.5411,5.5239,5.4662,5.373,5.2606,5.2245,5.1803,5.1229,5.1229,5.1229,5.1259,5.1439,5.1558,5.1648,5.2217,5.2923,5.3584,5.3479,5.3675,5.4266,5.3669,5.4029,5.4843,5.395,5.3405,5.3405,5.3405,5.3674,5.4042,5.3971,5.4277,5.4773,5.4282,5.4097,5.4252,5.4097,5.4149,5.4252,5.4304,5.4304,5.42,5.4149,5.4282,5.4495,5.4724,5.5523,5.7012,5.7304,5.7932,5.8919,5.9099,5.9099,5.9129,5.9308,5.9727,6.0386,6.1044,6.1732,6.2331,6.2839,6.3137,6.3137,6.3137,6.3196,6.3408,6.4395,6.5024,6.5503,6.6281,6.6999,6.6999,6.6999,6.6999,6.6999,6.6999,6.7268,6.7897,6.8585,6.9662,7.1038,7.2385,7.3103,7.3253,7.3432,7.4091,7.5078,7.5796,7.6634,7.7622,7.834,7.8717,7.8644,7.8427,7.8282,7.8192,7.8222,7.8427,7.8282,7.8227,7.7725,7.7151,7.7019,7.6726,7.6461,7.5977,7.5435,7.5083,7.4848,7.485,7.5057,7.545,7.5929,7.6382,7.7038,7.7635,5.528,5.4911,5.3371,5.2695,5.2381,5.1635,5.1229,5.1229,5.1182,5.1212,5.1409,5.1887,5.2079,5.2336,5.2826,5.3405,5.3605,5.3228,5.3347,5.3883,5.3813,5.3959,5.4361,5.398,5.3763,5.3763,5.3763,5.3763,5.3882,5.4103,5.4377,5.4671,5.4385,5.4149,5.4252,5.42,5.4252,5.42,5.42,5.4097,5.3971,5.3919,5.3948,5.4088,5.4644,5.566,5.7019,5.77,5.8244,5.8925,5.9045,5.9099,5.9189,5.9668,6.0356,6.0984,6.1672,6.2361,6.2987,6.3049,6.3137,6.3137,6.3137,6.3318,6.3887,6.4575,6.5263,6.5862,6.652,6.6999,6.6999,6.6999,6.6999,6.6999,6.7059,6.7388,6.7926,6.8645,6.9782,7.1607,7.3073,7.3821,7.4031,7.43,7.4899,7.5497,7.6185,7.6814,7.7532,7.8119,7.8453,7.8354,7.8063,7.7946,7.777,7.7623,7.7873,7.8079,7.811,7.7887,7.7269,7.6945,7.6651,7.6387,7.5714,7.5203,7.4999,7.4824,7.4984,7.5203,7.5729,7.6359,7.69,7.75,7.8099,5.4579,5.3459,5.2843,5.22,5.1665,5.1293,5.1229,5.1182,5.1011,5.1327,5.181,5.1906,5.2167,5.2721,5.3317,5.3585,5.3541,5.3516,5.3781,5.4082,5.4162,5.42,5.4267,5.42,5.4162,5.4073,5.3719,5.3778,5.4082,5.4061,5.4045,5.4126,5.3919,5.3762,5.3762,5.3762,5.3762,5.3762,5.3762,5.371,5.3605,5.3605,5.3914,5.4568,5.5235,5.6118,5.7113,5.735,5.7764,5.844,5.8719,5.8912,5.914,5.9563,6.022,6.1018,6.1732,6.2391,6.2959,6.3079,6.3079,6.3079,6.3079,6.3378,6.3947,6.4665,6.5323,6.5981,6.661,6.6999,6.6999,6.6999,6.6999,6.6999,6.7388,6.7717,6.8286,6.9782,7.1308,7.2475,7.3762,7.448,7.4569,7.4839,7.4958,7.5228,7.5826,7.6455,7.6983,7.7527,7.7878,7.809,7.7784,7.7579,7.7431,7.74,7.7547,7.7725,7.7886,7.7942,7.7337,7.6795,7.6529,7.6163,7.5491,7.5185,7.4982,7.504,7.5272,7.5666,7.6312,7.6828,7.7255,7.7666,7.8077,5.3644,5.2606,5.22,5.1727,5.1229,5.1229,5.1379,5.1511,5.1399,5.1804,5.2468,5.2554,5.2783,5.3228,5.3722,5.3816,5.362,5.3795,5.3971,5.3993,5.4097,5.4097,5.4045,5.4097,5.4045,5.3987,5.3715,5.3767,5.4149,5.3919,5.3815,5.3867,5.3605,5.35,5.35,5.35,5.35,5.35,5.35,5.35,5.3559,5.3762,5.4134,5.4759,5.56,5.6351,5.6925,5.713,5.7618,5.8246,5.8609,5.8838,5.916,5.9618,6.0271,6.1038,6.1719,6.2372,6.2846,6.2905,6.2905,6.2935,6.323,6.359,6.4099,6.4785,6.5592,6.6128,6.6668,6.6999,6.6999,6.6999,6.7089,6.7358,6.7717,6.8286,6.9064,7.0919,7.2415,7.3283,7.421,7.4749,7.4869,7.4869,7.4869,7.4958,7.5467,7.5807,7.6334,7.6807,7.7246,7.7489,7.7358,7.7195,7.7135,7.7145,7.7211,7.7345,7.7479,7.7549,7.7357,7.6671,7.6247,7.5869,7.533,7.5563,7.5417,7.5679,7.594,7.6467,7.6762,7.6927,7.7136,7.7417,7.7799,5.2606,5.2426,5.1572,5.1276,5.1229,5.1289,5.1648,5.2097,5.2151,5.2539,5.3166,5.3397,5.3653,5.3841,5.4082,5.4061,5.389,5.3808,5.3762,5.3658,5.3762,5.3762,5.3658,5.3815,5.3762,5.3605,5.3704,5.3808,5.3867,5.3658,5.3605,5.3815,5.3605,5.35,5.35,5.35,5.35,5.35,5.3559,5.3646,5.3675,5.4226,5.4633,5.4749,5.5765,5.6459,5.6633,5.7067,5.7778,5.85,5.85,5.8686,5.9224,5.9816,6.0406,6.1054,6.1733,6.2174,6.2468,6.2556,6.2556,6.2644,6.3325,6.401,6.4186,6.5081,6.5857,6.6298,6.6661,6.6876,6.6876,6.6876,6.7175,6.7834,6.8283,6.9153,7.0709,7.2116,7.3103,7.3762,7.442,7.4869,7.4869,7.4869,7.4869,7.489,7.5338,7.5429,7.5565,7.6035,7.6487,7.6696,7.6813,7.6999,7.707,7.7228,7.7322,7.7613,7.7572,7.7351,7.7246,7.6666,7.5882,7.5504,7.5563,7.5795,7.5911,7.6027,7.6201,7.6479,7.6612,7.6762,7.6911,7.7209,7.7579,5.223,5.1572,5.1293,5.1229,5.1289,5.1708,5.2037,5.2229,5.2318,5.2882,5.3466,5.3301,5.3502,5.3833,5.3957,5.3867,5.3658,5.3605,5.3553,5.35,5.3553,5.3582,5.35,5.3553,5.3553,5.35,5.3553,5.3605,5.3605,5.35,5.3553,5.3605,5.3553,5.353,5.35,5.3559,5.35,5.3588,5.4052,5.4226,5.4342,5.4865,5.5416,5.591,5.6229,5.6636,5.6984,5.744,5.7725,5.7948,5.7781,5.8185,5.9114,5.9618,6.0207,6.1056,6.1674,6.2116,6.2175,6.2234,6.2234,6.2293,6.3002,6.3564,6.4093,6.4835,6.5485,6.5955,6.6257,6.6319,6.6257,6.6379,6.679,6.7889,6.9163,7.0405,7.1482,7.2774,7.3732,7.3941,7.451,7.4809,7.4869,7.4869,7.4731,7.4555,7.4664,7.4793,7.4857,7.5193,7.5712,7.6198,7.6473,7.6833,7.709,7.7322,7.7537,7.7943,7.7845,7.7351,7.713,7.6753,7.5824,7.5011,7.5795,7.6172,7.6027,7.5998,7.623,7.6538,7.6538,7.6612,7.6941,7.7164,7.7505,5.1711,5.1229,5.1387,5.1523,5.1661,5.2096,5.2513,5.2811,5.2852,5.3234,5.3757,5.3568,5.3568,5.389,5.3815,5.3658,5.35,5.35,5.35,5.35,5.35,5.35,5.35,5.35,5.35,5.35,5.35,5.35,5.35,5.35,5.35,5.35,5.35,5.3646,5.3965,5.3936,5.4081,5.4342,5.472,5.4894,5.4923,5.5503,5.5939,5.6432,5.6607,5.6984,5.733,5.7472,5.7584,5.7642,5.779,5.8313,5.9126,5.9712,6.0297,6.1116,6.1526,6.1761,6.185,6.185,6.191,6.2115,6.2822,6.3438,6.3936,6.4673,6.5654,6.5731,6.5945,6.6007,6.6125,6.6479,6.7275,6.8372,7.0117,7.1384,7.18,7.2752,7.3533,7.4027,7.4424,7.4663,7.4663,7.4663,7.4456,7.4179,7.4139,7.4137,7.4121,7.4512,7.4969,7.5553,7.6076,7.6508,7.7043,7.7362,7.742,7.7827,7.7566,7.713,7.6869,7.6608,7.6056,7.5504,7.6085,7.6479,7.623,7.6143,7.6363,7.6538,7.6538,7.6538,7.6762,7.6941,7.7283,5.1272,5.1285,5.175,5.2018,5.2204,5.2438,5.292,5.3574,5.347,5.3722,5.4053,5.3942,5.3756,5.3867,5.3605,5.35,5.35,5.35,5.35,5.35,5.3448,5.3395,5.3102,5.3395,5.3448,5.35,5.35,5.35,5.35,5.35,5.35,5.3559,5.3588,5.3936,5.4342,5.4517,5.4894,5.5213,5.5416,5.5503,5.5649,5.6142,5.652,5.6636,5.6984,5.7216,5.7303,5.7332,5.7332,5.7448,5.8198,5.8752,5.9277,5.9858,6.0467,6.1021,6.1255,6.1344,6.1494,6.1554,6.1554,6.1818,6.2994,6.3757,6.3622,6.4656,6.5605,6.5475,6.5756,6.5815,6.6172,6.7054,6.8024,6.887,7.0561,7.162,7.1953,7.2424,7.328,7.406,7.4248,7.4248,7.4248,7.4248,7.411,7.3761,7.372,7.3686,7.3826,7.4225,7.4664,7.5042,7.5666,7.623,7.6869,7.7478,7.7449,7.7478,7.7043,7.6666,7.6462,7.623,7.6114,7.6114,7.6346,7.6538,7.6479,7.6479,7.6538,7.6538,7.6538,7.6538,7.6538,7.6612,7.6911,5.1864,5.1702,5.2337,5.2506,5.2477,5.2939,5.3322,5.355,5.3715,5.3847,5.389,5.371,5.3605,5.3605,5.3448,5.35,5.3395,5.3343,5.35,5.35,5.35,5.289,5.2487,5.289,5.3395,5.3395,5.3448,5.3448,5.3448,5.329,5.3448,5.3453,5.3835,5.4371,5.4546,5.5039,5.5242,5.5503,5.591,5.6145,5.6177,5.6723,5.7071,5.7071,5.7245,5.7303,5.7303,5.7303,5.7565,5.7971,5.8348,5.8812,5.9335,5.9916,6.0555,6.1019,6.1193,6.1253,6.1313,6.1284,6.1313,6.1548,6.257,6.3295,6.3258,6.4396,6.5163,6.5094,6.5187,6.5489,6.595,6.7145,6.8107,6.9106,7.0565,7.179,7.1907,7.2794,7.3555,7.3772,7.393,7.3901,7.3901,7.3901,7.3691,7.3439,7.3416,7.3391,7.3686,7.4067,7.4503,7.4982,7.5475,7.623,7.7101,7.7507,7.7333,7.7188,7.6753,7.6538,7.6259,7.6085,7.6027,7.6172,7.6404,7.6538,7.6538,7.6538,7.6538,7.6538,7.6538,7.6538,7.6538,7.6538,7.6687,5.218,5.2122,5.2614,5.2859,5.2927,5.3312,5.3524,5.3635,5.3639,5.371,5.371,5.3553,5.35,5.3448,5.2943,5.2648,5.2487,5.2056,5.1757,5.1757,5.1757,5.1429,5.1072,5.1484,5.2056,5.2487,5.2648,5.2648,5.2541,5.2218,5.2002,5.2652,5.3334,5.4118,5.4927,5.5507,5.6026,5.6345,5.6607,5.6615,5.6136,5.6819,5.7303,5.7303,5.7303,5.7303,5.7303,5.7652,5.7942,5.8348,5.8842,5.9306,5.9742,6.0293,6.0816,6.1077,6.1193,6.1193,6.1193,6.1193,6.1338,6.16,6.2558,6.3109,6.3603,6.4473,6.4909,6.4996,6.5025,6.5228,6.5896,6.7115,6.816,6.9321,7.0686,7.1731,7.215,7.2782,7.334,7.341,7.351,7.348,7.348,7.348,7.3369,7.3115,7.344,7.3514,7.3689,7.4097,7.4765,7.5214,7.5621,7.6288,7.7275,7.7537,7.7217,7.6985,7.6637,7.6567,7.645,7.6201,7.6056,7.623,7.6404,7.6538,7.6538,7.6538,7.6538,7.6538,7.6538,7.6538,7.6538,7.6538,7.6837,5.2514,5.2523,5.2887,5.3202,5.3422,5.3477,5.3629,5.3785,5.3605,5.35,5.35,5.35,5.3343,5.2996,5.219,5.1674,5.1182,5.0629,5.0294,5.0294,5.0294,5.0014,4.9845,5.007,5.0462,5.1182,5.1347,5.1401,5.1127,5.0601,5.085,5.1543,5.2212,5.3191,5.4707,5.556,5.5822,5.608,5.6137,5.5907,5.5269,5.5992,5.6366,5.6366,5.6366,5.6451,5.668,5.7254,5.7888,5.8089,5.9185,5.9704,5.9961,6.0756,6.1193,6.1193,6.1193,6.1193,6.1193,6.1222,6.1454,6.2064,6.2703,6.337,6.398,6.4532,6.4909,6.4996,6.5054,6.5315,6.6041,6.7347,6.8596,6.9786,7.1063,7.1963,7.2456,7.2631,7.2844,7.2986,7.3128,7.3128,7.3128,7.3128,7.2974,7.2905,7.3327,7.3763,7.3966,7.4285,7.5011,7.5534,7.594,7.6114,7.6985,7.7537,7.7188,7.6811,7.6491,7.6567,7.6538,7.6421,7.623,7.6259,7.6375,7.645,7.6479,7.6538,7.6538,7.6538,7.6538,7.6538,7.6538,7.6538,7.6911,5.3061,5.2836,5.348,5.3669,5.3512,5.3471,5.35,5.3553,5.35,5.353,5.3448,5.3448,5.2837,5.2082,5.1866,5.1127,5.0126,4.9562,4.9562,4.9619,4.9562,4.9247,4.8616,4.9076,4.9335,4.9106,4.9616,5.0096,5.0237,5.0041,5.0084,5.0833,5.152,5.241,5.3134,5.3649,5.4335,5.4592,5.456,5.4263,5.4024,5.4084,5.4442,5.4469,5.4616,5.4745,5.5225,5.6073,5.6637,5.661,5.7718,5.8048,5.8258,5.9806,6.0802,6.0984,6.0984,6.0923,6.1133,6.1251,6.1513,6.2064,6.279,6.3399,6.4038,6.459,6.4938,6.4996,6.5112,6.546,6.6622,6.787,6.9147,7.0424,7.1557,7.2398,7.2573,7.2631,7.2631,7.2773,7.2773,7.2773,7.2802,7.299,7.3122,7.3341,7.3763,7.4372,7.4808,7.5098,7.5563,7.5998,7.6346,7.6404,7.6608,7.7072,7.7159,7.6753,7.6538,7.6538,7.6538,7.6508,7.6404,7.6375,7.6259,7.6143,7.623,7.6479,7.6538,7.6538,7.6538,7.6538,7.6538,7.6538,7.6687,5.3347,5.3221,5.3594,5.3605,5.35,5.35,5.35,5.35,5.35,5.3102,5.2701,5.2541,5.192,5.0851,5.007,4.9164,4.8326,4.8061,4.8061,4.8061,4.8003,4.7828,4.7205,4.7886,4.7652,4.7519,4.8028,4.889,4.9239,4.8682,4.9206,5.0174,5.0877,5.1603,5.2463,5.3218,5.3396,5.3423,5.3362,5.3059,5.2508,5.2535,5.2719,5.3383,5.3748,5.4046,5.4467,5.5545,5.617,5.6314,5.7012,5.725,5.7442,5.806,5.9397,5.992,6.0104,6.047,6.1099,6.1454,6.1948,6.2587,6.3196,6.3835,6.4386,6.4822,6.4996,6.5054,6.5402,6.5838,6.6796,6.8334,6.9641,7.0657,7.1847,7.2485,7.2631,7.2631,7.2631,7.2631,7.2631,7.2731,7.2718,7.2993,7.324,7.3676,7.4198,7.4837,7.5504,7.5795,7.6056,7.6201,7.6538,7.6538,7.6538,7.6724,7.6898,7.655,7.6508,7.6508,7.6421,7.6259,7.6346,7.6404,7.623,7.6085,7.6201,7.6538,7.6538,7.6538,7.6538,7.6538,7.6538,7.6612,7.6762,5.35,5.35,5.35,5.35,5.35,5.35,5.3343,5.3184,5.3102,5.238,5.1429,5.1292,5.0685,4.9448,4.8326,4.7265,4.6301,4.6421,4.6481,4.6541,4.6541,4.6361,4.6326,4.6451,4.6648,4.6929,4.7273,4.7668,4.818,4.7911,4.8355,4.9245,5.0156,5.0847,5.1705,5.2077,5.2666,5.2719,5.2719,5.2103,5.1549,5.1428,5.192,5.2943,5.3459,5.3627,5.3784,5.4878,5.5323,5.5542,5.5965,5.6455,5.6195,5.6129,5.6844,5.8024,5.8467,5.9307,6.0095,6.12,6.1685,6.2256,6.3444,6.4236,6.4764,6.4938,6.4996,6.5112,6.5548,6.6128,6.697,6.8625,6.9873,7.0773,7.1789,7.2631,7.2631,7.2631,7.2631,7.2631,7.2631,7.266,7.2718,7.3153,7.3501,7.4082,7.4605,7.5214,7.5853,7.6114,7.6392,7.645,7.6538,7.6538,7.6538,7.6538,7.6462,7.6172,7.623,7.6375,7.6201,7.6027,7.6201,7.6508,7.6479,7.6392,7.6508,7.6538,7.6538,7.6538,7.6538,7.6538,7.6538,7.6538,7.6612,5.35,5.35,5.35,5.35,5.35,5.3448,5.2837,5.2028,5.1974,5.1182,5.0126,5.0097,4.9448,4.8268,4.7146,4.6481,4.6301,4.6326,4.6326,4.6326,4.6376,4.6401,4.6426,4.6792,4.7004,4.7129,4.7581,4.7506,4.7763,4.7806,4.8171,4.8964,4.9292,4.9406,5.0294,5.0549,5.0014,5.0142,5.0232,5.0332,5.0634,5.1089,5.1423,5.1631,5.1889,5.2159,5.273,5.3751,5.4169,5.3698,5.4675,5.4552,5.3632,5.3384,5.4148,5.5393,5.6482,5.7322,5.8035,5.9451,6.0667,6.1508,6.2743,6.4046,6.4573,6.4775,6.4775,6.5025,6.5577,6.6186,6.7028,6.8625,6.9815,7.0802,7.1702,7.234,7.2544,7.2631,7.2631,7.2631,7.2631,7.2689,7.2747,7.3269,7.3821,7.443,7.504,7.565,7.6085,7.6421,7.6538,7.6538,7.6538,7.6538,7.6538,7.6538,7.6288,7.594,7.6114,7.6346,7.6201,7.6114,7.6288,7.6538,7.6538,7.6538,7.6538,7.6538,7.6538,7.6538,7.6538,7.6538,7.6538,7.6538,7.6538,5.35,5.35,5.35,5.35,5.3395,5.2783,5.219,5.162,5.0962,5.0014,4.9049,4.8877,4.821,4.7146,4.6481,4.6301,4.6326,4.6326,4.6326,4.6451,4.6602,4.6778,4.6928,4.728,4.7556,4.7645,4.8058,4.8335,4.8184,4.8284,4.8686,4.9138,4.9213,4.9403,4.959,4.959,4.959,4.9755,4.9956,5.0167,5.0519,5.0946,5.1297,5.1322,5.1574,5.1875,5.2279,5.2835,5.3258,5.2973,5.3632,5.3563,5.3067,5.2929,5.3316,5.3725,5.4592,5.584,5.7466,5.8646,5.9521,6.0193,6.1462,6.2389,6.3366,6.3814,6.4296,6.4996,6.5577,6.6186,6.6941,6.8305,6.9292,7.0308,7.1382,7.1847,7.2224,7.2544,7.2631,7.2631,7.266,7.2776,7.3008,7.3647,7.4169,7.4634,7.5301,7.5998,7.6288,7.645,7.6538,7.6538,7.6538,7.6538,7.6538,7.6538,7.645,7.6143,7.6201,7.6346,7.6317,7.6317,7.6479,7.6538,7.6538,7.6538,7.6538,7.6538,7.6538,7.6538,7.6538,7.6538,7.6538,7.6538,7.6612,5.3343,5.3049,5.3395,5.3343,5.2996,5.2082,5.1292,5.0685,4.9845,4.8789,4.786,4.7652,4.7146,4.6481,4.6301,4.6326,4.6326,4.6326,4.6426,4.6627,4.6842,4.7118,4.727,4.7646,4.8008,4.8033,4.8521,4.8848,4.8937,4.9012,4.9188,4.959,4.9515,4.9565,4.959,4.959,4.959,4.964,5.0117,5.0343,5.0544,5.1147,5.1423,5.1674,5.195,5.2302,5.2377,5.2628,5.2904,5.2929,5.2998,5.2998,5.2861,5.2929,5.2929,5.3211,5.3721,5.4817,5.6457,5.7717,5.8536,5.925,6.0145,6.1286,6.2081,6.2442,6.3066,6.4232,6.5419,6.6121,6.697,6.8073,6.906,6.9931,7.0802,7.1237,7.1673,7.1992,7.2398,7.2631,7.2718,7.3008,7.3385,7.4053,7.4547,7.4895,7.5534,7.6392,7.6538,7.6538,7.6538,7.6538,7.6508,7.6421,7.6143,7.6172,7.6172,7.623,7.6259,7.623,7.6114,7.6259,7.6508,7.6538,7.6538,7.6538,7.6538,7.6538,7.6538,7.6538,7.6538,7.6538,7.6538,7.6538,7.6538,5.2837,5.192,5.2996,5.2783,5.1783,5.1729,5.0406,4.8705,4.8358,4.7593,4.6695,4.6481,4.6481,4.6301,4.6326,4.6326,4.6351,4.6326,4.6531,4.6831,4.7118,4.7221,4.7495,4.788,4.8291,4.8302,4.8739,4.9092,4.9361,4.9196,4.9425,4.959,4.9525,4.959,4.959,4.959,4.959,4.9715,5.0142,5.0393,5.0695,5.1297,5.19,5.2076,5.2503,5.2854,5.2854,5.2836,5.2861,5.2861,5.2861,5.2861,5.2792,5.2792,5.2792,5.2823,5.3393,5.4309,5.5318,5.6591,5.7494,5.8243,5.9115,6.0139,6.0756,6.2042,6.2707,6.3028,6.4365,6.5774,6.6772,6.7957,6.8712,6.9583,7.025,7.0744,7.115,7.1469,7.1905,7.2427,7.2631,7.266,7.3124,7.3676,7.4634,7.504,7.5708,7.6538,7.6538,7.6538,7.6538,7.6508,7.6404,7.6172,7.5679,7.565,7.5766,7.5824,7.5882,7.5853,7.5795,7.6056,7.6538,7.6538,7.6538,7.6538,7.6538,7.6538,7.6538,7.6538,7.6538,7.6538,7.6538,7.6538,7.6538,5.1017,5.0629,5.1072,5.1044,5.0518,4.9788,4.8992,4.8035,4.7324,4.6815,4.6326,4.6326,4.6326,4.6326,4.6291,4.6381,4.6473,4.6498,4.6724,4.6985,4.7293,4.7478,4.7809,4.8105,4.8475,4.85,4.8698,4.8837,4.8942,4.9032,4.8967,4.9032,4.9332,4.9525,4.959,4.959,4.959,4.9741,5.0092,5.0393,5.0569,5.1122,5.1749,5.2126,5.2226,5.2628,5.2829,5.2836,5.2861,5.2861,5.2836,5.2698,5.2629,5.256,5.2466,5.2476,5.3168,5.3832,5.4252,5.5467,5.6326,5.678,5.7461,5.8276,5.9122,5.9931,6.0661,6.1519,6.2998,6.4415,6.5535,6.6787,6.7899,6.8944,6.9699,7.0192,7.0599,7.0918,7.1237,7.1702,7.176,7.1789,7.2427,7.3124,7.4198,7.5185,7.5911,7.6479,7.6363,7.6305,7.6218,7.6056,7.5969,7.5882,7.5446,7.5388,7.5388,7.5475,7.5563,7.5737,7.5882,7.6143,7.6538,7.6538,7.6538,7.6538,7.6538,7.6538,7.6538,7.6538,7.6538,7.6538,7.6538,7.6538,7.6538,4.9702,4.9392,4.9362,4.9362,4.9221,4.8442,4.786,4.7416,4.6695,4.6326,4.6301,4.618,4.6245,4.632,4.6273,4.645,4.6638,4.6724,4.6858,4.7189,4.7494,4.7749,4.7954,4.811,4.8371,4.8445,4.8445,4.8445,4.8641,4.8576,4.8641,4.8772,4.9032,4.9227,4.9461,4.9525,4.959,4.9715,4.9916,5.0167,5.0218,5.072,5.1055,5.1532,5.1807,5.2209,5.2466,5.2548,5.2723,5.2579,5.2435,5.2272,5.2159,5.2114,5.1951,5.2276,5.2795,5.3576,5.3846,5.4902,5.5742,5.6312,5.6387,5.6968,5.7446,5.8063,5.9236,5.9862,6.1288,6.2811,6.4255,6.5763,6.7266,6.8373,6.9079,6.9612,6.9989,7.0308,7.0599,7.0918,7.1121,7.1615,7.2427,7.3211,7.3966,7.4808,7.5127,7.5504,7.5504,7.5504,7.5563,7.5475,7.5359,7.5272,7.5185,7.5098,7.5098,7.5475,7.565,7.5998,7.6201,7.6479,7.6538,7.6538,7.6538,7.6538,7.6538,7.6538,7.6538,7.6538,7.6538,7.6538,7.6538,7.6538,7.6538,4.9106,4.8152,4.8152,4.8152,4.8152,4.8094,4.7416,4.6576,4.6301,4.6266,4.6205,4.5988,4.6091,4.6352,4.6168,4.6365,4.656,4.6732,4.69,4.7228,4.7409,4.7686,4.7824,4.7953,4.8026,4.8026,4.8026,4.8182,4.8445,4.8379,4.8445,4.8445,4.8576,4.8837,4.9137,4.9396,4.959,4.9615,4.9601,4.9561,4.9686,5.0022,5.0165,5.0473,5.1063,5.1512,5.165,5.1924,5.2029,5.2128,5.1649,5.1585,5.1792,5.1472,5.1427,5.1775,5.2337,5.2703,5.2897,5.4954,5.5649,5.5922,5.5801,5.6194,5.6558,5.7303,5.8089,5.8347,5.9734,6.1795,6.3402,6.5001,6.6514,6.7688,6.8421,6.9118,6.9495,6.967,6.9931,7.0163,7.1034,7.1876,7.2689,7.3414,7.3937,7.4401,7.4488,7.4634,7.4779,7.4924,7.504,7.504,7.4953,7.4895,7.4866,7.475,7.4837,7.5272,7.5737,7.6114,7.6392,7.6479,7.6538,7.6538,7.6538,7.6538,7.6538,7.6538,7.6538,7.6538,7.6538,7.6538,7.6538,7.6538,7.6538,4.7265,4.6934,4.6909,4.6934,4.6934,4.6934,4.6636,4.6301,4.6059,4.5939,4.5978,4.5982,4.5822,4.5835,4.5994,4.6078,4.6061,4.6036,4.6241,4.652,4.6973,4.7012,4.7237,4.7551,4.7696,4.7696,4.7696,4.7762,4.7852,4.7984,4.7894,4.7894,4.8182,4.842,4.8706,4.8902,4.8902,4.8902,4.8927,4.8927,4.8992,4.919,4.9347,4.9512,5.0206,5.0603,5.0765,5.1042,5.1314,5.1536,5.1058,5.1117,5.1324,5.1104,5.1087,5.1333,5.1722,5.2541,5.2954,5.4052,5.4421,5.4815,5.5212,5.5385,5.5533,5.5754,5.6241,5.6899,5.8304,6.004,6.1274,6.4097,6.5903,6.6923,6.7805,6.8615,6.9089,6.9118,6.9234,6.9437,7.0018,7.1092,7.2021,7.2718,7.3327,7.3792,7.3908,7.4227,7.443,7.4547,7.4692,7.4692,7.4634,7.4576,7.4547,7.475,7.504,7.5534,7.594,7.6392,7.6508,7.6538,7.6538,7.6538,7.6538,7.6538,7.6538,7.6538,7.6538,7.6538,7.6538,7.6538,7.6538,7.6538,7.6538,4.6326,4.6301,4.61,4.6024,4.6024,4.6024,4.5864,4.562,4.5505,4.5459,4.5352,4.5404,4.5465,4.5428,4.5573,4.6046,4.5939,4.6036,4.6021,4.6271,4.6752,4.6872,4.6968,4.7209,4.7515,4.7497,4.7497,4.7497,4.7563,4.7497,4.7563,4.763,4.7696,4.7984,4.8248,4.8379,4.8641,4.8641,4.8706,4.8641,4.8666,4.8715,4.8748,4.9026,4.9394,4.9878,5.013,5.0357,5.0631,5.0876,5.0881,5.077,5.0901,5.0855,5.0763,5.0956,5.1198,5.187,5.2278,5.262,5.296,5.3204,5.4084,5.4697,5.482,5.5115,5.5287,5.5879,5.7038,5.8474,6.0184,6.3183,6.4634,6.5654,6.7069,6.7913,6.8721,6.875,6.8915,6.906,6.9466,7.0424,7.1382,7.1847,7.2485,7.2921,7.3298,7.3676,7.3966,7.3995,7.4111,7.414,7.4314,7.4372,7.4634,7.5069,7.5388,7.5766,7.6114,7.6508,7.6538,7.6538,7.6538,7.6538,7.6538,7.6538,7.6538,7.6538,7.6538,7.6538,7.6538,7.6538,7.6538,7.6538,7.6538,4.6301,4.62,4.5698,4.5497,4.5472,4.5472,4.4994,4.4302,4.4739,4.4784,4.4519,4.4329,4.4657,4.5324,4.5242,4.5589,4.6119,4.6287,4.6295,4.6559,4.6776,4.6824,4.6968,4.7233,4.7449,4.7497,4.7497,4.7497,4.7497,4.7497,4.7497,4.7593,4.7732,4.7871,4.8094,4.8433,4.8648,4.8558,4.8509,4.8582,4.868,4.8673,4.8638,4.884,4.9298,4.9664,4.9918,5.0239,5.0725,5.0777,5.0398,5.0451,5.0335,5.0167,5.0359,5.0551,5.0744,5.0887,5.1054,5.1512,5.1657,5.2091,5.3156,5.3838,5.4255,5.4524,5.4745,5.5163,5.6179,5.7668,5.9407,6.1106,6.281,6.4406,6.6174,6.7207,6.8256,6.8625,6.876,6.906,6.9466,7.0279,7.1295,7.1847,7.2108,7.2544,7.295,7.295,7.3182,7.3124,7.324,7.3472,7.3705,7.414,7.4605,7.533,7.5737,7.6114,7.6305,7.6538,7.6538,7.6538,7.6538,7.6538,7.6538,7.6538,7.6538,7.6538,7.6538,7.6538,7.6538,7.6538,7.6538,7.6538,7.6538,4.6075,4.5723,4.5547,4.5246,4.4836,4.4661,4.4444,4.4218,4.4274,4.4255,4.4159,4.4594,4.4663,4.4674,4.4948,4.5092,4.5005,4.5005,4.5221,4.5694,4.6367,4.6511,4.6824,4.7185,4.7425,4.7497,4.7497,4.7521,4.7521,4.7521,4.781,4.8002,4.805,4.8243,4.8503,4.8807,4.87,4.8597,4.8525,4.8646,4.884,4.8888,4.8778,4.9039,4.9208,4.9499,4.9624,4.9724,5.0087,5.0186,5.0044,5.0143,5.06,5.0527,5.0624,5.0648,5.072,5.072,5.0672,5.0479,5.0672,5.1297,5.2115,5.2647,5.3253,5.3884,5.4298,5.4814,5.5577,5.7099,5.8352,5.991,6.152,6.3138,6.4824,6.6202,6.7207,6.809,6.8324,6.8973,6.9379,7.0192,7.1208,7.1673,7.1963,7.2369,7.2631,7.2631,7.2631,7.2631,7.2863,7.3153,7.3676,7.4285,7.504,7.5766,7.6085,7.645,7.6508,7.6538,7.6538,7.6538,7.6538,7.6538,7.6538,7.6538,7.6538,7.6538,7.6538,7.6538,7.6538,7.6538,7.6538,7.6538,7.6538,4.5799,4.5447,4.4995,4.4435,4.3836,4.3581,4.3505,4.3487,4.3633,4.371,4.382,4.4216,4.4381,4.4381,4.4597,4.4717,4.478,4.4813,4.4957,4.5245,4.5862,4.6175,4.6631,4.7112,4.7425,4.7497,4.7545,4.7642,4.7762,4.8074,4.8363,4.8555,4.8603,4.8796,4.9008,4.9033,4.9081,4.8936,4.8864,4.8844,4.8988,4.9133,4.9084,4.9181,4.9253,4.9373,4.9421,4.9493,4.9878,5.0143,5.0191,5.0335,5.0696,5.0696,5.0696,5.0696,5.0696,5.0696,5.0672,5.0455,5.0672,5.1032,5.1393,5.2019,5.2741,5.3466,5.383,5.4318,5.5394,5.656,5.7694,5.8908,6.0325,6.1816,6.3419,6.5011,6.6202,6.7305,6.8011,6.8711,6.9466,7.0221,7.086,7.1353,7.1847,7.2369,7.2631,7.2631,7.2631,7.2631,7.2979,7.3385,7.3995,7.4663,7.5417,7.6027,7.6259,7.6508,7.6508,7.6538,7.6538,7.6538,7.6538,7.6538,7.6538,7.6538,7.6538,7.6538,7.6538,7.6538,7.6538,7.6538,7.6538,7.6538,7.6538,4.5472,4.5237,4.4159,4.328,4.2542,4.247,4.2506,4.2521,4.3103,4.3372,4.3542,4.3601,4.3986,4.4261,4.4405,4.4597,4.4741,4.4861,4.4957,4.5213,4.615,4.6487,4.6535,4.6968,4.7401,4.7497,4.7569,4.7714,4.8267,4.8603,4.8868,4.9133,4.9133,4.9277,4.9445,4.9469,4.9589,4.9734,4.9517,4.9421,4.9349,4.9277,4.9229,4.9373,4.9662,4.995,5.0046,5.0335,5.0696,5.0696,5.0696,5.0672,5.0696,5.0696,5.0696,5.0696,5.0696,5.0696,5.0648,5.0479,5.0624,5.0912,5.1225,5.185,5.262,5.3173,5.356,5.4141,5.5117,5.5981,5.7062,5.8216,5.9615,6.0812,6.2115,6.3857,6.5396,6.6721,6.8119,6.8769,6.9408,7.0163,7.0773,7.1266,7.1905,7.2398,7.2631,7.2631,7.2718,7.2718,7.3182,7.3705,7.4401,7.504,7.5621,7.6143,7.6421,7.6538,7.6538,7.6538,7.6538,7.6538,7.6538,7.6538,7.6538,7.6538,7.6538,7.6538,7.6538,7.6538,7.6538,7.6538,7.6538,7.6508,7.6538,4.5103,4.4394,4.3094,4.2487,4.2445,4.2394,4.2718,4.3241,4.3385,4.3469,4.3577,4.3938,4.4141,4.4261,4.4285,4.4429,4.4525,4.4933,4.5053,4.5429,4.6199,4.6559,4.6607,4.7088,4.7449,4.7497,4.7569,4.7882,4.8411,4.8868,4.9325,4.9638,4.9686,4.9806,5.0143,5.0167,5.0263,5.0383,5.0263,5.0119,5.0143,5.0263,5.0335,5.0311,5.0455,5.0431,5.0503,5.0576,5.0696,5.0696,5.0696,5.0696,5.0696,5.0696,5.0696,5.0696,5.0696,5.0696,5.0624,5.0503,5.06,5.1081,5.1513,5.2091,5.262,5.3029,5.3485,5.4114,5.4696,5.5509,5.6427,5.7573,5.871,5.9742,6.0836,6.2656,6.4581,6.6272,6.7953,6.8749,6.9301,7.0047,7.0686,7.1295,7.1905,7.2282,7.2515,7.266,7.2863,7.3008,7.3618,7.4169,7.4866,7.5475,7.5969,7.6305,7.6479,7.6538,7.6538,7.6538,7.6538,7.6538,7.6538,7.6538,7.6538,7.6538,7.6538,7.6538,7.6538,7.6538,7.6538,7.6538,7.6479,7.645,7.6508,4.4502,4.3755,4.27,4.2314,4.2457,4.2718,4.3156,4.3481,4.377,4.389,4.3914,4.4141,4.4285,4.4285,4.4285,4.4285,4.4381,4.49,4.4813,4.5101,4.6006,4.6367,4.6752,4.7136,4.7401,4.7521,4.805,4.8459,4.8652,4.9469,5.007,5.0167,5.0239,5.0359,5.0696,5.0696,5.0696,5.0696,5.0696,5.0696,5.0696,5.0696,5.0696,5.0696,5.0696,5.0696,5.0696,5.0696,5.0696,5.0696,5.0696,5.0696,5.0696,5.0696,5.0696,5.0696,5.0696,5.0696,5.06,5.0576,5.0624,5.1201,5.1537,5.1994,5.2764,5.3173,5.3365,5.3894,5.4423,5.5235,5.5811,5.6857,5.7537,5.8453,5.9465,6.0953,6.3258,6.5396,6.6622,6.746,6.8613,7.0337,7.0976,7.1702,7.2224,7.2398,7.2602,7.2631,7.2834,7.3356,7.3966,7.4547,7.5185,7.5766,7.6276,7.645,7.6508,7.6538,7.6538,7.6538,7.6538,7.6538,7.6538,7.6538,7.6538,7.6538,7.6538,7.6538,7.6538,7.6538,7.6538,7.6538,7.645,7.623,7.6143,4.3821,4.3235,4.2583,4.2448,4.2608,4.3216,4.3553,4.3697,4.4069,4.4261,4.4237,4.4261,4.4285,4.4285,4.4285,4.4285,4.4501,4.5116,4.4885,4.4933,4.6175,4.6343,4.6583,4.6944,4.7305,4.7786,4.8291,4.8579,4.8796,4.9686,5.0287,5.0576,5.0672,5.0696,5.0696,5.0696,5.0696,5.0696,5.0696,5.0696,5.0696,5.0696,5.0696,5.0696,5.0648,5.0648,5.0672,5.0624,5.0624,5.0696,5.0696,5.0696,5.0696,5.0696,5.0696,5.0696,5.0696,5.0696,5.0696,5.0816,5.1056,5.1369,5.1513,5.2067,5.2884,5.3269,5.3461,5.3798,5.4327,5.4816,5.5367,5.5991,5.6617,5.7447,5.8479,5.954,6.2017,6.4399,6.5384,6.6286,6.8142,7.0066,7.1121,7.1876,7.234,7.2544,7.2602,7.2631,7.2834,7.356,7.4256,7.4779,7.5359,7.5882,7.6479,7.6538,7.6538,7.6538,7.6538,7.6538,7.6538,7.6538,7.6538,7.6538,7.6538,7.6538,7.6538,7.6538,7.6538,7.6538,7.6201,7.6085,7.5998,7.5853,7.5737,4.3564,4.2583,4.2234,4.2541,4.3205,4.3433,4.377,4.4093,4.4213,4.4285,4.4285,4.4285,4.4285,4.4285,4.4285,4.4333,4.4549,4.5261,4.4957,4.4693,4.6415,4.6487,4.6227,4.6267,4.7245,4.7495,4.7651,4.8228,4.788,4.9056,4.9977,4.979,5.0363,5.053,5.0625,5.0554,5.0483,5.0554,5.0696,5.0696,5.0696,5.0696,5.0696,5.0551,5.0263,5.0407,5.0455,5.0239,5.0359,5.0551,5.0696,5.0696,5.0696,5.0696,5.0696,5.0696,5.0696,5.0696,5.0768,5.1032,5.1345,5.161,5.1946,5.2644,5.3221,5.3485,5.3678,5.3774,5.4207,5.4471,5.4969,5.5588,5.6238,5.7223,5.8278,5.9434,6.128,6.2955,6.4341,6.5819,6.7623,6.9276,7.0715,7.1498,7.2369,7.2515,7.2573,7.2602,7.2718,7.3589,7.4488,7.4982,7.5475,7.5998,7.6538,7.6538,7.6538,7.6538,7.6538,7.6538,7.6538,7.6538,7.6538,7.6538,7.6538,7.6538,7.6538,7.6538,7.6538,7.645,7.5882,7.5621,7.5563,7.5359,7.5127]}]]